[[{"header":{"parameterUnit":"m.s-1","parameterCategory":1,"la1":30.6,"la2":29.2853,"lo1":-89.7004,"lo2":-87.6739,"dy":0.0162,"dx":0.0183,"nx":112,"ny":82,"refTime":"2023-03-23T12:00:00:Z","depth":0,"parameterNumber":2,"parameterNumberName":"U-component_of_WINDS"},"data":[0.0,0.0,0.0,0.0,0.0,0.0,0.0,0.0,0.0,0.0,0.0,0.0,0.0,0.0,0.0,0.0,0.0,0.0,0.0,0.0,0.0,0.0,0.0,0.0,0.0,0.0,0.0,0.0,0.0,0.0,0.0,0.0,0.0,0.0,0.0,0.0,0.0,0.0,0.0,0.0,0.0,0.0,0.0,0.0,0.0,0.0,0.0,0.0,0.0,0.0,0.0,0.0,0.0,0.0,0.0,0.0,0.0,0.0,0.0,0.0,0.0,0.0,0.0,0.0,0.0,0.0,0.0,0.0,0.0,0.0,0.0,0.0,0.0,0.0,0.0,0.0,0.0,0.0,0.0,0.0,0.0,0.0,0.0,0.0,0.0,0.0,0.0,0.0,0.0,0.0,-3.914,-4.1036,-4.453,-4.674,-4.6885,-4.7163,-4.6817,-4.5671,0.0,0.0,0.0,0.0,0.0,0.0,0.0,0.0,0.0,0.0,0.0,0.0,0.0,0.0,0.0,0.0,0.0,0.0,0.0,0.0,0.0,0.0,0.0,0.0,0.0,0.0,0.0,0.0,0.0,0.0,0.0,0.0,0.0,0.0,0.0,0.0,0.0,0.0,0.0,0.0,0.0,0.0,0.0,0.0,0.0,0.0,0.0,0.0,0.0,0.0,0.0,0.0,0.0,0.0,0.0,0.0,0.0,0.0,0.0,0.0,0.0,0.0,0.0,0.0,0.0,0.0,0.0,0.0,0.0,0.0,0.0,0.0,0.0,0.0,0.0,0.0,0.0,0.0,0.0,0.0,0.0,0.0,0.0,0.0,0.0,0.0,0.0,0.0,0.0,0.0,0.0,0.0,0.0,0.0,0.0,0.0,0.0,0.0,0.0,0.0,0.0,0.0,0.0,0.0,-4.1196,-4.3497,-4.4996,-4.6086,-4.6855,-4.5047,-4.4355,-4.5518,0.0,0.0,0.0,0.0,0.0,0.0,0.0,0.0,0.0,0.0,0.0,0.0,0.0,0.0,0.0,0.0,0.0,0.0,0.0,0.0,0.0,0.0,0.0,0.0,0.0,0.0,0.0,0.0,0.0,0.0,0.0,0.0,0.0,0.0,0.0,0.0,0.0,0.0,0.0,0.0,0.0,0.0,0.0,0.0,0.0,0.0,0.0,0.0,0.0,0.0,0.0,0.0,0.0,0.0,0.0,0.0,0.0,0.0,0.0,0.0,0.0,0.0,0.0,0.0,0.0,0.0,0.0,0.0,0.0,0.0,0.0,0.0,0.0,0.0,0.0,0.0,0.0,0.0,0.0,0.0,0.0,0.0,0.0,0.0,0.0,0.0,0.0,0.0,0.0,0.0,0.0,0.0,0.0,0.0,0.0,0.0,0.0,0.0,0.0,0.0,0.0,0.0,0.0,-4.1906,-4.207,-4.4094,-4.5094,-4.5748,-4.6163,-4.4278,-4.3816,-4.5479,-4.4748,0.0,0.0,0.0,0.0,0.0,0.0,0.0,0.0,0.0,0.0,0.0,0.0,0.0,0.0,0.0,0.0,0.0,0.0,0.0,0.0,0.0,0.0,0.0,0.0,0.0,0.0,0.0,0.0,0.0,0.0,0.0,0.0,0.0,0.0,0.0,0.0,0.0,0.0,0.0,0.0,0.0,0.0,0.0,0.0,0.0,0.0,0.0,0.0,0.0,0.0,0.0,0.0,0.0,0.0,0.0,0.0,0.0,0.0,0.0,0.0,0.0,0.0,0.0,0.0,0.0,0.0,0.0,0.0,0.0,0.0,0.0,0.0,0.0,0.0,0.0,0.0,0.0,0.0,0.0,0.0,0.0,0.0,0.0,0.0,0.0,0.0,0.0,0.0,0.0,0.0,0.0,0.0,0.0,0.0,0.0,0.0,0.0,0.0,0.0,0.0,0.0,0.0,-4.2601,-4.2277,-4.4393,-4.521,-4.5594,-4.5594,-4.3893,-4.3585,-4.5479,-4.3816,0.0,0.0,0.0,0.0,0.0,0.0,0.0,0.0,0.0,0.0,0.0,0.0,0.0,0.0,0.0,0.0,0.0,0.0,0.0,0.0,0.0,0.0,0.0,0.0,0.0,0.0,0.0,0.0,0.0,0.0,0.0,0.0,0.0,0.0,0.0,0.0,0.0,0.0,0.0,0.0,0.0,0.0,0.0,0.0,0.0,0.0,0.0,0.0,0.0,0.0,0.0,0.0,0.0,0.0,0.0,0.0,0.0,0.0,0.0,0.0,0.0,0.0,0.0,0.0,0.0,0.0,0.0,0.0,0.0,0.0,0.0,0.0,0.0,0.0,0.0,0.0,0.0,0.0,0.0,0.0,0.0,0.0,0.0,0.0,0.0,0.0,0.0,0.0,0.0,0.0,0.0,0.0,0.0,0.0,0.0,0.0,0.0,0.0,0.0,0.0,0.0,0.0,-4.1714,-4.1862,-4.5171,-4.5556,-4.5594,-4.5594,-4.3316,-4.297,-4.5441,-4.3278,0.0,0.0,0.0,0.0,0.0,0.0,0.0,0.0,0.0,0.0,0.0,0.0,0.0,0.0,0.0,0.0,0.0,0.0,0.0,0.0,0.0,0.0,0.0,0.0,0.0,0.0,0.0,0.0,0.0,0.0,0.0,0.0,0.0,0.0,0.0,0.0,0.0,0.0,0.0,0.0,0.0,0.0,0.0,0.0,0.0,0.0,0.0,0.0,0.0,0.0,0.0,0.0,0.0,0.0,0.0,0.0,0.0,0.0,0.0,0.0,0.0,0.0,0.0,0.0,0.0,0.0,0.0,0.0,0.0,0.0,0.0,0.0,0.0,0.0,0.0,0.0,0.0,0.0,0.0,0.0,0.0,0.0,0.0,0.0,0.0,0.0,0.0,0.0,0.0,0.0,0.0,0.0,0.0,0.0,0.0,0.0,0.0,0.0,0.0,0.0,0.0,0.0,-4.3257,-4.3008,0.0,-4.5594,-4.5364,-4.4855,-4.3431,-4.3239,-4.4701,0.0,0.0,0.0,0.0,0.0,0.0,0.0,0.0,0.0,0.0,0.0,0.0,0.0,0.0,0.0,0.0,0.0,0.0,0.0,0.0,0.0,0.0,0.0,0.0,0.0,0.0,0.0,0.0,0.0,0.0,0.0,0.0,0.0,0.0,0.0,0.0,0.0,0.0,0.0,0.0,0.0,0.0,0.0,0.0,0.0,0.0,0.0,0.0,0.0,0.0,0.0,0.0,0.0,0.0,0.0,0.0,0.0,0.0,0.0,0.0,0.0,0.0,0.0,0.0,0.0,0.0,0.0,0.0,0.0,0.0,0.0,0.0,0.0,0.0,0.0,0.0,0.0,0.0,0.0,0.0,0.0,0.0,0.0,0.0,0.0,0.0,0.0,0.0,0.0,0.0,0.0,0.0,0.0,0.0,0.0,0.0,0.0,0.0,0.0,0.0,0.0,0.0,-4.4744,-4.3373,-4.3008,0.0,-4.5441,-4.5248,-4.4355,-4.3047,-4.2854,-4.4201,0.0,0.0,0.0,0.0,0.0,0.0,0.0,0.0,0.0,0.0,0.0,0.0,0.0,0.0,0.0,0.0,0.0,0.0,0.0,0.0,0.0,0.0,0.0,0.0,0.0,0.0,0.0,0.0,0.0,0.0,0.0,0.0,0.0,0.0,0.0,0.0,0.0,0.0,0.0,0.0,0.0,0.0,0.0,0.0,0.0,0.0,0.0,0.0,0.0,0.0,0.0,0.0,0.0,0.0,0.0,0.0,0.0,0.0,0.0,0.0,0.0,0.0,0.0,0.0,0.0,0.0,0.0,0.0,0.0,0.0,0.0,0.0,0.0,0.0,0.0,0.0,0.0,0.0,0.0,0.0,0.0,0.0,0.0,0.0,0.0,0.0,0.0,0.0,0.0,0.0,0.0,0.0,0.0,0.0,0.0,0.0,0.0,0.0,0.0,0.0,0.0,0.0,-4.3015,-4.1629,-4.1477,-4.4008,-4.5056,-4.5248,-4.4355,-4.1978,-4.1593,0.0,0.0,0.0,0.0,0.0,0.0,0.0,0.0,0.0,0.0,0.0,0.0,0.0,0.0,0.0,0.0,0.0,0.0,0.0,0.0,0.0,0.0,0.0,0.0,0.0,0.0,0.0,0.0,0.0,0.0,0.0,0.0,0.0,0.0,0.0,0.0,0.0,0.0,0.0,0.0,0.0,0.0,0.0,0.0,0.0,0.0,0.0,0.0,0.0,0.0,0.0,0.0,0.0,0.0,0.0,0.0,0.0,0.0,0.0,0.0,0.0,0.0,0.0,0.0,0.0,0.0,0.0,0.0,0.0,0.0,0.0,0.0,0.0,0.0,0.0,0.0,0.0,0.0,0.0,0.0,0.0,0.0,0.0,0.0,0.0,0.0,0.0,0.0,0.0,0.0,0.0,0.0,0.0,0.0,0.0,0.0,0.0,0.0,0.0,0.0,0.0,0.0,0.0,-4.3698,-4.1932,-4.1477,-4.4008,-4.4509,-4.4355,-4.3508,-4.1631,-4.1362,-4.3316,0.0,0.0,0.0,0.0,0.0,0.0,0.0,0.0,0.0,0.0,0.0,0.0,0.0,0.0,0.0,0.0,0.0,0.0,0.0,0.0,0.0,0.0,0.0,0.0,0.0,0.0,0.0,0.0,0.0,0.0,0.0,0.0,0.0,0.0,0.0,0.0,0.0,0.0,0.0,0.0,0.0,0.0,0.0,0.0,0.0,0.0,0.0,0.0,0.0,0.0,0.0,0.0,0.0,0.0,0.0,0.0,0.0,0.0,0.0,0.0,0.0,0.0,0.0,0.0,0.0,0.0,0.0,0.0,0.0,0.0,0.0,0.0,0.0,0.0,0.0,0.0,0.0,0.0,0.0,0.0,0.0,0.0,0.0,0.0,0.0,0.0,0.0,0.0,0.0,0.0,0.0,0.0,0.0,0.0,0.0,0.0,0.0,0.0,0.0,0.0,0.0,0.0,-4.3987,-4.2093,-4.1477,-4.4008,-4.4624,-4.4355,-4.3201,-4.1516,-4.0939,-4.2008,0.0,0.0,0.0,0.0,0.0,0.0,0.0,0.0,0.0,0.0,0.0,0.0,0.0,0.0,0.0,0.0,0.0,0.0,0.0,0.0,0.0,0.0,0.0,0.0,0.0,0.0,0.0,0.0,0.0,0.0,0.0,0.0,0.0,0.0,0.0,0.0,0.0,0.0,0.0,0.0,0.0,0.0,0.0,0.0,0.0,0.0,0.0,0.0,0.0,0.0,0.0,0.0,0.0,0.0,0.0,0.0,0.0,0.0,0.0,0.0,0.0,0.0,0.0,0.0,0.0,0.0,0.0,0.0,0.0,0.0,0.0,0.0,0.0,0.0,0.0,0.0,0.0,0.0,0.0,0.0,0.0,0.0,0.0,0.0,0.0,0.0,0.0,0.0,0.0,0.0,0.0,0.0,0.0,0.0,0.0,0.0,0.0,0.0,0.0,0.0,0.0,0.0,-4.397,-4.2093,-4.1477,-4.4008,-4.5017,-4.4825,-4.3239,-4.1516,-4.0516,-4.0631,0.0,0.0,0.0,0.0,0.0,0.0,0.0,0.0,0.0,0.0,0.0,0.0,0.0,0.0,0.0,0.0,0.0,0.0,0.0,0.0,0.0,0.0,0.0,0.0,0.0,0.0,0.0,0.0,0.0,0.0,0.0,0.0,0.0,0.0,0.0,0.0,0.0,0.0,0.0,0.0,0.0,0.0,0.0,0.0,0.0,0.0,0.0,0.0,0.0,0.0,0.0,0.0,0.0,0.0,0.0,0.0,0.0,0.0,0.0,0.0,-4.8456,0.0,0.0,0.0,0.0,0.0,0.0,0.0,0.0,0.0,0.0,0.0,0.0,0.0,0.0,0.0,0.0,0.0,0.0,0.0,0.0,0.0,0.0,0.0,0.0,0.0,0.0,0.0,0.0,0.0,0.0,0.0,0.0,0.0,0.0,0.0,0.0,0.0,0.0,0.0,0.0,0.0,-4.397,-4.2093,-4.1477,-4.4008,-4.447,-4.4162,-4.3162,-4.1516,-4.0785,-4.147,-4.0277,0.0,0.0,0.0,0.0,0.0,0.0,0.0,0.0,0.0,0.0,0.0,0.0,0.0,0.0,0.0,0.0,0.0,0.0,0.0,0.0,0.0,0.0,0.0,0.0,0.0,0.0,0.0,0.0,0.0,0.0,0.0,0.0,0.0,0.0,0.0,0.0,0.0,0.0,0.0,0.0,0.0,0.0,0.0,0.0,0.0,0.0,0.0,0.0,0.0,0.0,0.0,0.0,0.0,0.0,0.0,0.0,0.0,0.0,0.0,0.0,-4.8841,0.0,0.0,0.0,0.0,0.0,0.0,0.0,0.0,0.0,0.0,0.0,0.0,0.0,0.0,0.0,0.0,0.0,0.0,0.0,0.0,0.0,0.0,0.0,0.0,0.0,0.0,0.0,0.0,0.0,0.0,0.0,0.0,0.0,0.0,0.0,0.0,0.0,0.0,0.0,0.0,-4.4586,-4.2701,-4.2085,-4.4662,-4.4932,-4.4586,-4.3739,-4.2124,-4.1123,-4.1162,-4.0362,0.0,0.0,0.0,0.0,0.0,0.0,0.0,0.0,0.0,0.0,0.0,0.0,0.0,0.0,0.0,0.0,0.0,0.0,0.0,0.0,0.0,0.0,0.0,0.0,0.0,0.0,0.0,0.0,0.0,0.0,0.0,0.0,0.0,0.0,0.0,0.0,0.0,0.0,0.0,0.0,0.0,0.0,0.0,0.0,0.0,0.0,0.0,0.0,0.0,0.0,0.0,0.0,0.0,-5.2346,-5.3049,-5.4241,-5.3356,-5.2202,-5.0856,-5.0164,-4.8894,-4.7509,-4.9625,0.0,0.0,0.0,0.0,0.0,0.0,0.0,0.0,0.0,0.0,0.0,0.0,0.0,0.0,0.0,0.0,0.0,0.0,0.0,0.0,0.0,0.0,0.0,0.0,-4.4624,-4.4509,-4.6124,0.0,0.0,0.0,0.0,0.0,0.0,0.0,0.0,0.0,0.0,0.0,-4.5287,-4.3508,-4.2931,-4.5325,-4.5594,-4.5248,-4.4355,-4.2893,-4.1662,-4.0785,-4.0439,-4.0439,0.0,0.0,0.0,0.0,0.0,0.0,0.0,0.0,0.0,0.0,0.0,0.0,0.0,0.0,0.0,0.0,0.0,0.0,0.0,0.0,0.0,0.0,0.0,0.0,0.0,0.0,0.0,0.0,0.0,0.0,0.0,0.0,-4.5009,-4.6855,0.0,0.0,0.0,0.0,0.0,0.0,0.0,0.0,0.0,0.0,0.0,0.0,0.0,-5.2741,-5.4857,-5.4972,-5.4741,-5.4164,-5.4164,-5.3895,-5.3356,-5.2462,-5.1962,-5.1731,-5.1615,0.0,-4.9086,-4.9433,0.0,0.0,0.0,0.0,0.0,0.0,0.0,0.0,0.0,0.0,0.0,0.0,0.0,0.0,0.0,0.0,0.0,0.0,0.0,0.0,0.0,0.0,-4.5248,-4.3778,-4.3355,-4.3508,0.0,-4.515,-4.5676,-4.5753,-4.5714,0.0,0.0,0.0,0.0,0.0,0.0,0.0,-4.5364,-4.4047,-4.3624,-4.5402,-4.5594,-4.5248,-4.4355,-4.347,-4.2547,-4.17,-4.0277,-4.0123,-4.1585,-4.1008,0.0,0.0,0.0,0.0,0.0,0.0,0.0,0.0,0.0,0.0,0.0,0.0,0.0,0.0,0.0,0.0,0.0,0.0,0.0,0.0,0.0,0.0,0.0,0.0,0.0,0.0,0.0,0.0,0.0,-4.6163,-4.8009,-4.8279,-5.0125,-5.1433,0.0,0.0,0.0,0.0,0.0,0.0,0.0,0.0,0.0,-5.2577,-5.2615,-5.3164,-5.428,-5.478,-5.5088,-5.5164,-5.5665,-5.5972,-5.6049,-5.5164,-5.478,-5.4741,-5.4241,-5.3356,-5.2164,-5.0702,-5.0048,-4.9894,0.0,0.0,0.0,0.0,-4.9394,-4.9433,-4.951,-4.8933,-4.8317,-4.9548,0.0,0.0,0.0,0.0,0.0,0.0,0.0,0.0,0.0,0.0,-4.5402,-4.4671,-4.4509,-4.4586,-4.494,-4.5325,-4.5594,0.0,-4.5594,-4.5594,-4.5594,0.0,0.0,0.0,0.0,-4.4201,-4.5441,-4.4509,-4.4239,-4.5479,-4.5171,-4.4701,-4.4316,-4.3124,-4.22,-4.1808,-4.0662,-4.0285,-4.1046,-4.1162,-4.1777,0.0,0.0,0.0,0.0,0.0,0.0,0.0,0.0,0.0,0.0,0.0,0.0,0.0,0.0,0.0,0.0,0.0,0.0,0.0,0.0,0.0,0.0,0.0,0.0,0.0,0.0,0.0,0.0,-4.7894,-4.9702,-4.8856,-5.0818,-5.2154,0.0,0.0,0.0,0.0,0.0,0.0,-5.1318,-5.1895,-5.2731,-5.3818,-5.3857,-5.4049,-5.4511,-5.5357,-5.6088,-5.6665,-5.755,-5.8319,-5.8896,-5.7819,-5.7319,-5.728,-5.6395,-5.5549,-5.4626,-5.2279,-5.0971,-5.0279,-4.9394,-4.9086,-4.9125,-4.9586,-4.9586,-4.9471,-4.9894,-4.9202,-4.8279,-4.9394,-4.874,-4.7586,-4.774,0.0,0.0,0.0,0.0,-4.6701,-4.5825,-4.5787,-4.5902,-4.5671,-4.5594,-4.5594,-4.5594,-4.5594,-4.5594,0.0,-4.5594,-4.5594,-4.5594,0.0,0.0,0.0,0.0,-4.4855,-4.5518,-4.5017,-4.4893,-4.5518,-4.5017,-4.4547,-4.4316,-4.297,-4.2038,-4.1808,-4.0969,-4.0516,-4.0516,-4.1123,-4.1585,-4.1808,0.0,0.0,0.0,0.0,0.0,0.0,0.0,0.0,0.0,0.0,0.0,0.0,0.0,0.0,0.0,0.0,0.0,0.0,0.0,0.0,0.0,0.0,0.0,0.0,0.0,0.0,0.0,0.0,0.0,-4.7115,-5.0625,0.0,0.0,0.0,0.0,-5.075,-5.2125,-5.3049,-5.3087,-5.3126,-5.3895,-5.5511,-5.5549,-5.6357,-5.805,-5.8858,-5.9281,-5.9319,-6.0204,-6.0627,-6.0627,-5.8973,-5.8242,-5.8204,-5.7319,-5.6445,-5.5511,-5.378,-5.3049,-5.2933,-5.2038,-5.1692,-5.1615,-5.0894,-5.0087,-4.9279,-4.8509,-4.8163,-4.8394,-5.0087,-5.001,-4.8971,-4.7432,-4.6394,0.0,0.0,-4.6278,-4.6701,-4.5825,-4.6201,-4.6624,-4.5787,-4.5594,-4.5594,-4.5594,-4.5594,-4.5594,0.0,-4.5594,-4.5594,-4.5594,0.0,-4.5594,-4.5594,-4.5556,-4.5556,-4.5594,-4.5556,-4.5556,-4.5594,-4.5556,-4.521,-4.4355,-4.3508,-4.2701,-4.1846,-4.0969,-4.0516,-4.0516,-4.0554,-4.0931,-4.1769,-4.1846,0.0,0.0,0.0,0.0,0.0,0.0,0.0,0.0,0.0,0.0,0.0,0.0,0.0,0.0,0.0,0.0,0.0,0.0,0.0,0.0,0.0,0.0,0.0,0.0,0.0,0.0,0.0,0.0,-5.2395,-5.4395,0.0,-5.3164,-5.3626,-5.3549,-5.2395,-5.3395,-5.4241,-5.478,-5.5318,-5.6395,-5.8088,-5.8165,-5.8704,-5.9896,-6.0204,-6.0319,-6.0319,-6.0666,-6.0781,-6.0742,-5.905,-5.8319,-5.8204,-5.678,-5.5972,-5.5665,-5.5049,-5.4164,-5.3049,-5.1664,-5.1125,-5.1087,-5.0827,-5.0519,-5.0202,-4.9894,-4.9394,-4.8933,-4.9009,-4.8817,-4.8432,-4.7855,-4.7471,-4.7201,-4.7201,-4.7048,-4.6817,-4.6509,-4.624,-4.597,-4.5671,-4.5594,-4.5594,-4.5594,-4.5594,-4.5594,-4.5594,-4.5594,-4.5594,-4.5594,-4.5594,-4.5594,-4.5594,-4.5594,-4.5594,-4.5594,-4.5594,-4.5594,-4.5594,-4.5094,-4.4624,-4.4316,-4.3047,-4.2124,-4.1808,-4.0969,-4.0516,-4.0516,-4.0516,-4.0669,-4.0969,-4.0969,-4.1239,0.0,0.0,0.0,0.0,0.0,0.0,0.0,0.0,0.0,0.0,0.0,0.0,0.0,0.0,0.0,0.0,0.0,0.0,0.0,0.0,0.0,0.0,0.0,0.0,0.0,0.0,-5.3818,-5.5511,-5.6742,-5.6857,-5.5434,-5.5318,-5.4972,-5.4126,-5.5126,-5.6126,-5.6934,-5.7511,-5.8473,-5.9896,-5.9935,-6.0204,-6.0781,-6.0781,-6.0781,-6.0781,-6.0781,-6.0781,-6.0742,-5.905,-5.8434,-5.8627,-5.6896,-5.6137,-5.6137,-5.6137,-5.5318,-5.3933,-5.2818,-5.2212,-5.1982,-5.1982,-5.1779,-5.151,-5.1202,-5.0548,-4.9702,-4.8817,-4.8548,-4.8471,-4.8202,-4.8086,-4.8086,-4.8086,-4.7932,-4.7625,-4.7038,-4.6663,-4.6278,-4.5748,-4.5594,-4.5671,-4.597,-4.5825,-4.571,-4.597,-4.5787,-4.5594,-4.5594,-4.5594,-4.571,-4.597,-4.5787,-4.571,-4.6009,-4.5787,-4.5594,-4.5594,-4.5094,-4.4624,-4.4316,-4.3278,-4.2393,-4.1846,-4.1277,-4.0823,-4.0516,-4.0785,-4.0931,-4.0931,-4.1247,-4.1662,-4.2239,0.0,0.0,0.0,0.0,0.0,0.0,0.0,0.0,0.0,0.0,0.0,0.0,0.0,0.0,0.0,0.0,0.0,0.0,0.0,0.0,0.0,0.0,0.0,-5.1654,-5.4126,-5.5742,-5.5818,-5.7319,-5.7396,-5.4895,-5.6137,-5.6753,-5.5895,-5.7396,-5.8704,-5.9511,-5.955,-5.9935,-6.0781,-6.0781,-6.0781,-6.0781,-6.0781,-6.0781,-6.0781,-6.0781,-6.0781,-6.0742,-5.9088,-5.8742,-5.9358,-5.7715,-5.6983,-5.6945,-5.6945,-5.6483,-5.5703,-5.5703,-5.5203,-5.4511,-5.4472,-5.3895,-5.3049,-5.2192,-5.1395,-5.0596,-4.9702,-4.9433,-4.9279,-4.8432,-4.8202,-4.8202,-4.8202,-4.8779,-4.9048,-4.7432,-4.7548,-4.7663,-4.6018,-4.5671,-4.5893,-4.674,-4.624,-4.5893,-4.674,-4.6201,-4.5594,-4.5594,-4.5594,-4.5893,-4.674,-4.6124,0.0,-4.674,-4.6124,-4.5594,-4.5594,-4.5594,-4.5248,-4.4393,-4.4316,-4.3624,-4.1962,-4.1808,-4.1431,-4.0593,-4.1316,-4.1769,-4.1769,-4.2624,-4.3085,-4.3085,0.0,0.0,0.0,0.0,0.0,0.0,0.0,0.0,0.0,0.0,0.0,0.0,0.0,0.0,0.0,0.0,0.0,0.0,0.0,0.0,0.0,0.0,-5.2472,-5.4395,-5.5241,-5.6395,-5.8242,-5.9435,-5.9588,-5.8242,-5.9127,-5.9396,-5.8511,-5.9473,-6.0204,-6.0435,-6.0435,-6.055,-6.0781,-6.0781,-6.0781,-6.0781,-6.0781,-6.0781,-6.0781,-6.0781,-6.0781,-6.0742,-5.9665,-5.8973,-5.8588,-5.7484,-5.6637,-5.6049,-5.6049,-5.5934,-5.5703,-5.5703,-5.5549,-5.5203,-5.401,-5.301,-5.2231,-5.1962,-5.1769,-5.1433,-5.0625,-5.0327,-5.0289,-5.0048,-5.0394,-5.0731,-5.0164,-5.0164,-5.0087,-4.9009,-4.8394,-4.7855,-4.6778,-4.7009,-4.7317,-4.6962,-4.6701,-4.6624,-4.6846,-4.6201,-4.5594,-4.5594,-4.5594,-4.5671,-4.5932,-4.5748,0.0,-4.5932,-4.5748,-4.5594,-4.5594,-4.5594,-4.5518,-4.5248,-4.4662,-4.4085,-4.3624,-4.247,-4.1692,-4.147,-4.1085,-4.0854,-4.0854,-4.2316,-4.3085,0.0,0.0,0.0,0.0,0.0,0.0,0.0,0.0,0.0,0.0,0.0,0.0,0.0,0.0,0.0,0.0,0.0,0.0,0.0,0.0,0.0,0.0,-5.3664,-5.5934,-5.7588,-5.7242,-5.7857,-6.0742,-6.1243,-6.1127,-6.0627,-6.105,-6.0973,-6.0127,-6.0512,-6.0781,-6.0781,-6.0781,-6.0781,-6.0781,-6.0781,-6.0781,-6.0781,-6.0781,-6.0781,-6.0781,-6.0781,-6.0781,-6.0781,-5.9896,-5.9242,-5.8742,-5.7511,-5.6714,-5.6214,-5.5857,-5.5703,0.0,0.0,0.0,0.0,0.0,-5.3472,-5.2423,-5.2423,-5.1972,-5.1318,-5.0856,-5.0712,-5.0712,-5.0712,-5.101,-5.1318,-5.0827,-5.0712,-5.0519,-4.9625,-4.9009,-4.8432,-4.7586,-4.7778,-4.8086,-4.7971,-4.7394,-4.7,-4.7355,-4.6432,0.0,-4.5594,-4.5594,-4.571,-4.6086,-4.5825,-4.5748,-4.6086,-4.5825,-4.5594,-4.5594,-4.5594,-4.5594,-4.5594,-4.5133,0.0,0.0,0.0,-4.2354,-4.2354,-4.2162,0.0,0.0,0.0,-4.397,-4.3585,0.0,0.0,0.0,-4.5594,-4.5594,0.0,0.0,0.0,0.0,0.0,0.0,0.0,0.0,0.0,0.0,0.0,0.0,0.0,0.0,0.0,0.0,-5.6973,-5.9204,-6.0973,-5.9935,-6.0089,-6.2962,-6.2666,-6.2216,-6.2101,-6.2101,-6.1755,-6.0858,-6.0781,-6.0781,-6.0781,0.0,0.0,0.0,0.0,-6.0781,-6.0781,-6.0781,-6.0781,-6.0781,-6.0781,-6.0781,-6.0781,-6.0012,-5.9588,-5.9396,-5.7819,-5.7099,-5.6945,-5.6049,-5.5703,-5.5703,-5.5703,-5.5626,-5.5588,-5.5665,-5.4703,-5.3318,-5.3241,0.0,0.0,-5.075,-5.0712,-5.0712,-5.0712,-5.075,-5.0827,-5.075,-5.0789,-5.0625,-4.9779,-4.9548,-4.9317,-4.8471,-4.8317,-4.8548,-4.9125,-4.8163,-4.7355,-4.7855,-4.674,-4.571,-4.5633,-4.5594,-4.5855,-4.6624,-4.6086,-4.5902,-4.6663,-4.6086,-4.5594,-4.5594,0.0,0.0,-4.5594,-4.5594,-4.5287,-4.4509,-4.3662,-4.3201,-4.3085,-4.3855,-4.4239,-4.4162,-4.5094,-4.5171,-4.4316,-4.5171,-4.5594,-4.5594,-4.5594,-4.5594,0.0,0.0,0.0,0.0,0.0,0.0,0.0,0.0,0.0,0.0,0.0,0.0,0.0,0.0,0.0,-5.7011,-5.9127,-6.1166,-6.3512,-6.3589,-6.3358,-6.3308,-6.3166,-6.282,-6.2178,-6.2101,-6.1755,-6.0858,-6.0781,-6.0781,-6.0781,-6.0781,-6.0781,-6.0781,-6.0781,-6.0781,-6.0781,-6.0781,-6.0781,-6.0781,0.0,0.0,-6.0781,-6.0627,-6.0165,-5.9435,-5.8473,-5.7665,-5.6945,-5.6049,-5.5703,-5.5703,-5.5703,-5.528,-5.4818,-5.5472,-5.5088,-5.4164,-5.3433,-5.301,-5.2472,-5.1135,-5.0712,-5.0712,-5.0712,-5.1164,0.0,-5.0894,-5.1164,-5.1471,-5.0664,-5.0442,-5.025,-4.9356,-4.9702,-4.9856,-4.8625,-4.8663,-4.8548,-4.7355,-4.6855,-4.6432,-4.571,-4.5594,-4.5671,-4.5825,-4.571,-4.5671,-4.5825,-4.571,-4.5594,-4.5594,-4.5594,-4.5594,-4.5594,-4.5594,-4.5518,-4.5364,-4.4547,-4.3778,-4.3124,-4.3855,-4.397,-4.3355,-4.4825,-4.5171,-4.4316,-4.5171,-4.5594,-4.5594,-4.5594,-4.5594,0.0,0.0,0.0,0.0,0.0,0.0,0.0,0.0,0.0,0.0,0.0,-5.0846,0.0,0.0,-5.7319,-6.0319,-6.2551,-6.4243,-6.5128,-6.559,-6.5551,-6.4705,-6.4205,-6.3782,-6.3397,-6.2974,-6.2512,-6.2089,-6.1281,-6.0973,-6.1435,-6.105,-6.0781,-6.0781,-6.0781,-6.0781,-6.0781,-6.0781,-6.0781,-6.0781,-6.0781,-6.0781,-6.0781,-6.0781,-6.0319,-5.9473,-5.8665,-5.7819,-5.6945,-5.6049,-5.5703,-5.5703,-5.5703,-5.5434,-5.5164,-5.5549,-5.5203,-5.4434,-5.401,-5.328,-5.2423,-5.1587,-5.101,-5.0712,-5.0712,-5.0971,-5.1202,-5.0827,-5.0971,-5.1202,-5.0789,-5.0712,-5.0596,-5.0164,-5.0366,-5.0481,-4.9586,-4.9394,-4.9163,-4.8317,-4.7817,-4.724,-4.6394,-4.624,-4.6086,-4.5671,-4.5594,-4.5594,-4.5594,-4.5594,-4.5594,-4.5594,-4.5594,-4.5594,-4.5594,-4.5594,-4.5402,-4.4979,-4.494,-4.4586,-4.3739,-4.4509,-4.4739,-4.4355,-4.5171,-4.5402,-4.494,-4.5402,-4.5594,-4.5594,-4.5594,-4.5594,0.0,0.0,0.0,0.0,0.0,0.0,0.0,0.0,-4.7831,-4.9583,-5.1291,-5.3324,-5.6159,-5.8643,-6.1012,-6.3435,-6.5782,-6.7128,-6.6474,-6.6936,-6.6974,-6.6013,-6.5128,-6.4551,-6.4359,-6.3589,-6.3012,-6.282,-6.1704,-6.1293,-6.1831,-6.1331,-6.0973,-6.0819,-6.0781,-6.0781,-6.0781,-6.0781,-6.0781,-6.0781,-6.0781,-6.0781,-6.0781,-6.0781,-6.0435,-5.9704,-5.8704,-5.7703,-5.6676,-5.5972,-5.5703,-5.5703,-5.5703,-5.5703,-5.5703,-5.5703,-5.528,-5.4703,-5.4549,-5.3587,-5.2385,-5.2192,-5.1587,-5.0933,-5.0933,-5.0827,-5.0712,-5.0712,-5.0712,-5.0712,-5.0712,-5.0712,-5.0712,-5.0712,-5.0712,-5.0635,-5.0481,-5.001,-4.9548,-4.9202,-4.8702,-4.8086,-4.7269,-4.7,-4.6586,-4.5748,-4.5594,-4.5594,-4.5594,-4.5594,-4.5594,-4.5594,-4.5594,-4.5594,-4.5594,-4.5594,-4.5287,-4.4586,-4.521,-4.5287,-4.4586,-4.5248,-4.5594,-4.5594,-4.5594,-4.5594,-4.5594,-4.5594,-4.5594,-4.5594,-4.5594,-4.5594,-4.6287,-4.559,-4.5388,-4.6526,-4.6361,-4.7021,0.0,0.0,-5.2637,-5.3582,-5.6294,-5.8367,-5.811,-6.0714,-6.3474,-6.532,-6.709,-6.8244,-6.8129,-6.8205,-6.7667,-6.609,-6.5128,-6.432,-6.3512,-6.2704,-6.1908,-6.1127,-6.1639,-6.1678,-6.0973,-6.1601,-6.1601,-6.0819,-6.0781,-6.0781,-6.0781,-6.0781,-6.0781,-6.0781,-6.0781,-6.0781,-6.0781,-6.0781,-6.0742,-6.055,-5.8973,-5.7357,-5.5818,-5.5742,-5.5703,-5.5703,-5.5703,-5.5703,-5.5703,-5.5703,-5.5626,-5.5472,-5.4741,-5.4357,-5.4087,-5.3318,-5.2462,-5.1769,-5.1769,-5.1279,-5.0712,-5.0712,-5.0712,-5.0712,-5.0712,-5.0712,-5.0712,-5.0712,-5.0712,-5.0481,-4.9702,-5.0087,-5.0087,-4.8548,-4.8779,-4.8971,-4.8125,-4.7355,-4.6586,-4.5748,-4.5594,-4.5594,-4.5594,-4.5594,-4.5594,-4.5594,-4.5594,-4.5594,-4.5594,-4.5594,-4.5556,-4.5479,-4.5556,-4.5556,-4.5479,-4.5556,-4.5594,-4.5594,-4.5594,-4.5594,-4.5594,-4.5594,-4.5594,-4.5594,-4.5594,-4.5594,-4.6104,-4.6324,-4.6819,0.0,-4.8617,-5.0692,-5.2726,-5.3922,-5.495,-5.6235,-5.8211,-5.9985,-6.0918,-6.3312,-6.5604,0.0,-6.8744,-6.9706,-6.9206,-6.8282,-6.7205,-6.6051,-6.4282,-6.3205,-6.3281,-6.2551,-6.2358,-6.2974,-6.2435,-6.2127,-6.2243,-6.2166,-6.1716,-6.0819,-6.0781,-6.0781,-6.0781,-6.0781,-6.0781,-6.0781,-6.0781,-6.0781,-6.0781,-6.0781,-6.0512,-6.0012,-5.9319,-5.8011,-5.6445,-5.6445,-5.6175,-5.5703,-5.5703,-5.5703,-5.5703,-5.5703,-5.5703,-5.5665,-5.5318,-5.4895,-5.4434,-5.4087,-5.3356,-5.2654,-5.2654,-5.2433,-5.2164,-5.2164,-5.2164,-5.2164,-5.2164,-5.2164,-5.2164,-5.2164,-5.2164,-5.2049,-5.1702,-5.151,-5.1164,-5.0462,-5.024,-4.9894,-4.9009,-4.8586,-4.7894,-4.6547,-4.5932,-4.5594,-4.5594,-4.5594,-4.5594,-4.5594,-4.5594,-4.5594,-4.5594,-4.5594,-4.5594,-4.5594,-4.5594,-4.5594,-4.5594,-4.5594,-4.5594,-4.5594,-4.5594,-4.5594,-4.5594,-4.5594,-4.5594,-4.5594,-4.5594,-4.5855,-4.6287,0.0,0.0,-4.8984,-5.1662,-5.4363,-5.5023,-5.6271,-5.7629,-5.9024,-6.0113,-6.1235,-6.2635,-6.4761,-6.6589,-6.7697,-6.9382,-7.036,-6.9783,-6.8205,-6.6705,-6.5667,-6.3281,-6.1973,-6.2551,-6.2089,-6.2243,-6.3474,-6.2858,-6.2474,-6.2589,-6.2512,-6.1935,-6.0819,-6.0781,-6.0781,-6.0781,-6.0781,-6.0781,-6.0781,-6.0781,-6.0781,-6.0781,-6.0781,-6.0319,-5.9511,-5.9511,-5.8704,-5.7368,-5.7368,-5.6819,-5.6049,-5.6049,-5.5895,-5.5703,-5.5703,-5.5703,-5.5703,-5.5703,-5.5318,-5.4818,-5.4818,-5.4241,-5.3549,-5.3549,-5.3395,-5.3203,-5.3203,-5.3203,-5.3203,-5.3203,-5.3203,-5.3203,-5.3203,-5.3203,-5.3203,-5.3203,-5.2692,-5.2192,-5.1962,-5.1433,-5.0741,-4.9894,-4.9548,-4.8971,-4.7778,-4.6855,-4.6133,-4.5671,-4.5594,-4.5594,-4.5594,-4.5594,-4.5594,-4.5594,-4.5594,-4.5594,-4.5594,-4.5594,-4.5594,-4.5594,-4.5594,-4.571,-4.5932,-4.597,-4.597,-4.597,-4.597,-4.597,-4.597,-4.597,-4.6432,0.0,0.0,-4.926,-5.3188,-5.5427,-5.7299,-5.9648,-6.0823,-6.163,-6.2475,-6.2833,-6.2861,-6.2512,-6.4356,-6.6024,-6.6384,-6.8306,-6.9744,-6.9706,-6.8205,-6.6474,-6.4859,-6.2397,-6.0858,0.0,-6.0858,-6.0858,-6.0896,-6.2358,-6.2551,-6.0973,-6.2397,-6.2512,-6.0858,-6.0781,-6.0781,-6.0781,-6.0781,-6.0781,-6.0781,-6.0781,-6.0781,-6.0781,-6.0781,-6.0319,-5.9511,-5.9511,-5.905,-5.828,-5.828,-5.7742,-5.6945,-5.6945,-5.6445,-5.5703,-5.5703,-5.5703,-5.5703,-5.5703,-5.5665,-5.5665,-5.5665,-5.5126,-5.4472,-5.4472,-5.3857,-5.3203,-5.3203,-5.3203,-5.3203,-5.3203,-5.3203,-5.3203,-5.3203,-5.3203,-5.3203,-5.3203,-5.3164,-5.2933,-5.2038,-5.1885,-5.1625,-5.0789,-4.9971,-4.9394,-4.9317,-4.8586,-4.7432,-4.5825,-4.5594,-4.5594,-4.5594,-4.5594,-4.5594,-4.5594,-4.5594,-4.5594,-4.5594,-4.5594,-4.5594,-4.5594,-4.5594,-4.6009,-4.6846,-4.6846,-4.6846,-4.6846,-4.6846,-4.6846,-4.6846,-4.6846,-4.7278,0.0,0.0,-5.3739,-5.6161,-5.8804,-6.1153,-6.2548,-6.3062,-6.326,-6.3275,-6.1571,-6.0226,-6.0722,-6.1462,-6.2508,-6.4101,-6.6857,-6.8629,-6.8052,-6.7475,-6.6244,-6.4012,-6.2512,0.0,0.0,0.0,0.0,-6.232,-6.2974,-6.332,-6.332,-6.3858,-6.3628,-6.2512,-6.1935,-6.1678,-6.1678,-6.1089,-6.0781,-6.0781,-6.0781,-6.0781,-6.0781,-6.0781,-6.0627,-6.0358,-6.0358,-5.9896,-5.9088,-5.9088,-5.828,-5.6983,-5.6983,-5.6483,-5.5703,-5.5703,-5.5703,-5.5703,-5.5703,-5.5703,-5.5703,-5.5703,-5.5511,-5.528,-5.528,-5.5088,-5.4857,-5.4857,-5.4857,-5.4857,-5.4857,-5.4857,-5.4857,-5.4857,-5.4857,-5.4857,-5.4857,-5.4434,-5.3972,-5.3664,-5.3164,-5.251,-5.1625,-5.1241,-5.0702,-4.9586,-4.8202,-4.7086,-4.6547,-4.597,-4.5594,-4.5594,-4.5594,-4.5594,-4.5594,-4.5594,-4.5594,-4.5594,-4.5594,-4.5594,-4.5594,-4.6163,-4.6586,-4.6885,-4.7432,-4.7702,-4.7702,-4.7702,-4.7702,-4.7702,-4.7702,-4.8163,0.0,-5.4069,-5.7483,-5.9979,-6.2401,-6.4273,-6.4824,-6.4494,-6.3824,-6.2814,-6.0003,-5.777,-5.7943,-5.7877,-5.8585,-6.0878,-6.3476,-6.5436,-6.609,-6.5667,-6.4936,-6.3897,-6.2512,-6.1627,0.0,0.0,0.0,-6.2281,-6.3243,-6.3743,-6.3705,-6.4282,-6.4205,-6.332,-6.2781,-6.2397,-6.2101,-6.1562,-6.1089,-6.0781,-6.0781,-6.0781,-6.0781,-6.0781,-6.0781,-6.0781,-6.0781,-6.0473,-5.9973,-5.9973,-5.8973,-5.7473,-5.7473,-5.6742,-5.5703,-5.5703,-5.5895,-5.6126,-5.5818,-5.5703,-5.5703,-5.5703,-5.5703,-5.5703,-5.5703,-5.5703,-5.5703,-5.5703,-5.5703,-5.5703,-5.5703,-5.5703,-5.5703,-5.5703,-5.5703,-5.5703,-5.5703,-5.528,-5.4857,-5.4549,-5.4049,-5.328,-5.2115,-5.1654,-5.1125,-5.001,-4.8663,-4.7586,-4.6962,-4.6124,-4.5594,-4.5594,-4.5594,-4.5594,-4.5594,-4.5594,-4.5748,-4.6047,-4.5787,-4.5748,-4.6047,-4.6586,-4.7038,-4.7308,-4.8125,-4.8548,-4.8548,-4.8548,-4.8548,-4.8548,-4.8548,-4.9048,-5.5684,-5.823,-6.0505,-6.4457,-6.5999,-6.6549,-6.6476,-6.5081,-6.3284,-6.1248,-5.8206,-5.5548,0.0,0.0,-5.4561,-5.7115,-5.8745,-6.0796,-6.4128,-6.3281,-6.2897,0.0,0.0,0.0,0.0,0.0,0.0,-6.0935,0.0,-6.3897,-6.237,-6.3782,-6.4282,-6.3474,-6.3397,-6.3012,-6.2255,-6.2139,-6.1678,-6.0781,-6.0781,-6.0781,-6.0781,-6.0781,-6.0781,-6.0781,-6.0781,-6.0781,-6.0781,-6.0781,-5.9819,-5.8319,-5.8319,-5.7242,-5.5703,-5.5703,-5.6214,-5.683,-5.5972,-5.5742,-5.5742,-5.5703,-5.5703,-5.5703,-5.5703,-5.5703,-5.5703,-5.5703,-5.5703,-5.5703,-5.5703,-5.5703,-5.5703,-5.5703,-5.5703,-5.5703,-5.5703,-5.5703,-5.5472,-5.4703,-5.4511,-5.3972,-5.2308,-5.1318,-5.075,-5.075,-4.9971,-4.8817,-4.724,-4.624,-4.5671,-4.571,-4.571,-4.5671,-4.571,-4.5748,-4.6086,-4.6923,-4.6163,-4.6047,-4.6923,-4.6962,-4.7355,-4.8163,-4.9009,-4.9471,-4.9471,-4.9471,-4.9471,-4.9471,-4.9471,-4.9894,-5.851,-6.1998,-6.5044,-6.6659,-6.7247,-6.7063,-6.5888,-6.2952,-6.007,-5.8681,-5.4317,-5.0787,0.0,0.0,0.0,-5.6202,-5.9633,0.0,-6.4321,-6.532,0.0,-6.4705,0.0,-6.382,-6.4243,-6.3897,0.0,0.0,-6.3281,-6.4012,-6.4859,-6.532,-6.5474,-6.5243,-6.4628,-6.4166,-6.3974,-6.2716,-6.1678,-6.0781,-6.0781,-6.0781,-6.0781,-6.0781,-6.0781,-6.0781,-6.0781,-6.0781,-6.0781,-6.0781,-5.9819,-5.8319,-5.8319,-5.7242,-5.5703,-5.5703,-5.5818,-5.6011,-5.578,-5.6137,-5.656,-5.5895,-5.5703,-5.5703,-5.5703,-5.5703,-5.5703,-5.5703,-5.5703,-5.5703,-5.5703,-5.5703,-5.5703,-5.5703,-5.5703,-5.5703,-5.5703,-5.5703,-5.5626,-5.5434,-5.4895,-5.4357,-5.3895,-5.2587,-5.1587,-5.1587,-5.0356,-4.924,-4.8817,-4.7471,-4.6817,-4.7394,-4.6932,-4.6817,-4.7394,-4.7471,-4.7548,-4.7778,-4.7009,-4.6932,-4.7778,-4.7778,-4.8202,-4.9048,-4.9933,-5.0366,-5.0366,-5.0366,-5.0366,-5.0366,-5.0366,-5.0481,-6.2511,-6.5521,-6.776,-6.8531,-6.7944,-6.6476,-6.3759,-6.0566,-5.742,-5.4799,-5.0971,0.0,0.0,0.0,0.0,0.0,0.0,0.0,-6.3142,-6.4628,-6.5513,0.0,-6.5705,0.0,-6.6244,-6.5936,-6.5667,0.0,-6.4859,-6.4705,-6.5282,-6.5705,-6.5897,-6.5897,-6.5436,-6.4974,-6.4589,-6.2935,-6.187,-6.1358,-6.0973,-6.0781,-6.0781,-6.0781,-6.0781,-6.0781,0.0,-6.0781,-6.0781,-6.0781,-6.0012,-5.8781,-5.8434,-5.7703,-5.678,-5.6395,-5.6742,-5.7242,-5.6511,-5.6819,-5.7357,-5.6088,-5.5703,-5.5703,-5.5703,-5.5972,-5.6214,-5.5818,-5.5972,-5.6175,-5.578,-5.5703,-5.5703,-5.5703,-5.5703,-5.5703,-5.5703,-5.5703,-5.5703,-5.5703,-5.5049,-5.4511,-5.4511,-5.3356,-5.2346,-5.1962,-5.1077,-5.0356,-5.001,-4.8471,-4.7586,-4.8048,-4.7702,-4.7625,-4.8048,-4.8086,-4.8279,-4.8663,-4.7894,-4.7817,-4.8625,-4.8663,-4.8894,-4.9394,-5.0587,-5.1048,-5.0712,-5.1048,-5.1048,-5.0712,-5.1048,-5.1048,-6.6916,-6.8752,-6.9522,-7.011,-6.8274,-6.529,-6.1226,-5.8079,-5.4822,-5.0636,0.0,-4.6374,-4.5631,-4.6299,-4.7974,-5.1167,0.0,-5.7232,-6.1769,-6.3091,-6.4462,-6.6974,-6.7282,-6.7628,-6.8513,-6.7782,-6.759,-6.8346,-6.7051,-6.5897,-6.5128,-6.5705,-6.6013,-6.5897,-6.5897,-6.5474,-6.4628,-6.3051,-6.2216,-6.2101,-6.1216,-6.0781,-6.0781,-6.0781,-6.0781,-6.0781,-6.0781,-6.0781,-6.0781,-6.0781,-6.0281,-5.9435,-5.8742,-5.8396,-5.8204,-5.7434,-5.8088,-5.9127,-5.7665,-5.7665,-5.8011,-5.628,-5.5703,-5.5703,-5.5818,-5.6406,-5.6868,-5.6242,-5.6588,-5.7022,-5.6242,-5.6049,-5.6049,-5.6049,-5.6049,-5.6049,-5.6049,-5.5934,-5.5818,-5.5703,-5.5126,-5.4664,-5.4664,-5.3933,-5.3126,-5.2346,-5.2154,-5.1818,-5.1125,-4.9433,-4.8317,-4.8432,-4.8355,-4.8317,-4.8432,-4.8432,-4.8779,-4.951,-4.874,-4.8663,-4.9548,-4.9471,-4.951,-4.974,-5.1154,-5.1625,-5.102,-5.1741,-5.1702,-5.1058,-5.1741,-5.1702,-6.9743,-7.1284,-7.1762,-7.1248,-6.8274,-6.4522,-6.07,-5.5686,0.0,0.0,0.0,-4.4063,-4.3939,-4.5117,-4.764,-5.2294,0.0,0.0,0.0,0.0,-6.57,0.0,0.0,0.0,0.0,0.0,0.0,0.0,0.0,-6.7898,-6.7744,-6.7205,-6.659,-6.5897,-6.5897,-6.5474,-6.4628,-6.3589,-6.2743,-6.2101,-6.1216,-6.0781,-6.0781,-6.0781,-6.0781,-6.0781,-6.0781,0.0,-6.0781,-6.0781,-6.0281,-5.9473,-5.9358,-5.8896,-5.828,-5.8127,-5.8242,-5.8473,-5.8165,-5.8165,-5.8011,-5.628,-5.5703,-5.5818,-5.656,-5.6868,-5.7137,-5.7703,-5.7973,-5.805,-5.7896,-5.7857,-5.7857,-5.7857,-5.7857,-5.7857,-5.7857,-5.728,-5.656,-5.5818,-5.5588,-5.5472,-5.5472,-5.4818,-5.4203,-5.4087,-5.3433,-5.2933,-5.2779,-5.0664,-4.9433,-5.0164,-4.9586,-4.9471,-5.0212,-5.025,-5.0327,-5.0481,-4.9663,-4.9548,-5.0442,-4.9779,-5.0048,-5.1423,-5.1731,-5.2192,-5.2779,-5.2895,-5.2895,-5.2779,-5.2895,-5.2895,-7.1064,-7.2496,-7.2936,-7.2129,-6.8274,-6.3406,-5.8637,0.0,0.0,0.0,-4.4424,-4.3515,-4.3515,0.0,0.0,0.0,0.0,0.0,0.0,0.0,0.0,0.0,0.0,0.0,0.0,0.0,0.0,0.0,0.0,-6.9321,-6.8462,-6.7552,-6.6744,-6.5936,-6.5897,-6.5705,-6.5282,-6.3974,-6.3128,-6.2704,-6.1435,-6.0781,-6.0781,-6.0781,-6.0781,-6.0781,-6.0781,-6.0781,-6.0781,-6.0781,-6.055,-6.0127,-5.9665,-5.955,-5.955,-5.9088,-5.9204,-5.955,-5.9088,-5.8934,-5.8704,-5.7473,-5.6742,-5.656,-5.7396,-5.7665,-5.7742,-5.8165,-5.8588,-5.8819,-5.8396,-5.8319,-5.8319,-5.8319,-5.8319,-5.8319,-5.8319,-5.7973,-5.755,-5.7126,-5.6703,-5.6368,-5.6368,-5.5665,-5.4972,-5.4549,-5.4126,-5.3703,-5.328,-5.2125,-5.1356,-5.1318,-5.1356,-5.1356,-5.1318,-5.1318,-5.1318,-5.1318,-5.0933,-5.0894,-5.1318,-5.1356,-5.1779,-5.2538,-5.301,-5.3241,-5.3203,-5.3664,-5.3626,-5.3203,-5.3664,-5.3626,-7.1872,-7.323,-7.345,-7.2496,-6.7871,-6.2132,-5.6698,-5.2095,0.0,0.0,-4.3529,-4.3515,-4.3515,0.0,0.0,0.0,0.0,0.0,0.0,0.0,0.0,0.0,0.0,0.0,0.0,0.0,0.0,0.0,0.0,-7.0167,-6.8513,-6.7744,-6.6898,-6.5936,-6.5897,-6.5897,-6.5897,-6.4359,-6.3589,-6.3551,-6.205,-6.1243,-6.1089,-6.1089,-6.0973,-6.0781,-6.0781,-6.0781,-6.0781,-6.0781,-6.0781,-6.0742,-6.005,-6.0204,-6.0704,-6.0012,-6.0204,-6.0704,-6.0012,-5.9781,-5.9665,-5.905,-5.8127,-5.7434,-5.8319,-5.855,-5.8588,-5.8781,-5.9281,-5.9627,-5.9011,-5.8858,-5.8858,-5.8858,-5.8858,-5.8781,-5.8588,-5.855,-5.8511,-5.8319,-5.7742,-5.7291,-5.7291,-5.656,-5.5742,-5.5126,-5.4895,-5.4511,-5.3818,-5.3741,-5.3395,-5.2538,-5.2895,-5.2933,-5.2231,-5.2192,-5.2192,-5.2192,-5.2192,-5.2192,-5.2192,-5.2856,-5.328,-5.3472,-5.4164,-5.4241,-5.3741,-5.4434,-5.4395,-5.3741,-5.4434,-5.4395,-7.2716,-7.3634,-7.334,-7.1798,-6.6586,-6.0612,-5.6031,0.0,0.0,-4.44,-4.371,-4.3515,-4.3515,-4.3659,-4.4674,0.0,0.0,0.0,0.0,0.0,0.0,0.0,0.0,0.0,0.0,0.0,0.0,0.0,0.0,-7.0167,-6.8513,-6.8321,-6.7552,-6.5936,-6.5897,-6.5897,-6.5897,-6.4974,-6.4474,-6.4474,-6.3512,-6.2704,-6.1985,-6.1985,-6.155,-6.0781,-6.0781,-6.0781,0.0,-6.0781,-6.0781,-6.0781,-6.0704,-6.0742,-6.0781,-6.0704,-6.0742,-6.0781,-6.0704,-6.0666,-6.0666,-6.0589,-5.9473,-5.8319,-5.9127,-5.9396,-5.955,-6.0358,-6.0627,-6.0666,-6.0589,-6.055,-6.055,-6.055,-6.055,-6.0358,-5.955,-5.9396,-5.9165,-5.8434,-5.8242,-5.8165,-5.8165,-5.7473,-5.6868,-5.6791,-5.6099,-5.5549,-5.5472,-5.5472,-5.5164,-5.4357,-5.3626,-5.3164,-5.3087,-5.3087,-5.3087,-5.3087,-5.3087,-5.3087,-5.3087,-5.3164,-5.3587,-5.4357,-5.4472,-5.4818,-5.5472,-5.5549,-5.5549,-5.5472,-5.5549,-5.5549,-7.0367,-7.2569,-7.3193,-7.1101,-6.6035,-6.0357,-5.5665,0.0,0.0,-4.4177,-4.3597,-4.3515,-4.3515,-4.3515,-4.3925,0.0,0.0,0.0,0.0,0.0,0.0,0.0,0.0,0.0,0.0,0.0,0.0,0.0,0.0,-7.0167,-6.8513,-6.8385,-6.7628,-6.5936,-6.5897,-6.5897,-6.5897,-6.5051,-6.4589,-6.4589,-6.3743,-6.2897,-6.2101,-6.2101,-6.1639,-6.0781,-6.0781,-6.0781,0.0,-6.0781,-6.0781,-6.0781,-6.0781,-6.0781,-6.0781,-6.0781,-6.0781,-6.0781,-6.0781,-6.0781,-6.0781,-6.0781,-6.0358,-5.9858,-6.0204,-5.9935,-5.9665,-6.055,-6.0781,-6.0781,-6.0781,-6.0781,-6.0781,-6.0781,-6.0781,-6.0704,-6.0358,-6.0281,-6.0204,-5.9858,-5.9396,-5.9011,-5.9011,-5.8319,-5.778,-5.778,-5.7473,-5.7088,-5.656,-5.6483,-5.6175,-5.5318,-5.4895,-5.4511,-5.401,-5.3972,-5.3972,-5.3972,-5.3972,-5.4203,-5.4664,-5.4703,-5.5126,-5.5983,-5.5472,-5.5395,-5.5703,-5.5703,-5.5703,-5.5703,-5.5703,-5.5703,-6.7136,-7.0257,-7.1762,-6.9559,-6.4934,-5.9612,0.0,0.0,-4.614,-4.3938,-4.3515,-4.3515,-4.3515,-4.3515,-4.3614,0.0,0.0,0.0,0.0,0.0,0.0,0.0,0.0,0.0,0.0,0.0,0.0,0.0,-7.0898,-7.0283,-6.8859,-6.8552,-6.7628,-6.5936,-6.5897,-6.5897,-6.5897,-6.5282,-6.4974,-6.4974,-6.4359,-6.3512,-6.2435,-6.2435,-6.1858,-6.0781,-6.0781,-6.0781,0.0,-6.0781,-6.0781,-6.0781,-6.0781,-6.0781,-6.0781,-6.0781,-6.0781,-6.0781,-6.0781,-6.0781,-6.0781,-6.0781,-6.0781,-6.0781,-6.0781,-6.0358,-6.0012,-6.0627,-6.0781,-6.0781,-6.0781,-6.0781,-6.0781,-6.0781,-6.0781,-6.0781,-6.0781,-6.0781,-6.0781,-6.0781,-6.0281,-5.9896,-5.9896,-5.9204,-5.8665,-5.8665,-5.8473,-5.8088,-5.7473,-5.7357,-5.7049,-5.6165,-5.6088,-5.5742,-5.4934,-5.4857,-5.4857,-5.4857,-5.5088,-5.5472,-5.6049,-5.6088,-5.6368,-5.6983,-5.6126,-5.5703,-5.5703,-5.5703,-5.5703,-5.5703,-5.5703,-5.5703,-6.3282,-6.6512,-6.8568,-6.6953,-6.2842,-5.796,0.0,0.0,-4.5443,-4.3828,-4.3515,-4.3515,-4.3515,-4.3515,-4.3614,-4.3958,0.0,0.0,0.0,0.0,0.0,0.0,0.0,0.0,0.0,0.0,0.0,0.0,-7.0898,0.0,-6.9744,-6.8859,-6.7628,-6.5936,-6.5897,-6.5897,-6.5897,-6.5897,-6.5897,-6.5897,-6.5859,-6.4974,-6.3269,-6.3269,-6.2397,-6.0781,-6.0781,-6.0781,0.0,-6.0781,-6.0781,-6.0781,-6.0781,-6.0781,-6.0781,-6.0781,-6.0781,-6.0781,-6.0781,-6.0781,-6.0781,-6.0781,-6.0781,-6.0781,-6.0781,-6.0781,-6.0781,-6.0781,-6.0781,-6.0781,-6.0781,-6.0781,-6.0781,-6.0781,-6.0781,-6.0781,-6.0781,-6.0781,-6.0781,-6.0781,-6.0781,-6.0781,-6.0781,-6.005,-5.9473,-5.9473,-5.8819,-5.8319,-5.828,-5.828,-5.7934,-5.7099,-5.6983,-5.6637,-5.5742,-5.5703,-5.5703,-5.5703,-5.6522,-5.6983,-5.6983,-5.6983,-5.6983,-5.6983,-5.6126,-5.5703,-5.5703,-5.5703,-5.5703,-5.5703,-5.5703,-5.5703,-5.7409,-5.9832,-6.1043,-5.9428,-5.6638,-5.3445,-5.0215,0.0,-4.4782,-4.3718,-4.3515,-4.3515,-4.3515,-4.3515,-4.4264,-4.6613,0.0,0.0,0.0,0.0,0.0,0.0,0.0,0.0,0.0,0.0,0.0,0.0,-7.0898,-7.0283,-6.8898,-6.8552,-6.7898,-6.6744,-6.6205,-6.5897,-6.5897,-6.5897,-6.5897,-6.5897,-6.5282,-6.4397,-6.3269,-6.2743,-6.1858,-6.0781,-6.0781,-6.0781,-6.0781,-6.0781,-6.0781,-6.0781,-6.0781,-6.0781,-6.0781,-6.0781,-6.0781,-6.0781,-6.0781,-6.0781,-6.0781,-6.0781,-6.0781,-6.0781,-6.0781,-6.0781,-6.0781,-6.0781,-6.0781,-6.0781,-6.0781,-6.0781,-6.0781,-6.0781,-6.0781,-6.0781,-6.0781,-6.0781,-6.0781,-6.0781,-6.0781,-6.0781,-6.0781,-6.055,-6.0396,-6.0396,-6.0165,-5.9781,-5.9204,-5.9127,-5.8819,-5.7973,-5.7896,-5.728,-5.5818,-5.5703,-5.5703,-5.5703,-5.5972,-5.6665,-5.7857,-5.6742,-5.6665,-5.7857,-5.6434,-5.5703,-5.5703,-5.5703,-5.5703,-5.5703,-5.5703,-5.5703,0.0,-5.4913,-5.6345,-5.5023,-5.3115,0.0,0.0,0.0,-4.4488,-4.3644,-4.3515,-4.3515,-4.3515,-4.3614,-4.4369,-4.6411,0.0,0.0,0.0,0.0,0.0,0.0,0.0,0.0,0.0,0.0,0.0,-7.0898,-7.0898,-7.0321,-6.8975,-6.859,-6.8013,-6.7128,-6.632,-6.5897,-6.5897,-6.5897,-6.5897,-6.5897,-6.5013,-6.4128,-6.3281,-6.2474,-6.1639,-6.0781,-6.0781,-6.0781,0.0,-6.0781,-6.0781,-6.0781,-6.0781,-6.0781,-6.0781,-6.0781,-6.0781,-6.0781,-6.0781,-6.0781,-6.0781,-6.0781,-6.0781,-6.0781,-6.0781,-6.0781,-6.0781,-6.0781,-6.0781,-6.0781,-6.0781,-6.0781,-6.0781,-6.0781,-6.0781,-6.0781,-6.0781,-6.0781,-6.0781,-6.0781,-6.0781,-6.0781,-6.0781,-6.0781,-6.0781,-6.0781,-6.0781,-6.0589,-6.005,-5.9973,-5.9665,-5.8858,-5.8742,-5.8204,-5.678,-5.6357,-5.6214,-5.6214,-5.6511,-5.7011,-5.778,-5.7357,-5.7357,-5.778,-5.6742,-5.6011,-5.5703,-5.6011,-5.6214,-5.6214,-5.6214,-5.6214,0.0,0.0,0.0,0.0,0.0,0.0,0.0,0.0,0.0,0.0,-4.3515,-4.3551,-4.3662,-4.3902,-4.4184,-4.4482,0.0,0.0,0.0,0.0,0.0,0.0,0.0,0.0,0.0,0.0,-7.0898,-7.0898,-7.086,-7.0475,-6.9667,-6.8783,-6.7898,-6.7051,-6.6282,-6.5897,-6.5897,-6.582,-6.582,-6.5782,-6.4859,-6.4012,-6.3205,-6.2358,-6.1562,0.0,-6.0858,-6.0858,-6.0781,-6.0858,-6.0858,-6.0781,-6.0781,-6.0781,-6.0781,-6.0781,-6.0781,-6.0781,-6.0781,-6.0781,-6.0781,-6.0781,-6.0781,-6.0781,-6.0781,-6.0781,-6.0781,-6.0781,-6.0781,-6.0781,-6.0781,-6.0781,-6.0781,-6.0781,-6.0781,-6.0781,-6.0781,-6.0781,-6.0781,-6.0781,-6.0781,-6.0781,-6.0781,-6.0781,-6.0781,-6.0781,-6.0781,-6.0781,-6.0781,-6.0781,-6.0473,-5.9665,-5.9588,-5.9281,-5.855,-5.755,-5.6983,-5.6983,-5.7703,-5.778,-5.7022,-5.8473,-5.8627,-5.7137,-5.7022,-5.6637,-5.5895,-5.6637,-5.7022,-5.7099,-5.7022,-5.6983,-4.4653,0.0,-4.6012,-4.581,-4.548,0.0,0.0,0.0,0.0,0.0,0.0,0.0,0.0,0.0,0.0,0.0,0.0,0.0,0.0,0.0,0.0,0.0,0.0,0.0,0.0,0.0,-7.0898,-7.0898,-7.0321,-6.9629,-6.8744,-6.7898,-6.7013,-6.6205,-6.6013,-6.5897,-6.5897,-6.5243,-6.4897,-6.4897,-6.3397,-6.2589,-6.2358,-6.1512,-6.0973,-6.0819,-6.1512,-6.1408,-6.0858,-6.1524,-6.1408,-6.0781,-6.0781,-6.0781,-6.0781,-6.0781,-6.0781,-6.0781,-6.0781,-6.0781,-6.0781,-6.0781,-6.0781,-6.0781,-6.0781,-6.0781,-6.0781,-6.0781,-6.0781,-6.0781,-6.0781,-6.0781,-6.0781,-6.0781,-6.0781,-6.0781,-6.0781,-6.0781,-6.0781,-6.0781,-6.0781,-6.0781,-6.0781,-6.0781,-6.0781,-6.0781,-6.0781,-6.0781,-6.0781,-6.0781,-6.0704,-6.0512,-6.0473,-6.0435,-6.0242,-5.8253,-5.6983,-5.6983,-5.6549,-5.6511,-5.6983,-5.7368,-5.7703,-5.7973,-5.7319,-5.7242,-5.7703,-5.7242,-5.7319,-5.7973,-5.733,-5.6983,-4.3625,-4.3754,-4.4048,-4.4048,-4.4048,-4.4048,0.0,0.0,0.0,0.0,0.0,0.0,0.0,0.0,0.0,0.0,0.0,0.0,0.0,0.0,0.0,0.0,0.0,0.0,0.0,0.0,-7.0744,-7.0398,-6.9937,-6.9167,-6.7859,-6.7359,-6.6744,-6.5936,-6.5897,-6.5897,-6.5897,-6.5051,-6.4589,-6.4589,-6.2897,-6.2101,-6.2062,-6.1204,-6.0781,-6.0819,-6.1281,-6.1243,-6.0819,-6.132,-6.1243,-6.0781,-6.0781,-6.0781,-6.0781,-6.0781,-6.0781,-6.0781,-6.0781,-6.0781,-6.0781,-6.0781,-6.105,-6.1408,-6.1408,-6.1666,-6.1781,-6.1012,-6.0781,-6.0781,-6.0781,-6.0781,-6.0781,-6.0781,-6.0781,-6.0781,-6.0781,-6.0781,-6.0781,-6.0781,-6.0781,-6.0781,-6.0781,-6.0781,-6.0781,-6.0781,-6.0781,-6.0781,-6.0781,-6.0781,-6.0781,-6.0781,-6.0781,-6.0781,-6.0781,-5.9165,-5.8165,-5.8165,-5.7703,-5.7473,-5.7588,-5.8319,-5.8781,-5.8858,-5.8011,-5.7819,-5.8319,-5.8204,-5.8396,-5.8858,-5.8357,-5.8165,-4.4011,-4.4525,-4.5149,-4.4635,-4.4635,-4.4654,0.0,0.0,0.0,0.0,0.0,0.0,0.0,0.0,0.0,0.0,0.0,0.0,0.0,0.0,0.0,0.0,0.0,0.0,-7.0406,-7.0602,-7.0437,-6.9744,-6.9436,-6.8667,-6.7167,-6.6974,-6.6551,-6.5743,-6.582,-6.5782,-6.5513,-6.4782,-6.4397,-6.4397,-6.2704,-6.1908,-6.187,-6.1127,-6.0781,-6.0819,0.0,0.0,-6.0819,-6.0935,-6.0935,-6.0781,-6.0781,-6.0781,-6.0781,-6.0781,-6.0858,-6.1012,-6.1012,-6.0896,-6.0781,-6.0781,-6.1408,-6.2101,-6.1947,-6.2551,-6.2974,-6.1435,-6.1012,-6.1012,-6.1012,-6.0896,-6.0781,-6.0781,-6.0781,-6.0781,-6.0781,-6.0781,-6.0819,-6.0973,-6.0896,-6.0819,-6.0973,-6.0896,-6.0858,-6.0973,-6.1012,-6.1012,-6.1012,-6.1012,-6.0935,-6.0819,-6.0781,-6.0781,-6.0781,-6.0127,-5.9704,-5.9704,-5.9473,-5.9088,-5.8511,-5.9858,-6.0319,-5.9704,-5.8896,-5.855,-5.8665,-5.9242,-5.9588,-5.9704,-5.955,-5.9511,-4.5369,-4.6617,-4.7095,-4.4342,-4.4195,-4.4525,0.0,0.0,0.0,0.0,0.0,0.0,0.0,0.0,0.0,0.0,0.0,0.0,0.0,0.0,0.0,0.0,0.0,-7.0878,-6.8418,-6.9232,-6.9821,-6.9706,-6.8321,-6.7359,-6.709,-6.6436,-6.5705,-6.482,-6.5513,-6.5205,-6.3705,-6.3589,-6.3512,-6.3462,-6.1781,-6.1012,-6.1012,-6.0858,-6.0781,-6.0819,0.0,-6.1485,-6.0858,-6.1601,-6.1485,-6.0781,-6.0781,-6.0781,-6.0781,-6.0781,-6.1281,-6.1908,-6.1908,-6.1408,-6.0781,-6.0781,-6.1408,-6.1947,-6.1204,-6.2089,-6.3089,-6.2166,-6.1908,-6.1908,-6.1908,-6.1358,-6.0781,-6.0781,-6.0781,-6.0781,-6.0781,-6.0781,-6.1012,-6.1755,-6.1281,-6.1012,-6.1793,-6.1281,-6.105,-6.1793,-6.1908,-6.1908,-6.1908,-6.1908,-6.1639,-6.0858,-6.0781,-6.0781,-6.0781,-6.0666,-6.0589,-6.0589,-5.9281,-5.8742,-5.9281,-5.955,-5.9973,-6.0589,-5.9742,-5.9665,-6.0396,-5.9819,-5.9896,-6.0589,-5.9858,-5.9511,-4.5259,-4.581,-4.6104,-4.5039,-4.6067,-4.7021,0.0,0.0,0.0,0.0,0.0,0.0,0.0,0.0,0.0,0.0,0.0,0.0,0.0,0.0,0.0,0.0,0.0,-6.9267,-6.8843,-6.8918,-6.8821,-6.8321,-6.7128,-6.6436,-6.6436,-6.5205,-6.4743,-6.5282,-6.4782,-6.4359,-6.4012,-6.3089,-6.2666,-6.2627,-6.1396,-6.0781,-6.0781,-6.0781,-6.0781,-6.0819,0.0,-6.1166,-6.0819,-6.1243,-6.1166,-6.0781,-6.0781,-6.0781,-6.0781,-6.0781,-6.105,-6.1408,-6.1408,-6.1127,-6.0858,-6.137,-6.1793,-6.2101,-6.2127,-6.3012,-6.3935,-6.3551,-6.3128,-6.2743,-6.2743,-6.2435,-6.2166,-6.2166,-6.2166,-6.2166,-6.2166,-6.2166,-6.2281,-6.2666,-6.2435,-6.2281,-6.2666,-6.2435,-6.2281,-6.2704,-6.2743,-6.2743,-6.2743,-6.2358,-6.1947,-6.1562,-6.1089,-6.0781,-6.0781,-6.0781,-6.0781,-6.0781,-6.0089,-5.9819,-6.0204,-6.0204,-6.0396,-6.0781,-6.0396,-6.0396,-6.0781,-6.0396,-6.0396,-6.0781,-6.0396,-6.0204,-4.5112,-4.5112,-4.5351,-4.5773,0.0,0.0,0.0,0.0,0.0,0.0,0.0,0.0,0.0,0.0,0.0,0.0,0.0,0.0,0.0,0.0,-6.6679,-6.7163,-6.7345,-6.7936,-6.9283,-6.8436,-6.7552,-6.6859,-6.5859,-6.5282,-6.5282,-6.4051,-6.382,-6.4974,-6.3897,-6.3435,-6.3705,-6.2627,-6.2101,-6.2101,-6.1216,-6.0781,-6.0781,-6.0781,-6.0781,-6.0781,-6.0781,-6.0781,-6.0781,-6.0781,-6.0781,-6.0781,-6.0781,-6.0781,-6.0819,-6.1012,-6.0973,-6.0819,-6.1012,-6.1089,-6.1204,-6.187,-6.237,-6.2743,-6.2935,-6.3897,-6.482,-6.4397,-6.4128,-6.3858,-6.3666,-6.3474,-6.3308,-6.3308,-6.3308,-6.3308,-6.3308,-6.3308,-6.3346,-6.3551,-6.3435,-6.3346,-6.3589,-6.3435,-6.3346,-6.3589,-6.3589,-6.3589,-6.3589,-6.3051,-6.2563,-6.2139,-6.1512,-6.1012,-6.0819,-6.0781,-6.0781,-6.0781,-6.0781,-6.0781,-6.0781,-6.0781,-6.0781,-6.0781,-6.0781,-6.0781,-6.0781,-6.0781,-6.0781,-6.0781,-6.0781,-6.0781,-4.5626,-4.6361,-4.6746,-4.6067,-4.548,0.0,-4.9701,-4.9334,0.0,-5.2213,0.0,0.0,0.0,0.0,0.0,0.0,0.0,0.0,0.0,0.0,-6.807,-6.762,-6.7985,-6.8359,-6.8475,-6.7013,-6.6051,-6.5974,-6.4436,-6.3512,-6.3512,-6.3346,-6.3012,-6.2409,-6.2974,-6.2589,-6.1089,-6.1755,-6.2101,-6.2101,-6.1216,-6.0781,-6.0781,-6.0781,-6.0781,-6.0781,-6.0781,-6.0781,-6.0781,-6.0781,-6.0781,-6.0781,-6.0781,-6.0781,-6.0896,-6.1716,-6.1473,-6.0935,-6.1716,-6.2024,-6.2024,-6.2101,-6.3128,-6.4128,-6.2627,-6.3858,-6.5474,-6.3858,-6.4512,-6.5513,-6.4705,-6.3897,-6.3308,-6.3308,-6.3308,-6.3308,-6.3308,-6.3308,-6.3538,-6.4359,-6.3858,-6.3551,-6.4359,-6.3858,-6.3589,-6.4397,-6.4512,-6.4512,-6.4512,-6.4474,-6.382,-6.2255,-6.2062,-6.1678,-6.0858,-6.0781,-6.0781,-6.0781,-6.0781,-6.0781,-6.0781,-6.0781,-6.0781,-6.0781,-6.0781,-6.0781,-6.0781,-6.0781,-6.0781,-6.0781,-6.0781,-6.0781,-4.5076,-4.6085,-4.7039,-4.6709,-4.6782,0.0,0.0,-5.1463,-5.2747,-5.4987,-5.6461,0.0,0.0,0.0,0.0,0.0,0.0,0.0,0.0,-6.713,-6.7744,-6.7333,-6.7472,-6.7398,-6.6898,-6.5782,-6.4859,-6.432,-6.3205,-6.2781,-6.3281,-6.232,-6.2089,-6.282,-6.2127,-6.1704,-6.1601,-6.1408,-6.1281,-6.1281,-6.0973,-6.0781,-6.0781,-6.0781,-6.0781,-6.0781,-6.0781,-6.0781,-6.0781,-6.0781,-6.0781,-6.0781,-6.0781,-6.0781,-6.0819,-6.1166,-6.1089,-6.0858,-6.1166,-6.1639,-6.2178,-6.2666,-6.3281,-6.3782,-6.3666,-6.432,-6.4936,-6.4282,-6.4974,-6.582,-6.5474,-6.5166,-6.4936,-6.4936,-6.4936,-6.4936,-6.4936,-6.4936,-6.5013,-6.532,-6.5128,-6.5013,-6.5359,-6.5128,-6.5013,-6.5359,-6.5397,-6.5397,-6.5397,-6.4936,-6.4359,-6.3705,-6.2716,-6.1985,-6.1639,-6.1089,-6.1012,-6.1562,-6.1089,-6.0781,-6.0781,-6.0781,-6.0781,-6.0781,-6.0781,-6.0781,-6.0781,-6.0781,-6.0781,-6.0781,-6.0781,-6.0781,-4.4305,-4.5112,-4.6104,-4.6599,0.0,0.0,-5.1389,-5.3225,-5.5207,-5.8107,-5.9212,0.0,0.0,0.0,0.0,0.0,0.0,0.0,-6.5424,-6.6339,-6.6695,-6.5924,-6.5977,-6.574,-6.4934,-6.4219,-6.3551,-6.2974,-6.2166,-6.1935,-6.2474,-6.1435,-6.132,-6.2474,-6.1396,-6.1089,-6.1678,-6.1089,-6.0781,-6.0781,-6.0781,-6.0781,-6.0781,-6.0781,-6.0781,-6.0781,-6.0781,-6.0781,-6.0781,-6.0781,-6.0781,-6.0781,-6.0781,-6.0781,-6.0819,-6.1089,-6.105,-6.0896,-6.1396,-6.1973,-6.2589,-6.3435,-6.3897,-6.4166,-6.4512,-6.4782,-6.4936,-6.4666,-6.5243,-6.5897,-6.5897,-6.5897,-6.5897,-6.5897,-6.5897,-6.5897,-6.5897,-6.5897,-6.5897,-6.5897,-6.5897,-6.5897,-6.5897,-6.5897,-6.5897,-6.5897,-6.5897,-6.5897,-6.5897,-6.5397,-6.4897,-6.4628,-6.332,-6.2474,-6.2474,-6.1935,-6.1858,-6.2435,-6.1666,-6.1089,-6.0819,-6.0781,-6.0781,-6.0781,-6.0781,-6.0781,-6.0781,-6.0781,-6.0781,-6.0781,-6.0781,-6.0781,-4.3515,-4.3515,-4.3901,0.0,0.0,0.0,-5.3482,-5.4436,-5.6014,-6.1606,0.0,-5.8964,-5.8143,0.0,0.0,-5.8927,-6.17,-6.3637,-6.3593,-6.4715,-6.4955,-6.3294,-6.3508,-6.3444,-6.2673,-6.2285,-6.2089,-6.2101,-6.1281,-6.0781,-6.0781,-6.0781,-6.0781,-6.0781,-6.0781,-6.0781,-6.0781,-6.0781,-6.0781,-6.0781,-6.0781,-6.0781,-6.0781,-6.0781,-6.0781,-6.0781,-6.0781,-6.0781,-6.0781,-6.0781,-6.0781,-6.0781,-6.0781,-6.0781,-6.0896,-6.1793,-6.1562,-6.105,-6.2704,-6.3269,-6.3435,-6.432,-6.5166,-6.5743,-6.4859,-6.5205,-6.5705,-6.4859,-6.5243,-6.5897,-6.5897,-6.5897,-6.5897,-6.5897,-6.5897,-6.5897,-6.5897,-6.5897,-6.5897,-6.5897,-6.5897,-6.5897,-6.5897,-6.5897,-6.5897,-6.5897,-6.5897,-6.5897,-6.5897,-6.5897,-6.5551,-6.4705,-6.382,-6.3308,-6.3308,-6.3308,-6.3308,-6.3308,-6.2551,-6.1716,-6.0858,-6.0819,-6.0819,-6.0819,-6.0819,-6.0819,-6.0781,-6.0781,-6.0781,-6.0781,-6.0781,-6.0781,-4.3515,-4.4745,0.0,0.0,0.0,0.0,0.0,-5.6088,0.0,0.0,0.0,-5.9795,-5.8988,0.0,0.0,-5.8364,-5.9555,-6.0885,-6.1763,-6.2234,-6.246,-6.2295,-6.238,-6.2281,-6.1819,-6.1683,-6.1504,-6.1192,-6.0935,-6.0781,-6.0781,-6.0781,-6.0781,-6.0781,-6.0781,-6.0781,-6.0781,-6.0781,-6.0781,-6.0781,-6.0781,-6.0781,-6.0781,-6.0781,-6.0781,-6.0781,-6.0781,-6.0781,-6.0781,-6.0781,-6.0781,-6.0781,-6.0781,-6.0781,-6.0819,-6.1089,-6.1012,-6.0858,-6.1358,-6.1935,-6.2512,-6.2743,-6.382,-6.4936,-6.4666,-6.5205,-6.5859,-6.559,-6.5705,-6.5897,-6.5897,-6.5897,-6.5897,-6.5897,-6.5897,-6.5897,-6.5897,-6.5897,-6.5897,-6.5897,-6.5897,-6.609,-6.6628,-6.6744,-6.6744,-6.6744,-6.6744,-6.6551,-6.5974,-6.5897,-6.5551,-6.4705,-6.4359,-6.4205,-6.4205,-6.3666,-6.3551,-6.4166,-6.3435,-6.282,-6.2589,-6.2012,-6.1716,-6.1716,-6.1716,-6.1408,-6.0781,-6.0781,-6.0781,-6.0781,-6.0781,-6.0781,-4.3404,0.0,0.0,0.0,0.0,0.0,0.0,0.0,0.0,0.0,0.0,-6.0162,-5.9331,-5.8671,0.0,-5.8437,-5.8854,-5.9582,-6.0707,-6.0885,-6.0868,-6.0815,-6.0996,-6.0977,-6.0643,-6.0753,-6.0846,-6.0796,-6.0781,-6.0781,-6.0781,-6.0781,-6.0781,-6.0781,-6.0473,-6.0281,-6.0281,-6.0281,-6.0281,-6.0281,-6.0281,-6.0376,-6.0521,-6.0722,-6.0781,-6.0781,-6.0781,-6.0781,-6.0781,-6.0781,-6.0781,-6.0781,-6.0781,-6.0781,-6.0819,-6.1166,-6.1089,-6.0896,-6.155,-6.1935,-6.2139,-6.2474,-6.3474,-6.4589,-6.4589,-6.5205,-6.5897,-6.5897,-6.5897,-6.5897,-6.5897,-6.5897,-6.5897,-6.5897,-6.5897,-6.5897,-6.5897,-6.5897,-6.5897,-6.5897,-6.5897,-6.6167,-6.6974,-6.709,-6.709,-6.709,-6.6821,-6.6436,-6.5974,-6.5897,-6.5705,-6.5166,-6.5397,-6.5474,-6.5128,-6.4936,-6.4897,-6.5089,-6.432,-6.3974,-6.432,-6.3205,-6.2589,-6.2589,-6.2589,-6.2166,-6.132,-6.132,-6.1127,-6.0781,-6.0781,-6.0781,-4.3351,0.0,0.0,0.0,0.0,0.0,0.0,0.0,0.0,0.0,0.0,0.0,-5.9331,-5.7973,-5.7483,-5.8854,-5.9074,-5.9331,-6.0089,-6.0199,-5.9905,-5.9184,-5.9479,-5.9617,-5.9359,-5.9668,-6.0084,-6.0634,-6.0645,-6.0669,-6.0746,-6.0769,-6.0742,-6.0666,-5.9896,-5.9473,-5.9396,-5.9396,-5.9396,-5.9396,-5.9396,-5.9587,-5.9946,-6.0456,-6.0704,-6.0781,-6.0781,-6.0781,-6.0781,-6.0781,-6.0781,-6.0781,-6.0781,-6.0781,-6.0896,-6.1678,-6.1485,-6.1012,-6.2551,-6.2589,-6.2101,-6.282,-6.3705,-6.4474,-6.4474,-6.5166,-6.5897,-6.5897,-6.5897,-6.5897,-6.5897,-6.5897,-6.5897,-6.5897,-6.5897,-6.5897,-6.5897,-6.5897,-6.5897,-6.5897,-6.5897,-6.6167,-6.6974,-6.7167,-6.7244,-6.7321,-6.6628,-6.6128,-6.6128,-6.6128,-6.6128,-6.6128,-6.6782,-6.6898,-6.6205,-6.6782,-6.6898,-6.6167,-6.532,-6.5166,-6.5974,-6.4359,-6.3423,-6.3423,-6.3423,-6.3012,-6.2216,-6.2139,-6.1743,-6.1012,-6.0935,-6.0973,0.0,-4.4544,0.0,0.0,0.0,0.0,0.0,0.0,0.0,0.0,0.0,0.0,0.0,-5.8927,-5.8584,-5.829,-5.8253,-5.8327,-5.8474,-5.851,-5.8437,-5.829,-5.8368,-5.8532,-5.8833,-5.8353,-5.8517,-5.9604,-5.9464,-5.9595,-6.0231,-6.061,-6.0473,-5.9819,-5.9588,-5.9204,-5.855,-5.855,-5.855,-5.855,-5.855,-5.8593,-5.8714,-5.9438,-6.0165,-6.0781,-6.0781,-6.0781,-6.0781,-6.0781,-6.0781,-6.0781,-6.0781,-6.0781,-6.0819,-6.1012,-6.0973,-6.0858,-6.1204,-6.1204,-6.1089,-6.1281,-6.2358,-6.3589,-6.3589,-6.4666,-6.5897,-6.5897,-6.5897,-6.5897,-6.5897,-6.5897,-6.5897,-6.5897,-6.5897,-6.5897,-6.5897,-6.5897,-6.5897,-6.5897,-6.5897,-6.6167,-6.6974,-6.7667,-6.8359,-6.9052,-6.8398,-6.7859,-6.7859,-6.7859,-6.7859,-6.7859,-6.8013,-6.8052,-6.7898,-6.8013,-6.8052,-6.7859,-6.7051,-6.6628,-6.6821,-6.5205,-6.432,-6.432,-6.432,-6.3897,-6.3051,-6.2397,-6.232,-6.2743,-6.2089,-6.2166,0.0,0.0,0.0,0.0,0.0,0.0,0.0,0.0,0.0,0.0,0.0,0.0,0.0,0.0,-5.851,-5.807,-5.7997,-5.7997,-5.7997,-5.7997,-5.7997,-5.7997,-5.7666,-5.7619,-5.8077,-5.7392,-5.7286,-5.8182,-5.8104,-5.8265,-5.8883,-5.9152,-5.9165,-5.8923,-5.8511,-5.8088,-5.7665,-5.7665,-5.7665,-5.7665,-5.7489,-5.7378,-5.7454,-5.8865,-5.9973,-6.0781,-6.0781,-6.0781,-6.0781,-6.0781,-6.0781,-6.0781,-6.0781,-6.0781,-6.0781,-6.0781,-6.0781,-6.0781,-6.0781,-6.0781,-6.0781,-6.0781,-6.1935,-6.3308,-6.3308,-6.4512,-6.5897,-6.5897,-6.5897,-6.5897,-6.5897,-6.5897,-6.5897,-6.5897,-6.5897,-6.5897,-6.5897,-6.6205,-6.6474,-6.6474,-6.6474,-6.6744,-6.759,-6.809,-6.8706,-6.959,-6.8975,-6.8385,-6.8385,-6.8385,-6.8385,-6.8385,-6.8783,-6.8859,-6.8423,-6.8783,-6.8859,-6.8436,-6.7975,-6.7705,-6.7705,-6.6898,-6.6051,-6.5243,-6.5205,-6.4782,-6.3935,-6.3512,-6.3281,-6.3269,-6.2858,-6.2897,0.0,0.0,0.0,0.0,0.0,0.0,0.0,0.0,0.0,0.0,0.0,0.0,0.0,0.0,-5.7776,-5.7776,-5.7776,-5.774,-5.7593,-5.7593,-5.7593,-5.7593,-5.7005,-5.6764,-5.7117,-5.6434,-5.6201,-5.6732,-5.6685,-5.6884,-5.7346,-5.753,-5.7697,-5.7958,-5.7335,-5.6945,-5.6791,-5.6791,-5.6731,-5.6675,-5.6268,-5.6172,-5.6469,-5.8169,-5.9465,-6.0358,-6.0358,-6.0435,-6.0589,-6.0589,-6.0666,-6.0781,-6.0781,-6.0781,-6.0781,-6.0781,-6.0781,-6.0781,-6.0781,-6.0781,-6.0781,-6.0781,-6.1858,-6.3128,-6.3281,-6.4397,-6.5705,-6.5859,-6.5897,-6.5897,-6.5897,-6.5897,-6.5897,-6.5897,-6.6013,-6.609,-6.609,-6.6628,-6.7128,-6.7282,-6.7321,-6.759,-6.8475,-6.8629,-6.8936,-6.9783,-6.9283,-6.8821,-6.8821,-6.8821,-6.8821,-6.8821,-6.9475,-6.9629,-6.8898,-6.9475,-6.959,-6.8898,-6.8706,-6.8552,-6.8398,-6.8385,-6.7667,-6.6128,-6.609,-6.5667,-6.482,-6.4666,-6.432,-6.3743,-6.3743,-6.3743,0.0,0.0,0.0,0.0,0.0,0.0,0.0,0.0,0.0,0.0,0.0,0.0,0.0,0.0,0.0,0.0,0.0,0.0,0.0,0.0,0.0,0.0,0.0,0.0,-5.5852,-5.5116,-5.4954,-5.5739,-5.5505,-5.5697,-5.6425,-5.7194,-5.7322,-5.6689,-5.6886,-5.6637,-5.5857,-5.5857,-5.5696,-5.5326,-5.4965,-5.5329,-5.6431,-5.67,-5.7494,-5.8627,-5.8627,-5.905,-5.9665,-5.9665,-6.0127,-6.0781,-6.0781,-6.0781,-6.0781,-6.0781,-6.0781,-6.0781,-6.0781,-6.0781,-6.0781,-6.0781,-6.1473,-6.2397,-6.3089,-6.4012,-6.4936,-6.5705,-6.5897,-6.5897,-6.5897,-6.5897,-6.5897,-6.5897,-6.6436,-6.6936,-6.6936,-6.7013,-6.7321,-6.809,-6.8244,-6.8513,-6.9398,-6.9513,-6.9821,-7.0629,-7.0629,-7.0552,-7.0552,-7.0552,-7.0552,-7.0552,-7.0667,-7.0706,-7.0591,-7.0667,-7.0706,-7.0552,-6.9898,-6.9206,-6.8436,-6.8385,-6.7936,-6.6974,-6.6936,-6.6551,-6.5705,-6.4974,-6.4936,-6.5551,-6.5551,-6.5551,0.0,0.0,0.0,0.0,0.0,0.0,0.0,0.0,0.0,0.0,0.0,0.0,0.0,0.0,0.0,0.0,0.0,0.0,0.0,0.0,0.0,0.0,0.0,0.0,0.0,0.0,0.0,-5.4216,-5.4137,-5.4289,-5.4876,-5.5255,-5.5438,-5.5329,-5.5236,-5.526,-5.5375,-5.5127,-5.4927,-5.4745,-5.4322,-5.4543,-5.5344,-5.5344,-5.6431,-5.8319,-5.8319,-5.8781,-5.9511,-5.9511,-6.0012,-6.0781,-6.0781,-6.0781,-6.0781,-6.0781,-6.0781,-6.0781,-6.0781,-6.0781,-6.0781,-6.0781,-6.1408,-6.2178,-6.2512,-6.3551,-6.4666,-6.5051,-6.5513,-6.5897,-6.5897,-6.5897,-6.5897,-6.5897,-6.6167,-6.6551,-6.7013,-6.7859,-6.8667,-6.9052,-6.9129,-6.9244,-6.9629,-6.9706,-6.9975,-7.0783,-7.0898,-7.0898,-7.0898,-7.0898,-7.1091,-7.1591,-7.1629,-7.1629,-7.1629,-7.1629,-7.1398,-7.0937,-7.0552,-7.0206,-6.9821,-6.9821,-6.9398,-6.8552,-6.759,-6.7167,-6.7321,-6.6436,-6.6436,-6.7321,-6.7321,-6.7321,0.0,0.0,0.0,0.0,0.0,0.0,0.0,0.0,0.0,0.0,0.0,0.0,0.0,0.0,0.0,0.0,0.0,0.0,0.0,0.0,0.0,0.0,0.0,0.0,0.0,0.0,0.0,0.0,-5.3004,-5.3023,-5.3328,-5.3423,-5.3548,-5.372,-5.348,-5.3693,-5.4472,-5.4063,-5.391,-5.4021,-5.3552,-5.3682,-5.4322,-5.4436,-5.5598,-5.7474,-5.7593,-5.8242,-5.9192,-5.9072,-5.9662,-6.0622,-6.0622,-6.0622,-6.0634,-6.0757,-6.0781,-6.0781,-6.0781,-6.0781,-6.0781,-6.0781,-6.1243,-6.187,-6.2281,-6.3281,-6.4359,-6.482,-6.5397,-6.5897,-6.5897,-6.5897,-6.5936,-6.6167,-6.6359,-6.6705,-6.7282,-6.8629,-6.9744,-6.9975,-7.0014,-7.0014,-7.0014,-7.0014,-7.0283,-7.1091,-7.1245,-7.1321,-7.1514,-7.1552,-7.1822,-7.2476,-7.2514,-7.2514,-7.2514,-7.2514,-7.2245,-7.1591,-7.136,-7.1129,-7.0898,-7.0898,-7.0514,-6.9706,-6.8436,-6.7975,-6.8385,-6.7744,-6.7744,-6.8398,-6.8629,-6.8629,0.0,0.0,0.0,0.0,0.0,0.0,0.0,0.0,0.0,0.0,0.0,0.0,0.0,0.0,0.0,0.0,0.0,0.0,0.0,0.0,0.0,0.0,0.0,0.0,0.0,0.0,0.0,0.0,-5.2491,-5.2071,-5.2091,-5.2474,-5.2304,-5.1593,-5.1892,-5.2295,-5.273,-5.2319,-5.2306,-5.2695,-5.2299,-5.2705,-5.3832,-5.4288,-5.4754,-5.5275,-5.5658,-5.678,-5.8335,-5.7888,-5.8668,-6.0146,-6.0146,-6.0146,-6.0189,-6.0634,-6.0781,-6.0781,-6.0781,-6.0781,-6.0781,-6.0781,-6.0819,-6.1166,-6.2781,-6.3308,-6.3705,-6.5359,-6.5859,-6.5897,-6.5897,-6.5897,-6.609,-6.6859,-6.7667,-6.8269,-6.8321,-6.9052,-6.9937,-7.0706,-7.0821,-7.0821,-7.0821,-7.0821,-7.1129,-7.2014,-7.2129,-7.2437,-7.3283,-7.336,-7.3399,-7.3437,-7.3437,-7.3437,-7.3437,-7.3437,-7.3399,-7.336,-7.2591,-7.1745,-7.0937,-7.0898,-7.0514,-6.9706,-6.9629,-6.9167,-6.8385,-6.8359,-6.8359,-6.8436,-6.9244,-6.9206,0.0,0.0,0.0,0.0,0.0,0.0,0.0,0.0,0.0,0.0,0.0,0.0,0.0,0.0,0.0,0.0,0.0,0.0,0.0,0.0,0.0,0.0,0.0,0.0,0.0,0.0,0.0,0.0,0.0,-5.1242,-5.1242,-5.1349,-5.1319,-5.1024,-5.087,-5.098,-5.1433,-5.2086,-5.2462,-5.2584,-5.2719,-5.3145,-5.3833,-5.4288,-5.4716,-5.5121,-5.5237,-5.6282,-5.7812,-5.7354,-5.8148,-5.9642,-5.9642,-5.9839,-6.0132,-6.0297,-6.0533,-6.0781,-6.0781,-6.0781,-6.0781,-6.0781,-6.0781,-6.1012,-6.2166,-6.2897,-6.3551,-6.4743,-6.5474,-6.6013,-6.6551,-6.6667,-6.6859,-6.7744,-6.8167,-6.8552,-6.9129,-6.9898,-7.0552,-7.0821,-7.136,-7.1745,-7.1745,-7.2206,-7.2668,-7.2976,-7.3014,-7.3168,-7.3476,-7.3514,-7.3707,-7.4207,-7.4284,-7.4284,-7.4284,-7.4284,-7.4053,-7.3538,-7.3206,-7.2629,-7.1783,-7.2283,-7.1898,-7.0514,-7.1014,-7.086,-7.0014,-6.9475,-6.9513,-7.0014,-7.0321,-7.0283,0.0,0.0,0.0,0.0,0.0,0.0,0.0,0.0,0.0,0.0,0.0,0.0,0.0,0.0,0.0,0.0,0.0,0.0,0.0,0.0,0.0,0.0,0.0,0.0,0.0,0.0,0.0,0.0,0.0,0.0,-5.0398,-5.0398,-5.0141,-4.9591,-4.9657,-4.9653,-4.9573,-5.1014,-5.1824,-5.1992,-5.2565,-5.3081,-5.3624,-5.4204,-5.464,-5.489,-5.489,-5.576,-5.7149,-5.6823,-5.7486,-5.8782,-5.9045,-5.9354,-5.9658,-5.9977,-6.0311,-6.0597,-6.0746,-6.0781,-6.0781,-6.0781,-6.0781,-6.1012,-6.2166,-6.2897,-6.3538,-6.4705,-6.5628,-6.6436,-6.6974,-6.7513,-6.8129,-6.8706,-6.9052,-6.9398,-6.9975,-7.0321,-7.0667,-7.1245,-7.1783,-7.2283,-7.2591,-7.3129,-7.3577,-7.386,-7.3899,-7.4014,-7.4322,-7.4361,-7.4553,-7.5091,-7.513,-7.513,-7.513,-7.513,-7.4899,-7.4361,-7.4053,-7.363,-7.3053,-7.336,-7.2976,-7.1783,-7.2322,-7.236,-7.1783,-7.0667,-7.0398,-7.0898,-7.1206,-7.1321,0.0,0.0,0.0,0.0,0.0,0.0,0.0,0.0,0.0,0.0,0.0,0.0,0.0,0.0,0.0,0.0,0.0,0.0,0.0,0.0,0.0,0.0,0.0,0.0,0.0,0.0,0.0,0.0,-4.9958,-4.9537,-4.9537,-4.95,-4.8746,-4.7149,-4.8249,-4.8266,-4.7113,-4.9101,-5.0343,-5.0802,-5.1646,-5.2454,-5.3209,-5.4103,-5.4484,-5.4468,-5.4484,-5.517,-5.6297,-5.6197,-5.6643,-5.7538,-5.832,-5.8656,-5.8796,-5.9706,-6.0089,-6.0161,-6.0622,-6.0781,-6.0781,-6.0781,-6.0819,-6.1166,-6.282,-6.332,-6.3705,-6.5436,-6.6474,-6.709,-6.7167,-6.8436,-6.9744,-6.9744,-7.0321,-7.0898,-7.0937,-7.0321,-7.0244,-7.186,-7.2245,-7.2552,-7.3399,-7.3553,-7.386,-7.463,-7.4745,-7.5053,-7.5899,-7.6015,-7.6015,-7.6015,-7.6015,-7.6015,-7.6015,-7.6015,-7.6015,-7.6015,-7.5207,-7.4745,-7.4707,-7.3976,-7.3553,-7.3514,-7.3514,-7.3514,-7.3514,-7.1783,-7.0937,-7.1014,-7.1822,-7.2206,-4.5223,0.0,0.0,0.0,0.0,0.0,0.0,0.0,0.0,0.0,0.0,0.0,0.0,0.0,0.0,0.0,0.0,0.0,0.0,0.0,0.0,0.0,0.0,0.0,0.0,0.0,0.0,0.0,-4.7939,-4.7792,-4.7792,-4.7241,-4.6985,-4.7113,-4.7427,-4.7445,-4.7113,-4.9433,-5.0684,-5.0839,-5.2234,-5.3004,-5.3209,-5.4103,-5.4305,-5.4013,-5.4338,-5.4522,-5.4528,-5.4808,-5.5739,-5.7029,-5.725,-5.7878,-5.8716,-5.9009,-5.9509,-6.0118,-6.0269,-6.0508,-6.0781,-6.0781,-6.1243,-6.1935,-6.2974,-6.3743,-6.4474,-6.559,-6.6474,-6.7398,-6.8667,-6.9783,-7.0552,-7.0552,-7.0744,-7.1052,-7.1706,-7.1668,-7.1629,-7.2091,-7.3168,-7.4091,-7.4322,-7.4899,-7.5399,-7.563,-7.563,-7.5745,-7.5976,-7.6015,-7.6015,-7.6015,-7.6015,-7.6015,-7.6015,-7.6015,-7.6015,-7.6015,-7.5784,-7.5361,-7.4745,-7.5091,-7.4745,-7.3514,-7.4091,-7.4091,-7.3514,-7.2399,-7.2168,-7.2783,-7.236,-7.2206,0.0,0.0,0.0,0.0,0.0,0.0,-4.4195,-4.4011,-4.3901,0.0,0.0,0.0,0.0,0.0,0.0,0.0,0.0,0.0,0.0,0.0,0.0,0.0,0.0,0.0,0.0,-4.5883,-4.6104,-4.6562,-4.6599,-4.6746,-4.7076,-4.6361,-4.6104,-4.6562,-4.6929,-4.6929,-4.6599,-4.9407,-5.0802,-5.0839,-5.2454,-5.3203,-5.3209,-5.3906,-5.4048,-5.3833,-5.4083,-5.4048,-5.3814,-5.3896,-5.484,-5.6345,-5.6675,-5.7486,-5.8439,-5.8632,-5.9158,-5.9839,-6.0006,-6.043,-6.0781,-6.0781,-6.1408,-6.2255,-6.3051,-6.3897,-6.4859,-6.6051,-6.7244,-6.8513,-6.986,-7.0552,-7.0898,-7.0898,-7.1168,-7.1591,-7.2091,-7.2745,-7.3245,-7.3245,-7.4014,-7.4822,-7.5168,-7.5668,-7.6015,-7.6015,-7.6015,-7.6015,-7.6015,-7.6015,-7.6015,-7.6015,-7.6015,-7.6015,-7.6015,-7.6015,-7.6015,-7.6015,-7.6015,-7.5784,-7.5245,-7.5745,-7.5553,-7.4553,-7.5014,-7.4822,-7.4014,-7.3168,-7.3168,-7.3976,-7.2745,-7.2399,0.0,0.0,0.0,0.0,0.0,0.0,-4.4892,-4.4691,-4.4488,-4.3644,0.0,0.0,0.0,0.0,0.0,0.0,0.0,0.0,0.0,0.0,0.0,0.0,0.0,0.0,-4.5626,-4.5626,-4.5663,-4.5773,-4.5773,-4.614,-4.6929,-4.614,-4.5663,-4.5773,-4.6544,-4.6599,-4.592,-4.915,-5.0802,-5.0839,-5.2454,-5.3203,-5.3188,-5.3624,-5.3796,-5.3739,-5.3796,-5.3758,-5.3702,-5.3339,-5.4142,-5.5647,-5.6381,-5.7226,-5.8065,-5.8482,-5.8971,-5.9458,-5.9885,-6.0351,-6.0819,-6.0896,-6.1488,-6.231,-6.3192,-6.4026,-6.5,-6.6769,-6.8436,-6.9898,-7.0706,-7.0898,-7.0937,-7.1014,-7.1629,-7.2245,-7.2437,-7.3668,-7.4745,-7.4822,-7.4861,-7.5091,-7.5861,-7.6015,-7.6015,-7.6015,-7.6015,-7.6015,-7.6015,-7.6015,-7.6015,-7.6015,-7.6015,-7.6015,-7.6015,-7.6015,-7.6015,-7.6015,-7.6015,-7.6015,-7.6015,-7.6015,-7.6015,-7.6015,-7.6015,-7.563,-7.4861,-7.4053,-7.4014,-7.4668,-7.3091,-7.2745,0.0,0.0,0.0,0.0,0.0,0.0,-4.5021,-4.4691,-4.4488,0.0,0.0,0.0,0.0,0.0,0.0,0.0,0.0,0.0,0.0,0.0,0.0,0.0,0.0,0.0,-4.3975,-4.3975,-4.4232,-4.4892,-4.4929,-4.5296,-4.6104,-4.4745,-4.4268,-4.4929,-4.57,-4.6067,-4.5883,-4.915,-5.0802,-5.0839,-5.2454,-5.3203,-5.3188,-5.3624,-5.3643,-5.3318,-5.3644,-5.3624,-5.3297,-5.323,-5.4142,-5.5611,-5.5757,-5.6712,-5.802,-5.8097,-5.8693,-5.9407,-5.9492,-6.0103,-6.0935,-6.1639,-6.2132,-6.2744,-6.3963,-6.4663,-6.545,-6.7549,-6.8898,-6.9898,-7.0706,-7.0898,-7.1091,-7.1783,-7.2091,-7.2552,-7.3937,-7.4476,-7.4899,-7.563,-7.5745,-7.5784,-7.5976,-7.6015,-7.6015,-7.6015,-7.6015,-7.6015,-7.6015,-7.6015,-7.6015,-7.6015,-7.6015,-7.6015,-7.6015,-7.6015,-7.6015,-7.6015,-7.6015,-7.6015,-7.6015,-7.6015,-7.6015,-7.6015,-7.6015,-7.5938,-7.5745,-7.4899,-7.4553,-7.4668,-7.3707,-7.336,0.0,0.0,0.0,-4.7773,0.0,0.0,0.0,-4.559,-4.5076,-4.4268,0.0,0.0,0.0,0.0,0.0,0.0,0.0,0.0,0.0,0.0,0.0,0.0,0.0,0.0,-4.3515,-4.3515,-4.3644,-4.4085,-4.4085,-4.4452,-4.5259,-4.4158,-4.3864,-4.4654,-4.548,-4.5883,-4.5883,-4.8746,-5.0398,-5.0802,-5.2013,-5.2821,-5.3225,-5.3383,-5.34,-5.3225,-5.3404,-5.34,-5.3203,-5.3628,-5.4509,-5.5596,-5.5596,-5.6565,-5.7997,-5.7997,-5.8461,-5.9065,-5.9319,-5.987,-6.0571,-6.1439,-6.2281,-6.3124,-6.3929,-6.5398,-6.6974,-6.8075,-6.9321,-7.0475,-7.1321,-7.1552,-7.1783,-7.2629,-7.3168,-7.3668,-7.4514,-7.5053,-7.5476,-7.5938,-7.6015,-7.6015,-7.6015,-7.6015,-7.6015,-7.6015,-7.6015,-7.6015,-7.6015,-7.6015,-7.6015,-7.6015,-7.6399,-7.663,-7.663,-7.663,-7.663,-7.663,-7.6245,-7.6015,-7.6015,-7.6015,-7.6015,-7.6015,-7.6015,-7.6015,-7.6015,-7.513,-7.4938,-7.5322,-7.4476,-7.4091,0.0,0.0,0.0,0.0,0.0,-4.8086,0.0,0.0,0.0,0.0,0.0,0.0,0.0,0.0,0.0,0.0,0.0,0.0,0.0,0.0,0.0,0.0,0.0,0.0,-4.3515,-4.3515,-4.3515,-4.3515,-4.3515,-4.3791,-4.4452,-4.3864,-4.3864,-4.4654,-4.548,-4.5957,-4.614,-4.8435,-4.9994,-5.0802,-5.161,-5.2417,-5.3203,-5.3203,-5.3203,-5.3203,-5.3203,-5.3203,-5.324,-5.3922,-5.473,-5.5611,-5.5757,-5.6712,-5.7997,-5.7997,-5.8304,-5.8736,-5.9121,-5.9673,-6.0342,-6.1279,-6.256,-6.3873,-6.4191,-6.6227,-6.8423,-6.859,-6.986,-7.1321,-7.2014,-7.2322,-7.2668,-7.3553,-7.4245,-7.4745,-7.4899,-7.5515,-7.6015,-7.6015,-7.6015,-7.6015,-7.6015,-7.6015,-7.6015,-7.6015,-7.6015,-7.6015,-7.6015,-7.6015,-7.6015,-7.6015,-7.663,-7.713,-7.7284,-7.713,-7.713,-7.7284,-7.6476,-7.6015,-7.6015,-7.6015,-7.6015,-7.6015,-7.6015,-7.6015,-7.6015,-7.5284,-7.5322,-7.5976,-7.513,-7.4707,0.0,0.0,0.0,0.0,-4.8306,0.0,0.0,0.0,-4.6746,-4.592,0.0,0.0,0.0,0.0,0.0,0.0,0.0,0.0,0.0,0.0,0.0,0.0,0.0,0.0,0.0,-4.3515,-4.3515,-4.3515,-4.3515,-4.3551,-4.3625,-4.3551,-4.3864,-4.4654,-4.548,-4.625,-4.6966,-4.871,-4.9994,-5.0802,-5.161,-5.2417,-5.3203,-5.3203,-5.3203,-5.3203,-5.3203,-5.3203,-5.3203,-5.3298,-5.4216,-5.5647,-5.6381,-5.7226,-5.7997,-5.7997,-5.8304,-5.8733,-5.8756,-5.9534,-6.0757,-6.204,-6.389,-6.5679,-6.5987,-6.7184,-6.8552,-6.9321,-7.0744,-7.2091,-7.2168,-7.2783,-7.3553,-7.4361,-7.463,-7.4899,-7.5707,-7.5938,-7.6015,-7.6015,-7.6015,-7.6015,-7.6015,-7.6015,-7.6015,-7.6015,-7.6015,-7.6015,-7.6015,-7.6015,-7.6015,-7.6015,-7.6092,-7.6476,-7.7207,-7.6592,-7.6476,-7.7246,-7.6476,-7.6015,-7.6015,-7.6015,-7.6015,-7.6015,-7.6015,-7.6015,-7.6015,-7.5899,-7.5899,-7.5976,-7.513,-7.4707,0.0,0.0,0.0,0.0,0.0,0.0,-4.7846,0.0,-4.7003,0.0,0.0,0.0,0.0,0.0,0.0,0.0,-4.3515,0.0,0.0,0.0,0.0,0.0,0.0,0.0,0.0,0.0,0.0,0.0,-4.3515,-4.3515,-4.3515,-4.3515,-4.3864,-4.4654,-4.548,-4.6287,-4.7076,-4.8746,-4.9994,-5.0802,-5.161,-5.2417,-5.3203,-5.3203,-5.3203,-5.3203,-5.3203,-5.3203,-5.3298,-5.4216,-5.4987,-5.5721,-5.7005,-5.7703,-5.7997,-5.7997,-5.8119,-5.8385,-5.9148,-5.9729,-6.0529,-6.2629,-6.4061,-6.521,-6.6097,-6.7079,-6.8097,-6.8939,-7.0409,-7.1927,-7.2727,-7.3591,-7.4399,-7.5245,-7.5438,-7.5553,-7.5938,-7.6015,-7.6015,-7.6015,-7.6015,-7.6015,-7.6015,-7.6015,-7.6169,-7.6669,-7.6746,-7.6746,-7.6746,-7.6746,-7.6553,-7.6053,-7.6861,-7.7592,-7.7977,-7.7669,-7.7592,-7.7977,-7.6746,-7.6015,-7.6015,-7.6015,-7.6015,-7.6015,-7.6015,-7.6015,-7.6015,-7.6015,-7.6015,-7.5976,-7.563,-7.5438,-4.7883,0.0,0.0,0.0,0.0,0.0,0.0,0.0,0.0,0.0,0.0,0.0,0.0,0.0,0.0,0.0,0.0,0.0,0.0,0.0,0.0,0.0,0.0,0.0,0.0,0.0,0.0,-4.3515,-4.3515,-4.3515,-4.3515,-4.3515,-4.3975,-4.5002,-4.559,-4.6397,-4.7406,-4.8857,-4.9994,-5.0802,-5.161,-5.2417,-5.3203,-5.3203,-5.3203,-5.3203,-5.3203,-5.3203,-5.3314,-5.4693,-5.539,-5.5743,-5.7116,-5.7813,-5.7997,-5.7997,-5.8143,-5.847,-5.939,-6.0094,-6.0923,-6.3065,-6.4196,-6.4917,-6.6094,-6.7016,-6.787,-6.8707,-7.017,-7.1779,-7.2939,-7.4044,-7.4996,-7.5793,-7.6015,-7.6015,-7.6015,-7.6015,-7.6015,-7.6015,-7.6015,-7.6015,-7.6015,-7.6207,-7.6476,-7.6861,-7.7323,-7.7438,-7.6976,-7.713,-7.6976,-7.6092,-7.7284,-7.8169,-7.8169,-7.8169,-7.8054,-7.7823,-7.6669,-7.6015,-7.6015,-7.6015,-7.6015,-7.6015,-7.6015,-7.6015,-7.6015,-7.6015,-7.6015,-7.6015,-7.6015,-7.6015,0.0,0.0,0.0,-4.8122,0.0,0.0,0.0,0.0,-4.8269,0.0,0.0,0.0,0.0,0.0,0.0,0.0,0.0,0.0,0.0,0.0,0.0,0.0,0.0,0.0,0.0,0.0,-4.3515,-4.3515,-4.3515,-4.3515,-4.3515,-4.3515,-4.4249,-4.581,-4.5883,-4.6654,-4.8269,-4.915,-4.9994,-5.0802,-5.161,-5.2417,-5.3203,-5.3203,-5.3203,-5.3203,-5.3203,-5.3203,-5.324,-5.4106,-5.4913,-5.5706,-5.6528,-5.7299,-5.7997,-5.7997,-5.851,-5.9148,-5.9208,-6.0603,-6.246,-6.3339,-6.4483,-6.5709,-6.654,-6.737,-6.8181,-6.9031,-7.0465,-7.193,-7.2485,-7.3868,-7.5233,-7.5848,-7.6015,-7.6015,-7.6015,-7.6015,-7.6015,-7.6015,-7.6015,-7.6015,-7.6015,-7.6707,-7.6976,-7.6169,-7.74,-7.7861,-7.6245,-7.6784,-7.6976,-7.6092,-7.6784,-7.7323,-7.7323,-7.7323,-7.6976,-7.613,-7.6015,-7.6015,-7.6015,-7.6015,-7.6015,-7.6015,-7.6015,-7.6015,-7.6015,-7.6015,-7.6015,-7.6015,-7.6015,-7.6015,0.0,0.0,-4.7296,-4.8122,0.0,0.0,0.0,0.0,0.0,0.0,0.0,0.0,0.0,0.0,0.0,0.0,0.0,0.0,0.0,0.0,0.0,0.0,0.0,0.0,0.0,0.0,0.0,-4.3515,-4.3515,-4.3515,-4.3515,-4.3515,-4.4232,-4.5847,-4.5883,-4.6948,-4.9114,-4.9958,-5.0802,-5.161,-5.2417,-5.2931,-5.3203,-5.3203,-5.3203,-5.3203,-5.3203,-5.3518,-5.4069,-5.484,-5.5684,-5.6455,-5.7262,-5.7776,-5.7997,-5.7997,-5.851,-5.9331,-6.0419,-6.1629,-6.2751,-6.3424,-6.4262,-6.5218,-6.6042,-6.6843,-6.7666,-6.8511,-6.9581,-7.0713,-7.1796,-7.3193,-7.4514,-7.5226,-7.5702,-7.6015,-7.6015,-7.6015,-7.6015,-7.6015,-7.6015,-7.6015,-7.6015,-7.7169,-7.7823,-7.6976,-7.8284,-7.8746,-7.7092,-7.7592,-7.7784,-7.6938,-7.7592,-7.8323,-7.89,-7.8438,-7.7476,-7.6092,-7.6015,-7.6015,-7.6015,-7.6015,-7.6015,-7.6015,-7.6015,-7.6015,-7.6015,-7.6015,-7.6015,-7.6015,-7.6015,-7.6015,-4.6012,-4.6232,0.0,-4.759,-4.7846,0.0,-4.8233,0.0,0.0,0.0,0.0,0.0,0.0,0.0,0.0,0.0,0.0,0.0,0.0,0.0,0.0,0.0,0.0,0.0,0.0,0.0,-4.3515,-4.3515,-4.3515,-4.3515,0.0,0.0,-4.4525,-4.5847,-4.6471,-4.7682,-4.9574,-5.0692,-5.1499,-5.2013,-5.2821,-5.3203,-5.3203,-5.3203,-5.3203,-5.3203,-5.3518,-5.3922,-5.4473,-5.5574,-5.6345,-5.6895,-5.7703,-5.7997,-5.7997,-5.7997,-5.8694,-5.9869,-6.1484,-6.2365,-6.2892,-6.3585,-6.4331,-6.5147,-6.5925,-6.674,-6.7494,-6.8062,-6.8828,-6.9793,-7.1179,-7.2553,-7.3839,-7.4882,-7.5567,-7.6015,-7.6015,-7.6015,-7.6015,-7.6015,-7.6015,-7.6015,-7.6015,-7.74,-7.8222,-7.74,-7.8977,-7.9554,-7.7553,-7.7977,-7.8054,-7.6938,-7.7592,-7.84,-7.9285,-7.8554,-7.7592,-7.6515,-7.6169,-7.6015,-7.6015,-7.6015,-7.613,-7.6476,-7.6169,-7.613,-7.6476,-7.613,-7.6015,-7.6015,-7.6015,-7.6015]},{"header":{"parameterUnit":"m.s-1","parameterCategory":1,"la1":30.6,"la2":29.2853,"lo1":-89.7004,"lo2":-87.6739,"dy":0.0162,"dx":0.0183,"nx":112,"ny":82,"refTime":"2023-03-23T12:00:00:Z","depth":0,"parameterNumber":3,"parameterNumberName":"V-component_of_WINDS"},"data":[0.0,0.0,0.0,0.0,0.0,0.0,0.0,0.0,0.0,0.0,0.0,0.0,0.0,0.0,0.0,0.0,0.0,0.0,0.0,0.0,0.0,0.0,0.0,0.0,0.0,0.0,0.0,0.0,0.0,0.0,0.0,0.0,0.0,0.0,0.0,0.0,0.0,0.0,0.0,0.0,0.0,0.0,0.0,0.0,0.0,0.0,0.0,0.0,0.0,0.0,0.0,0.0,0.0,0.0,0.0,0.0,0.0,0.0,0.0,0.0,0.0,0.0,0.0,0.0,0.0,0.0,0.0,0.0,0.0,0.0,0.0,0.0,0.0,0.0,0.0,0.0,0.0,0.0,0.0,0.0,0.0,0.0,0.0,0.0,0.0,0.0,0.0,0.0,0.0,0.0,0.633,0.5813,0.7252,0.8241,0.832,0.8316,0.8255,0.8002,0.0,0.0,0.0,0.0,0.0,0.0,0.0,0.0,0.0,0.0,0.0,0.0,0.0,0.0,0.0,0.0,0.0,0.0,0.0,0.0,0.0,0.0,0.0,0.0,0.0,0.0,0.0,0.0,0.0,0.0,0.0,0.0,0.0,0.0,0.0,0.0,0.0,0.0,0.0,0.0,0.0,0.0,0.0,0.0,0.0,0.0,0.0,0.0,0.0,0.0,0.0,0.0,0.0,0.0,0.0,0.0,0.0,0.0,0.0,0.0,0.0,0.0,0.0,0.0,0.0,0.0,0.0,0.0,0.0,0.0,0.0,0.0,0.0,0.0,0.0,0.0,0.0,0.0,0.0,0.0,0.0,0.0,0.0,0.0,0.0,0.0,0.0,0.0,0.0,0.0,0.0,0.0,0.0,0.0,0.0,0.0,0.0,0.0,0.0,0.0,0.0,0.0,0.0,0.0,0.6065,0.7279,0.7782,0.8126,0.8262,0.7943,0.7821,0.7975,0.0,0.0,0.0,0.0,0.0,0.0,0.0,0.0,0.0,0.0,0.0,0.0,0.0,0.0,0.0,0.0,0.0,0.0,0.0,0.0,0.0,0.0,0.0,0.0,0.0,0.0,0.0,0.0,0.0,0.0,0.0,0.0,0.0,0.0,0.0,0.0,0.0,0.0,0.0,0.0,0.0,0.0,0.0,0.0,0.0,0.0,0.0,0.0,0.0,0.0,0.0,0.0,0.0,0.0,0.0,0.0,0.0,0.0,0.0,0.0,0.0,0.0,0.0,0.0,0.0,0.0,0.0,0.0,0.0,0.0,0.0,0.0,0.0,0.0,0.0,0.0,0.0,0.0,0.0,0.0,0.0,0.0,0.0,0.0,0.0,0.0,0.0,0.0,0.0,0.0,0.0,0.0,0.0,0.0,0.0,0.0,0.0,0.0,0.0,0.0,0.0,0.0,0.0,0.5796,0.6804,0.7725,0.7901,0.8015,0.814,0.7807,0.7726,0.7968,0.784,0.0,0.0,0.0,0.0,0.0,0.0,0.0,0.0,0.0,0.0,0.0,0.0,0.0,0.0,0.0,0.0,0.0,0.0,0.0,0.0,0.0,0.0,0.0,0.0,0.0,0.0,0.0,0.0,0.0,0.0,0.0,0.0,0.0,0.0,0.0,0.0,0.0,0.0,0.0,0.0,0.0,0.0,0.0,0.0,0.0,0.0,0.0,0.0,0.0,0.0,0.0,0.0,0.0,0.0,0.0,0.0,0.0,0.0,0.0,0.0,0.0,0.0,0.0,0.0,0.0,0.0,0.0,0.0,0.0,0.0,0.0,0.0,0.0,0.0,0.0,0.0,0.0,0.0,0.0,0.0,0.0,0.0,0.0,0.0,0.0,0.0,0.0,0.0,0.0,0.0,0.0,0.0,0.0,0.0,0.0,0.0,0.0,0.0,0.0,0.0,0.0,0.0,0.67,0.7455,0.7828,0.7921,0.7988,0.7988,0.774,0.7685,0.7968,0.7726,0.0,0.0,0.0,0.0,0.0,0.0,0.0,0.0,0.0,0.0,0.0,0.0,0.0,0.0,0.0,0.0,0.0,0.0,0.0,0.0,0.0,0.0,0.0,0.0,0.0,0.0,0.0,0.0,0.0,0.0,0.0,0.0,0.0,0.0,0.0,0.0,0.0,0.0,0.0,0.0,0.0,0.0,0.0,0.0,0.0,0.0,0.0,0.0,0.0,0.0,0.0,0.0,0.0,0.0,0.0,0.0,0.0,0.0,0.0,0.0,0.0,0.0,0.0,0.0,0.0,0.0,0.0,0.0,0.0,0.0,0.0,0.0,0.0,0.0,0.0,0.0,0.0,0.0,0.0,0.0,0.0,0.0,0.0,0.0,0.0,0.0,0.0,0.0,0.0,0.0,0.0,0.0,0.0,0.0,0.0,0.0,0.0,0.0,0.0,0.0,0.0,0.0,0.656,0.7334,0.7914,0.7982,0.7988,0.7988,0.7638,0.7577,0.7961,0.7631,0.0,0.0,0.0,0.0,0.0,0.0,0.0,0.0,0.0,0.0,0.0,0.0,0.0,0.0,0.0,0.0,0.0,0.0,0.0,0.0,0.0,0.0,0.0,0.0,0.0,0.0,0.0,0.0,0.0,0.0,0.0,0.0,0.0,0.0,0.0,0.0,0.0,0.0,0.0,0.0,0.0,0.0,0.0,0.0,0.0,0.0,0.0,0.0,0.0,0.0,0.0,0.0,0.0,0.0,0.0,0.0,0.0,0.0,0.0,0.0,0.0,0.0,0.0,0.0,0.0,0.0,0.0,0.0,0.0,0.0,0.0,0.0,0.0,0.0,0.0,0.0,0.0,0.0,0.0,0.0,0.0,0.0,0.0,0.0,0.0,0.0,0.0,0.0,0.0,0.0,0.0,0.0,0.0,0.0,0.0,0.0,0.0,0.0,0.0,0.0,0.0,0.0,0.6803,0.7584,0.0,0.7988,0.7948,0.7909,0.7658,0.7624,0.7882,0.0,0.0,0.0,0.0,0.0,0.0,0.0,0.0,0.0,0.0,0.0,0.0,0.0,0.0,0.0,0.0,0.0,0.0,0.0,0.0,0.0,0.0,0.0,0.0,0.0,0.0,0.0,0.0,0.0,0.0,0.0,0.0,0.0,0.0,0.0,0.0,0.0,0.0,0.0,0.0,0.0,0.0,0.0,0.0,0.0,0.0,0.0,0.0,0.0,0.0,0.0,0.0,0.0,0.0,0.0,0.0,0.0,0.0,0.0,0.0,0.0,0.0,0.0,0.0,0.0,0.0,0.0,0.0,0.0,0.0,0.0,0.0,0.0,0.0,0.0,0.0,0.0,0.0,0.0,0.0,0.0,0.0,0.0,0.0,0.0,0.0,0.0,0.0,0.0,0.0,0.0,0.0,0.0,0.0,0.0,0.0,0.0,0.0,0.0,0.0,0.0,0.0,0.5791,0.6821,0.7584,0.0,0.7961,0.7928,0.7821,0.759,0.7556,0.7794,0.0,0.0,0.0,0.0,0.0,0.0,0.0,0.0,0.0,0.0,0.0,0.0,0.0,0.0,0.0,0.0,0.0,0.0,0.0,0.0,0.0,0.0,0.0,0.0,0.0,0.0,0.0,0.0,0.0,0.0,0.0,0.0,0.0,0.0,0.0,0.0,0.0,0.0,0.0,0.0,0.0,0.0,0.0,0.0,0.0,0.0,0.0,0.0,0.0,0.0,0.0,0.0,0.0,0.0,0.0,0.0,0.0,0.0,0.0,0.0,0.0,0.0,0.0,0.0,0.0,0.0,0.0,0.0,0.0,0.0,0.0,0.0,0.0,0.0,0.0,0.0,0.0,0.0,0.0,0.0,0.0,0.0,0.0,0.0,0.0,0.0,0.0,0.0,0.0,0.0,0.0,0.0,0.0,0.0,0.0,0.0,0.0,0.0,0.0,0.0,0.0,0.0,0.5758,0.6593,0.7267,0.776,0.7894,0.7928,0.7821,0.7355,0.7287,0.0,0.0,0.0,0.0,0.0,0.0,0.0,0.0,0.0,0.0,0.0,0.0,0.0,0.0,0.0,0.0,0.0,0.0,0.0,0.0,0.0,0.0,0.0,0.0,0.0,0.0,0.0,0.0,0.0,0.0,0.0,0.0,0.0,0.0,0.0,0.0,0.0,0.0,0.0,0.0,0.0,0.0,0.0,0.0,0.0,0.0,0.0,0.0,0.0,0.0,0.0,0.0,0.0,0.0,0.0,0.0,0.0,0.0,0.0,0.0,0.0,0.0,0.0,0.0,0.0,0.0,0.0,0.0,0.0,0.0,0.0,0.0,0.0,0.0,0.0,0.0,0.0,0.0,0.0,0.0,0.0,0.0,0.0,0.0,0.0,0.0,0.0,0.0,0.0,0.0,0.0,0.0,0.0,0.0,0.0,0.0,0.0,0.0,0.0,0.0,0.0,0.0,0.0,0.7019,0.7158,0.7267,0.776,0.7848,0.7821,0.7672,0.7294,0.7247,0.7638,0.0,0.0,0.0,0.0,0.0,0.0,0.0,0.0,0.0,0.0,0.0,0.0,0.0,0.0,0.0,0.0,0.0,0.0,0.0,0.0,0.0,0.0,0.0,0.0,0.0,0.0,0.0,0.0,0.0,0.0,0.0,0.0,0.0,0.0,0.0,0.0,0.0,0.0,0.0,0.0,0.0,0.0,0.0,0.0,0.0,0.0,0.0,0.0,0.0,0.0,0.0,0.0,0.0,0.0,0.0,0.0,0.0,0.0,0.0,0.0,0.0,0.0,0.0,0.0,0.0,0.0,0.0,0.0,0.0,0.0,0.0,0.0,0.0,0.0,0.0,0.0,0.0,0.0,0.0,0.0,0.0,0.0,0.0,0.0,0.0,0.0,0.0,0.0,0.0,0.0,0.0,0.0,0.0,0.0,0.0,0.0,0.0,0.0,0.0,0.0,0.0,0.0,0.7657,0.7375,0.7267,0.776,0.7868,0.7821,0.7617,0.7274,0.7173,0.7407,0.0,0.0,0.0,0.0,0.0,0.0,0.0,0.0,0.0,0.0,0.0,0.0,0.0,0.0,0.0,0.0,0.0,0.0,0.0,0.0,0.0,0.0,0.0,0.0,0.0,0.0,0.0,0.0,0.0,0.0,0.0,0.0,0.0,0.0,0.0,0.0,0.0,0.0,0.0,0.0,0.0,0.0,0.0,0.0,0.0,0.0,0.0,0.0,0.0,0.0,0.0,0.0,0.0,0.0,0.0,0.0,0.0,0.0,0.0,0.0,0.0,0.0,0.0,0.0,0.0,0.0,0.0,0.0,0.0,0.0,0.0,0.0,0.0,0.0,0.0,0.0,0.0,0.0,0.0,0.0,0.0,0.0,0.0,0.0,0.0,0.0,0.0,0.0,0.0,0.0,0.0,0.0,0.0,0.0,0.0,0.0,0.0,0.0,0.0,0.0,0.0,0.0,0.7753,0.7375,0.7267,0.776,0.7887,0.7853,0.7624,0.7274,0.7098,0.7119,0.0,0.0,0.0,0.0,0.0,0.0,0.0,0.0,0.0,0.0,0.0,0.0,0.0,0.0,0.0,0.0,0.0,0.0,0.0,0.0,0.0,0.0,0.0,0.0,0.0,0.0,0.0,0.0,0.0,0.0,0.0,0.0,0.0,0.0,0.0,0.0,0.0,0.0,0.0,0.0,0.0,0.0,0.0,0.0,0.0,0.0,0.0,0.0,0.0,0.0,0.0,0.0,0.0,0.0,0.0,0.0,0.0,0.0,0.0,0.0,0.6326,0.0,0.0,0.0,0.0,0.0,0.0,0.0,0.0,0.0,0.0,0.0,0.0,0.0,0.0,0.0,0.0,0.0,0.0,0.0,0.0,0.0,0.0,0.0,0.0,0.0,0.0,0.0,0.0,0.0,0.0,0.0,0.0,0.0,0.0,0.0,0.0,0.0,0.0,0.0,0.0,0.0,0.7753,0.7375,0.7267,0.776,0.7841,0.7787,0.7611,0.7274,0.7146,0.7312,0.7102,0.0,0.0,0.0,0.0,0.0,0.0,0.0,0.0,0.0,0.0,0.0,0.0,0.0,0.0,0.0,0.0,0.0,0.0,0.0,0.0,0.0,0.0,0.0,0.0,0.0,0.0,0.0,0.0,0.0,0.0,0.0,0.0,0.0,0.0,0.0,0.0,0.0,0.0,0.0,0.0,0.0,0.0,0.0,0.0,0.0,0.0,0.0,0.0,0.0,0.0,0.0,0.0,0.0,0.0,0.0,0.0,0.0,0.0,0.0,0.0,0.6973,0.0,0.0,0.0,0.0,0.0,0.0,0.0,0.0,0.0,0.0,0.0,0.0,0.0,0.0,0.0,0.0,0.0,0.0,0.0,0.0,0.0,0.0,0.0,0.0,0.0,0.0,0.0,0.0,0.0,0.0,0.0,0.0,0.0,0.0,0.0,0.0,0.0,0.0,0.0,0.0,0.7862,0.7529,0.7421,0.7875,0.7923,0.7862,0.7712,0.7428,0.7251,0.7258,0.7071,0.0,0.0,0.0,0.0,0.0,0.0,0.0,0.0,0.0,0.0,0.0,0.0,0.0,0.0,0.0,0.0,0.0,0.0,0.0,0.0,0.0,0.0,0.0,0.0,0.0,0.0,0.0,0.0,0.0,0.0,0.0,0.0,0.0,0.0,0.0,0.0,0.0,0.0,0.0,0.0,0.0,0.0,0.0,0.0,0.0,0.0,0.0,0.0,0.0,0.0,0.0,0.0,0.0,0.9289,0.9354,0.9564,0.9408,0.9205,0.8967,0.8845,0.8621,0.8377,0.875,0.0,0.0,0.0,0.0,0.0,0.0,0.0,0.0,0.0,0.0,0.0,0.0,0.0,0.0,0.0,0.0,0.0,0.0,0.0,0.0,0.0,0.0,0.0,0.0,0.7868,0.7848,0.8133,0.0,0.0,0.0,0.0,0.0,0.0,0.0,0.0,0.0,0.0,0.0,0.7934,0.7672,0.757,0.7941,0.7988,0.7928,0.7821,0.7563,0.7346,0.7146,0.7085,0.7085,0.0,0.0,0.0,0.0,0.0,0.0,0.0,0.0,0.0,0.0,0.0,0.0,0.0,0.0,0.0,0.0,0.0,0.0,0.0,0.0,0.0,0.0,0.0,0.0,0.0,0.0,0.0,0.0,0.0,0.0,0.0,0.0,0.7936,0.8262,0.0,0.0,0.0,0.0,0.0,0.0,0.0,0.0,0.0,0.0,0.0,0.0,0.0,0.93,0.9673,0.9693,0.9652,0.9551,0.9551,0.9503,0.9408,0.9309,0.9221,0.918,0.9159,0.0,0.8655,0.8716,0.0,0.0,0.0,0.0,0.0,0.0,0.0,0.0,0.0,0.0,0.0,0.0,0.0,0.0,0.0,0.0,0.0,0.0,0.0,0.0,0.0,0.0,0.7928,0.7719,0.7645,0.7672,0.0,0.7809,0.7746,0.7759,0.7753,0.0,0.0,0.0,0.0,0.0,0.0,0.0,0.7948,0.7767,0.7692,0.7955,0.7988,0.7928,0.7821,0.7665,0.7502,0.7353,0.7102,0.7075,0.7333,0.7231,0.0,0.0,0.0,0.0,0.0,0.0,0.0,0.0,0.0,0.0,0.0,0.0,0.0,0.0,0.0,0.0,0.0,0.0,0.0,0.0,0.0,0.0,0.0,0.0,0.0,0.0,0.0,0.0,0.0,0.814,0.8465,0.8513,0.8838,0.9069,0.0,0.0,0.0,0.0,0.0,0.0,0.0,0.0,0.0,0.933,0.9337,0.9374,0.9571,0.9659,0.9713,0.9727,0.9815,0.9869,0.9883,0.9727,0.9659,0.9652,0.9564,0.9408,0.9198,0.894,0.8825,0.8798,0.0,0.0,0.0,0.0,0.871,0.8716,0.873,0.8628,0.852,0.8737,0.0,0.0,0.0,0.0,0.0,0.0,0.0,0.0,0.0,0.0,0.7955,0.7826,0.7848,0.7862,0.7874,0.7941,0.7988,0.0,0.7988,0.7988,0.7988,0.0,0.0,0.0,0.0,0.7794,0.7961,0.7848,0.7801,0.7968,0.7914,0.7882,0.7814,0.7604,0.7441,0.7419,0.717,0.7058,0.7238,0.7258,0.7366,0.0,0.0,0.0,0.0,0.0,0.0,0.0,0.0,0.0,0.0,0.0,0.0,0.0,0.0,0.0,0.0,0.0,0.0,0.0,0.0,0.0,0.0,0.0,0.0,0.0,0.0,0.0,0.0,0.8445,0.8764,0.8615,0.896,0.9255,0.0,0.0,0.0,0.0,0.0,0.0,0.9049,0.915,0.9357,0.949,0.9496,0.953,0.9612,0.9761,0.989,0.9992,1.0148,1.0283,1.0385,1.0195,1.0107,1.01,0.9944,0.9795,0.9632,0.9218,0.8988,0.8866,0.871,0.8655,0.8662,0.8743,0.8743,0.8723,0.8798,0.8676,0.8513,0.871,0.8594,0.8391,0.8418,0.0,0.0,0.0,0.0,0.8235,0.8029,0.8022,0.8042,0.8002,0.7988,0.7988,0.7988,0.7988,0.7988,0.0,0.7988,0.7988,0.7988,0.0,0.0,0.0,0.0,0.7909,0.7975,0.7887,0.7916,0.7975,0.7887,0.7855,0.7814,0.7577,0.746,0.7419,0.7224,0.7098,0.7098,0.7251,0.7333,0.7419,0.0,0.0,0.0,0.0,0.0,0.0,0.0,0.0,0.0,0.0,0.0,0.0,0.0,0.0,0.0,0.0,0.0,0.0,0.0,0.0,0.0,0.0,0.0,0.0,0.0,0.0,0.0,0.0,0.0,0.8361,0.8927,0.0,0.0,0.0,0.0,0.8892,0.9191,0.9354,0.9361,0.9367,0.9503,0.9788,0.9795,0.9937,1.0236,1.0378,1.0453,1.046,1.0616,1.069,1.069,1.0399,1.027,1.0263,1.0107,0.9889,0.9788,0.9483,0.9354,0.9334,0.9234,0.9173,0.9159,0.8974,0.8832,0.8689,0.8554,0.8492,0.8533,0.8832,0.8818,0.8635,0.8364,0.818,0.0,0.0,0.816,0.8235,0.8029,0.8147,0.8221,0.8022,0.7988,0.7988,0.7988,0.7988,0.7988,0.0,0.7988,0.7988,0.7988,0.0,0.7988,0.7988,0.7982,0.7982,0.7988,0.7982,0.7982,0.7988,0.7982,0.7921,0.7821,0.7672,0.7529,0.7426,0.7224,0.7098,0.7098,0.7105,0.7217,0.7412,0.7426,0.0,0.0,0.0,0.0,0.0,0.0,0.0,0.0,0.0,0.0,0.0,0.0,0.0,0.0,0.0,0.0,0.0,0.0,0.0,0.0,0.0,0.0,0.0,0.0,0.0,0.0,0.0,0.0,0.9239,0.9591,0.0,0.9374,0.9456,0.9442,0.9239,0.9415,0.9564,0.9659,0.9754,0.9944,1.0243,1.0256,1.0351,1.0561,1.0616,1.0636,1.0636,1.0697,1.0717,1.0711,1.0412,1.0283,1.0263,1.0012,0.9869,0.9815,0.9707,0.9551,0.9354,0.911,0.9015,0.9008,0.8905,0.8851,0.8852,0.8798,0.871,0.8628,0.8642,0.8608,0.854,0.8438,0.837,0.8323,0.8323,0.8296,0.8255,0.8201,0.8153,0.8106,0.8002,0.7988,0.7988,0.7988,0.7988,0.7988,0.7988,0.7988,0.7988,0.7988,0.7988,0.7988,0.7988,0.7988,0.7988,0.7988,0.7988,0.7988,0.7988,0.7901,0.7868,0.7814,0.759,0.7428,0.7419,0.7224,0.7098,0.7098,0.7098,0.7125,0.7224,0.7224,0.7272,0.0,0.0,0.0,0.0,0.0,0.0,0.0,0.0,0.0,0.0,0.0,0.0,0.0,0.0,0.0,0.0,0.0,0.0,0.0,0.0,0.0,0.0,0.0,0.0,0.0,0.0,0.949,0.9788,1.0005,1.0025,0.9774,0.9754,0.9693,0.9544,0.972,0.9897,1.0039,1.0141,1.031,1.0561,1.0568,1.0616,1.0717,1.0717,1.0717,1.0717,1.0717,1.0717,1.0711,1.0412,1.0304,1.0337,1.0032,0.9835,0.9835,0.9835,0.9754,0.951,0.9313,0.9148,0.9107,0.9107,0.913,0.9083,0.9028,0.8913,0.8764,0.8608,0.856,0.8547,0.8499,0.8479,0.8479,0.8479,0.8452,0.8397,0.8347,0.8228,0.816,0.8015,0.7988,0.8002,0.8106,0.8029,0.8008,0.8106,0.8022,0.7988,0.7988,0.7988,0.8008,0.8106,0.8022,0.8008,0.8113,0.8022,0.7988,0.7988,0.7901,0.7868,0.7814,0.7631,0.7475,0.7426,0.7278,0.7152,0.7098,0.7146,0.7217,0.7217,0.7227,0.7346,0.7448,0.0,0.0,0.0,0.0,0.0,0.0,0.0,0.0,0.0,0.0,0.0,0.0,0.0,0.0,0.0,0.0,0.0,0.0,0.0,0.0,0.0,0.0,0.0,0.9166,0.9544,0.9829,0.9842,1.0107,1.012,0.968,0.9835,0.9943,0.9856,1.012,1.0351,1.0493,1.05,1.0568,1.0717,1.0717,1.0717,1.0717,1.0717,1.0717,1.0717,1.0717,1.0717,1.0711,1.0419,1.0358,1.0466,1.0112,0.9984,0.9977,0.9977,0.9896,0.9822,0.9822,0.9734,0.9612,0.9605,0.9503,0.9354,0.9262,0.9062,0.8865,0.8764,0.8716,0.8689,0.854,0.8499,0.8499,0.8499,0.8601,0.8648,0.8364,0.8384,0.8404,0.8062,0.8002,0.8092,0.8241,0.8153,0.8092,0.8241,0.8147,0.7988,0.7988,0.7988,0.8092,0.8241,0.8133,0.0,0.8241,0.8133,0.7988,0.7988,0.7988,0.7928,0.7828,0.7814,0.7692,0.7446,0.7419,0.7305,0.7112,0.7285,0.7412,0.7412,0.7516,0.7597,0.7597,0.0,0.0,0.0,0.0,0.0,0.0,0.0,0.0,0.0,0.0,0.0,0.0,0.0,0.0,0.0,0.0,0.0,0.0,0.0,0.0,0.0,0.0,0.9252,0.9591,0.9741,0.9944,1.027,1.048,1.0507,1.027,1.0426,1.0473,1.0317,1.0487,1.0616,1.0656,1.0656,1.0677,1.0717,1.0717,1.0717,1.0717,1.0717,1.0717,1.0717,1.0717,1.0717,1.0711,1.0521,1.0399,1.0331,1.0071,0.9923,0.9883,0.9883,0.9863,0.9822,0.9822,0.9795,0.9734,0.9523,0.9347,0.9268,0.9221,0.9187,0.9069,0.8927,0.8817,0.8811,0.8825,0.8886,0.9002,0.8845,0.8845,0.8832,0.8642,0.8533,0.8438,0.8248,0.8289,0.8343,0.8333,0.8235,0.8221,0.8313,0.8147,0.7988,0.7988,0.7988,0.8002,0.8099,0.8015,0.0,0.8099,0.8015,0.7988,0.7988,0.7988,0.7975,0.7928,0.7875,0.7773,0.7692,0.7489,0.7398,0.7312,0.7244,0.7204,0.7204,0.7461,0.7597,0.0,0.0,0.0,0.0,0.0,0.0,0.0,0.0,0.0,0.0,0.0,0.0,0.0,0.0,0.0,0.0,0.0,0.0,0.0,0.0,0.0,0.0,0.9462,0.9863,1.0154,1.0093,1.0202,1.0711,1.0799,1.0778,1.069,1.0765,1.0751,1.0602,1.067,1.0717,1.0717,1.0717,1.0717,1.0717,1.0717,1.0717,1.0717,1.0717,1.0717,1.0717,1.0717,1.0717,1.0717,1.0561,1.0446,1.0358,1.0141,0.9936,0.9849,0.9849,0.9822,0.0,0.0,0.0,0.0,0.0,0.9429,0.9303,0.9303,0.9164,0.9049,0.8967,0.8885,0.8885,0.8885,0.8994,0.9049,0.8905,0.8885,0.8851,0.875,0.8642,0.854,0.8391,0.8425,0.8479,0.8459,0.8357,0.834,0.835,0.8187,0.0,0.7988,0.7988,0.8008,0.8126,0.8029,0.8015,0.8126,0.8029,0.7988,0.7988,0.7988,0.7988,0.7988,0.7907,0.0,0.0,0.0,0.7468,0.7468,0.7434,0.0,0.0,0.0,0.7753,0.7685,0.0,0.0,0.0,0.7988,0.7988,0.0,0.0,0.0,0.0,0.0,0.0,0.0,0.0,0.0,0.0,0.0,0.0,0.0,0.0,0.0,0.0,1.0046,1.0439,1.0751,1.0568,1.0595,1.1173,1.105,1.09,1.088,1.088,1.082,1.0731,1.0717,1.0717,1.0717,0.0,0.0,0.0,0.0,1.0717,1.0717,1.0717,1.0717,1.0717,1.0717,1.0717,1.0717,1.0582,1.0507,1.0473,1.0195,1.0004,0.9977,0.9883,0.9822,0.9822,0.9822,0.9808,0.9802,0.9815,0.9646,0.9401,0.9388,0.0,0.0,0.8892,0.8885,0.8885,0.8885,0.8892,0.8905,0.8892,0.8898,0.8927,0.8777,0.8737,0.8696,0.8547,0.852,0.856,0.8662,0.8492,0.835,0.8438,0.8241,0.8008,0.7995,0.7988,0.8085,0.8221,0.8126,0.8042,0.8228,0.8126,0.7988,0.7988,0.0,0.0,0.7988,0.7988,0.7934,0.7848,0.7699,0.7617,0.7597,0.7733,0.7801,0.7787,0.7901,0.7914,0.7814,0.7914,0.7988,0.7988,0.7988,0.7988,0.0,0.0,0.0,0.0,0.0,0.0,0.0,0.0,0.0,0.0,0.0,0.0,0.0,0.0,0.0,1.0053,1.0426,1.0785,1.1199,1.1212,1.1172,1.1234,1.1138,1.1077,1.0894,1.088,1.082,1.0731,1.0717,1.0717,1.0717,1.0717,1.0717,1.0717,1.0717,1.0717,1.0717,1.0717,1.0717,1.0717,0.0,0.0,1.0717,1.069,1.0609,1.048,1.031,1.0168,0.9977,0.9883,0.9822,0.9822,0.9822,0.9747,0.9666,0.9781,0.9713,0.9551,0.9422,0.9347,0.9252,0.8959,0.8885,0.8885,0.8885,0.9022,0.0,0.8974,0.9022,0.9076,0.8933,0.8838,0.8804,0.8703,0.8764,0.8791,0.8574,0.8581,0.856,0.835,0.8262,0.8187,0.8008,0.7988,0.8002,0.8029,0.8008,0.8002,0.8029,0.8008,0.7988,0.7988,0.7988,0.7988,0.7988,0.7988,0.7975,0.7948,0.7855,0.7719,0.7604,0.7733,0.7753,0.7645,0.7853,0.7914,0.7814,0.7914,0.7988,0.7988,0.7988,0.7988,0.0,0.0,0.0,0.0,0.0,0.0,0.0,0.0,0.0,0.0,0.0,1.2266,0.0,0.0,1.0107,1.0636,1.1029,1.1328,1.1484,1.1565,1.1558,1.1409,1.1321,1.1246,1.1179,1.1104,1.1023,1.0948,1.0806,1.0751,1.0833,1.0765,1.0717,1.0717,1.0717,1.0717,1.0717,1.0717,1.0717,1.0717,1.0717,1.0717,1.0717,1.0717,1.0636,1.0487,1.0344,1.0195,0.9977,0.9883,0.9822,0.9822,0.9822,0.9774,0.9727,0.9795,0.9734,0.9598,0.9523,0.9395,0.9303,0.9096,0.8994,0.8885,0.8885,0.8988,0.9028,0.8905,0.8988,0.9028,0.8898,0.8885,0.8865,0.8845,0.8824,0.8844,0.8743,0.871,0.8669,0.852,0.8431,0.833,0.818,0.8153,0.8126,0.8002,0.7988,0.7988,0.7988,0.7988,0.7988,0.7988,0.7988,0.7988,0.7988,0.7988,0.7955,0.788,0.7874,0.7862,0.7712,0.7848,0.7889,0.7821,0.7914,0.7955,0.7874,0.7955,0.7988,0.7988,0.7988,0.7988,0.0,0.0,0.0,0.0,0.0,0.0,0.0,0.0,1.7055,1.653,1.5132,1.379,1.3224,1.1731,1.0758,1.1185,1.1599,1.1837,1.1721,1.1803,1.1809,1.164,1.1484,1.1382,1.1348,1.1212,1.1111,1.1077,1.088,1.0739,1.0833,1.0745,1.0751,1.0724,1.0717,1.0717,1.0717,1.0717,1.0717,1.0717,1.0717,1.0717,1.0717,1.0717,1.0656,1.0527,1.0351,1.0175,0.993,0.9869,0.9822,0.9822,0.9822,0.9822,0.9822,0.9822,0.9747,0.9646,0.9618,0.9449,0.9296,0.9262,0.9096,0.8981,0.8981,0.8905,0.8885,0.8885,0.8885,0.8885,0.8885,0.8885,0.8885,0.8885,0.8885,0.8871,0.8844,0.8818,0.8737,0.8676,0.8587,0.8479,0.8388,0.834,0.8214,0.8015,0.7988,0.7988,0.7988,0.7988,0.7988,0.7988,0.7988,0.7988,0.7988,0.7988,0.7934,0.7862,0.7921,0.7934,0.7862,0.7928,0.7988,0.7988,0.7988,0.7988,0.7988,0.7988,0.7988,0.7988,0.7988,0.7988,1.6847,1.6593,1.6576,1.6991,1.6874,1.7114,0.0,0.0,1.9158,1.9304,1.7345,1.5503,1.5096,1.2905,1.1192,1.1518,1.183,1.2033,1.2013,1.2026,1.1932,1.1653,1.1484,1.1341,1.1199,1.1056,1.0847,1.0778,1.0799,1.0806,1.0751,1.0793,1.0793,1.0724,1.0717,1.0717,1.0717,1.0717,1.0717,1.0717,1.0717,1.0717,1.0717,1.0717,1.0711,1.0677,1.0399,1.0114,0.9842,0.9829,0.9822,0.9822,0.9822,0.9822,0.9822,0.9822,0.9808,0.9781,0.9652,0.9585,0.9537,0.9401,0.9309,0.9187,0.9187,0.9042,0.8885,0.8885,0.8885,0.8885,0.8885,0.8885,0.8885,0.8885,0.8885,0.8844,0.8764,0.8832,0.8832,0.856,0.8601,0.8635,0.8486,0.835,0.8214,0.8015,0.7988,0.7988,0.7988,0.7988,0.7988,0.7988,0.7988,0.7988,0.7988,0.7988,0.7982,0.7968,0.7982,0.7982,0.7968,0.7982,0.7988,0.7988,0.7988,0.7988,0.7988,0.7988,0.7988,0.7988,0.7988,0.7988,1.678,1.686,1.7099,0.0,1.7755,1.845,1.9256,1.9626,2.0,2.0468,1.9054,1.7413,1.6394,1.4544,1.2975,0.0,1.2121,1.2291,1.2203,1.204,1.185,1.1647,1.1335,1.1145,1.1158,1.1029,1.0995,1.1104,1.1009,1.0955,1.0975,1.0962,1.0813,1.0724,1.0717,1.0717,1.0717,1.0717,1.0717,1.0717,1.0717,1.0717,1.0717,1.0717,1.067,1.0582,1.046,1.0229,0.9889,0.9889,0.9842,0.9822,0.9822,0.9822,0.9822,0.9822,0.9822,0.9815,0.9754,0.968,0.9598,0.9537,0.9408,0.9344,0.9344,0.9245,0.9198,0.9198,0.9198,0.9198,0.9198,0.9198,0.9198,0.9198,0.9198,0.9178,0.9117,0.9083,0.9022,0.8954,0.8859,0.8798,0.8642,0.8567,0.8445,0.8208,0.8099,0.7988,0.7988,0.7988,0.7988,0.7988,0.7988,0.7988,0.7988,0.7988,0.7988,0.7988,0.7988,0.7988,0.7988,0.7988,0.7988,0.7988,0.7988,0.7988,0.7988,0.7988,0.7988,0.7988,0.7988,0.8085,1.6847,0.0,0.0,1.7889,1.8867,1.9786,2.0027,2.0481,2.0975,2.1483,1.9895,1.8284,1.7665,1.5548,1.3623,1.2853,1.2546,1.2406,1.2305,1.2026,1.1762,1.1579,1.1158,1.0928,1.1029,1.0948,1.0975,1.1192,1.1084,1.1016,1.1036,1.1023,1.0921,1.0724,1.0717,1.0717,1.0717,1.0717,1.0717,1.0717,1.0717,1.0717,1.0717,1.0717,1.0636,1.0493,1.0493,1.0351,1.0051,1.0051,1.0019,0.9883,0.9883,0.9856,0.9822,0.9822,0.9822,0.9822,0.9822,0.9754,0.9666,0.9666,0.9564,0.9442,0.9442,0.9415,0.9381,0.9381,0.9381,0.9381,0.9381,0.9381,0.9381,0.9381,0.9381,0.9381,0.9381,0.935,0.9262,0.9221,0.9069,0.8947,0.8798,0.8737,0.8635,0.8425,0.8262,0.8083,0.8002,0.7988,0.7988,0.7988,0.7988,0.7988,0.7988,0.7988,0.7988,0.7988,0.7988,0.7988,0.7988,0.7988,0.8008,0.8099,0.8106,0.8106,0.8106,0.8106,0.8106,0.8106,0.8106,0.8187,0.0,0.0,1.7929,1.9359,2.0174,2.0855,2.171,2.2138,2.2432,2.2739,1.9736,1.7581,1.9187,1.5228,1.2237,1.4035,1.32,1.2298,1.2291,1.2026,1.1721,1.1436,1.1002,1.0731,0.0,1.0731,1.0731,1.0738,1.0995,1.1029,1.0751,1.1002,1.1023,1.0731,1.0717,1.0717,1.0717,1.0717,1.0717,1.0717,1.0717,1.0717,1.0717,1.0717,1.0636,1.0493,1.0493,1.0412,1.0276,1.0276,1.0181,0.9977,0.9977,0.9889,0.9822,0.9822,0.9822,0.9822,0.9822,0.9815,0.9815,0.9815,0.972,0.9605,0.9605,0.9496,0.9381,0.9381,0.9381,0.9381,0.9381,0.9381,0.9381,0.9381,0.9381,0.9381,0.9381,0.9374,0.9334,0.9234,0.9207,0.9103,0.8898,0.8811,0.871,0.8696,0.8567,0.8364,0.8029,0.7988,0.7988,0.7988,0.7988,0.7988,0.7988,0.7988,0.7988,0.7988,0.7988,0.7988,0.7988,0.7988,0.8113,0.8313,0.8313,0.8313,0.8313,0.8313,0.8313,0.8313,0.8313,0.8336,0.0,0.0,1.9559,2.0441,2.1403,2.2258,2.2766,2.2953,2.2635,2.1402,1.9709,1.784,1.5916,1.4048,1.2717,1.2315,1.224,1.2101,1.1999,1.1898,1.1681,1.1287,1.1023,0.0,0.0,0.0,0.0,1.0989,1.1104,1.1165,1.1165,1.126,1.1219,1.1023,1.0921,1.0806,1.0806,1.0772,1.0717,1.0717,1.0717,1.0717,1.0717,1.0717,1.069,1.0643,1.0643,1.0561,1.0419,1.0419,1.0276,0.9984,0.9984,0.9896,0.9822,0.9822,0.9822,0.9822,0.9822,0.9822,0.9822,0.9822,0.9788,0.9747,0.9747,0.9713,0.9673,0.9673,0.9673,0.9673,0.9673,0.9673,0.9673,0.9673,0.9673,0.9673,0.9673,0.9598,0.9517,0.9462,0.9374,0.9259,0.9103,0.9035,0.894,0.8743,0.8499,0.8303,0.8208,0.8106,0.7988,0.7988,0.7988,0.7988,0.7988,0.7988,0.7988,0.7988,0.7988,0.7988,0.7988,0.814,0.8214,0.832,0.8364,0.8411,0.8411,0.8411,0.8411,0.8411,0.8411,0.8492,0.0,1.9679,2.0922,2.183,2.2712,2.3394,2.3594,2.3474,2.268,2.0561,1.9352,1.7731,1.4648,1.3428,1.2586,1.1903,1.1621,1.1538,1.1653,1.1579,1.145,1.1267,1.1023,1.0867,0.0,0.0,0.0,1.0982,1.1151,1.124,1.1233,1.1335,1.1321,1.1165,1.107,1.1002,1.088,1.0786,1.0772,1.0717,1.0717,1.0717,1.0717,1.0717,1.0717,1.0717,1.0717,1.0663,1.0575,1.0575,1.0399,1.0134,1.0134,1.0005,0.9822,0.9822,0.9856,0.9897,0.9842,0.9822,0.9822,0.9822,0.9822,0.9822,0.9822,0.9822,0.9822,0.9822,0.9822,0.9822,0.9822,0.9822,0.9822,0.9822,0.9822,0.9822,0.9822,0.9747,0.9673,0.9618,0.953,0.9395,0.9248,0.9166,0.9015,0.8818,0.8581,0.8391,0.8333,0.8133,0.7988,0.7988,0.7988,0.7988,0.7988,0.7988,0.8015,0.8119,0.8022,0.8015,0.8119,0.8214,0.8347,0.8395,0.8486,0.856,0.856,0.856,0.856,0.856,0.856,0.8648,2.0267,2.1266,2.2097,2.346,2.4022,2.4222,2.4195,2.3688,2.2566,2.0197,1.8562,1.6983,0.0,0.0,1.1971,1.2727,1.1618,1.0857,1.1307,1.1158,1.109,0.0,0.0,0.0,0.0,0.0,0.0,1.0744,0.0,1.1267,1.0927,1.1246,1.1335,1.1192,1.1179,1.1111,1.0907,1.0887,1.0806,1.0717,1.0717,1.0717,1.0717,1.0717,1.0717,1.0717,1.0717,1.0717,1.0717,1.0717,1.0548,1.0283,1.0283,1.0093,0.9822,0.9822,0.9849,0.9957,0.9869,0.9829,0.9829,0.9822,0.9822,0.9822,0.9822,0.9822,0.9822,0.9822,0.9822,0.9822,0.9822,0.9822,0.9822,0.9822,0.9822,0.9822,0.9822,0.9822,0.9781,0.9646,0.9612,0.9517,0.9282,0.9049,0.8892,0.8892,0.8811,0.8608,0.833,0.8153,0.8002,0.8008,0.8008,0.8002,0.8008,0.8015,0.8126,0.8327,0.814,0.8119,0.8327,0.8333,0.835,0.8492,0.8642,0.8723,0.8723,0.8723,0.8723,0.8723,0.8723,0.8798,2.1296,2.2565,2.3674,2.4262,2.4476,2.4409,2.3981,2.2913,2.1346,1.8996,1.7256,1.5588,0.0,0.0,0.0,1.2331,1.254,0.0,1.1559,1.1518,0.0,1.1409,0.0,1.1253,1.1328,1.1267,0.0,0.0,1.1158,1.1287,1.1436,1.1518,1.1545,1.1504,1.1396,1.1314,1.128,1.0988,1.0806,1.0717,1.0717,1.0717,1.0717,1.0717,1.0717,1.0717,1.0717,1.0717,1.0717,1.0717,1.0548,1.0283,1.0283,1.0093,0.9822,0.9822,0.9842,0.9876,0.9836,0.9835,0.9909,0.9856,0.9822,0.9822,0.9822,0.9822,0.9822,0.9822,0.9822,0.9822,0.9822,0.9822,0.9822,0.9822,0.9822,0.9822,0.9822,0.9822,0.9808,0.9774,0.968,0.9585,0.9503,0.9273,0.9096,0.9096,0.8879,0.8682,0.8608,0.837,0.8255,0.8357,0.8275,0.8255,0.8357,0.837,0.8384,0.8425,0.8289,0.8275,0.8425,0.8425,0.8499,0.8648,0.8804,0.8824,0.8824,0.8824,0.8824,0.8824,0.8824,0.8844,2.2752,2.3848,2.4663,2.4943,2.473,2.4195,2.3207,2.2044,2.0404,1.7673,1.6685,0.0,0.0,0.0,0.0,0.0,0.0,0.0,1.1276,1.1396,1.1552,0.0,1.1586,0.0,1.1681,1.1626,1.1579,0.0,1.1436,1.1409,1.1511,1.1586,1.1619,1.1619,1.1538,1.1457,1.1389,1.1097,1.084,1.0819,1.0751,1.0717,1.0717,1.0717,1.0717,1.0717,0.0,1.0717,1.0717,1.0717,1.0582,1.0365,1.0304,1.0175,1.0012,0.9944,1.0005,1.0093,0.9964,1.0019,1.0114,0.989,0.9822,0.9822,0.9822,0.9869,0.9849,0.9842,0.9869,0.9842,0.9836,0.9822,0.9822,0.9822,0.9822,0.9822,0.9822,0.9822,0.9822,0.9822,0.9707,0.9612,0.9612,0.9408,0.9289,0.9221,0.9064,0.8879,0.8818,0.8547,0.8391,0.8472,0.8411,0.8397,0.8472,0.8479,0.8513,0.8581,0.8445,0.8431,0.8574,0.8581,0.8621,0.871,0.892,0.9001,0.8885,0.9001,0.9001,0.8885,0.9001,0.9001,2.4356,2.5024,2.5304,2.5518,2.485,2.3683,2.2058,2.0996,1.9548,1.6453,0.0,1.6138,1.3192,1.284,1.2631,1.1578,0.0,1.0801,1.0961,1.1338,1.1657,1.1809,1.1864,1.1925,1.2081,1.1952,1.1918,1.2128,1.1823,1.1619,1.1484,1.1586,1.164,1.1619,1.1619,1.1545,1.1396,1.1118,1.09,1.088,1.0725,1.0717,1.0717,1.0717,1.0717,1.0717,1.0717,1.0717,1.0717,1.0717,1.0629,1.048,1.0358,1.0297,1.0263,1.0127,1.0243,1.0426,1.0168,1.0168,1.0229,0.9924,0.9822,0.9822,0.9842,0.9883,0.9963,0.9917,0.9978,0.999,0.9917,0.9883,0.9883,0.9883,0.9883,0.9883,0.9883,0.9863,0.9842,0.9822,0.972,0.9639,0.9639,0.951,0.9367,0.9289,0.9255,0.9137,0.9015,0.8716,0.852,0.854,0.8526,0.852,0.854,0.854,0.8601,0.873,0.8594,0.8581,0.8737,0.8723,0.873,0.8771,0.9077,0.9103,0.8939,0.9123,0.9117,0.8946,0.9123,0.9117,2.5384,2.5945,2.6119,2.5932,2.485,2.3166,2.0605,1.9447,0.0,0.0,0.0,1.5875,1.529,1.559,1.5307,1.3403,0.0,0.0,0.0,0.0,1.3292,0.0,0.0,0.0,0.0,0.0,0.0,0.0,0.0,1.1972,1.1945,1.185,1.1742,1.1619,1.1619,1.1545,1.1396,1.1212,1.1063,1.088,1.0725,1.0717,1.0717,1.0717,1.0717,1.0717,1.0717,0.0,1.0717,1.0717,1.0629,1.0487,1.0466,1.0385,1.0276,1.0249,1.027,1.031,1.0256,1.0256,1.0229,0.9924,0.9822,0.9842,0.9909,0.9963,1.0011,1.0175,1.0222,1.0236,1.0209,1.0202,1.0202,1.0202,1.0202,1.0202,1.0202,1.01,0.9909,0.9842,0.9802,0.9781,0.9781,0.9666,0.9557,0.9537,0.9422,0.9334,0.9306,0.8933,0.8716,0.8845,0.8743,0.8723,0.8797,0.8804,0.8817,0.8844,0.8757,0.8737,0.8838,0.8777,0.8825,0.9125,0.918,0.9262,0.9306,0.9327,0.9327,0.9306,0.9327,0.9327,2.5865,2.6386,2.6547,2.6253,2.485,2.2921,2.0477,0.0,0.0,0.0,1.5677,1.5784,1.5784,0.0,0.0,0.0,0.0,0.0,0.0,0.0,0.0,0.0,0.0,0.0,0.0,0.0,0.0,0.0,0.0,1.2223,1.2149,1.1911,1.1769,1.1626,1.1619,1.1586,1.1511,1.128,1.1131,1.1056,1.0833,1.0717,1.0717,1.0717,1.0717,1.0717,1.0717,1.0717,1.0717,1.0717,1.0677,1.0602,1.0521,1.05,1.05,1.0419,1.0439,1.05,1.0419,1.0392,1.0351,1.0134,1.0005,0.9909,1.012,1.0168,1.0181,1.0256,1.0331,1.0371,1.0297,1.0283,1.0283,1.0283,1.0283,1.0283,1.0283,1.0222,1.0148,1.0073,0.9998,0.9876,0.9876,0.9815,0.9693,0.9618,0.9544,0.9469,0.9395,0.9191,0.9055,0.9049,0.9055,0.9055,0.9049,0.9049,0.9049,0.9049,0.8981,0.8974,0.9049,0.9055,0.913,0.9323,0.9347,0.9388,0.9381,0.9462,0.9456,0.9381,0.9462,0.9456,2.6159,2.6653,2.6734,2.6386,2.4703,2.2538,2.0217,1.8704,0.0,0.0,1.5629,1.5784,1.5784,0.0,0.0,0.0,0.0,0.0,0.0,0.0,0.0,0.0,0.0,0.0,0.0,0.0,0.0,0.0,0.0,1.2372,1.2081,1.1945,1.1796,1.1626,1.1619,1.1619,1.1619,1.1348,1.1212,1.1206,1.0941,1.0799,1.0772,1.0772,1.0751,1.0717,1.0717,1.0717,1.0717,1.0717,1.0717,1.0711,1.0588,1.0616,1.0704,1.0582,1.0616,1.0704,1.0582,1.0541,1.0521,1.0412,1.0249,1.0127,1.0283,1.0324,1.0331,1.0365,1.0453,1.0514,1.0405,1.0378,1.0378,1.0378,1.0378,1.0365,1.0331,1.0324,1.0317,1.0283,1.0181,1.0038,1.0038,0.9909,0.9829,0.972,0.968,0.9612,0.949,0.9476,0.9415,0.9323,0.9327,0.9334,0.9268,0.9262,0.9262,0.9262,0.9262,0.9262,0.9262,0.932,0.9395,0.9429,0.9551,0.9564,0.9476,0.9598,0.9591,0.9476,0.9598,0.9591,2.6466,2.68,2.6694,2.6132,2.4235,2.1687,1.868,0.0,0.0,1.4534,1.4997,1.5784,1.5784,1.5729,1.5437,0.0,0.0,0.0,0.0,0.0,0.0,0.0,0.0,0.0,0.0,0.0,0.0,0.0,0.0,1.2372,1.2081,1.2047,1.1911,1.1626,1.1619,1.1619,1.1619,1.1457,1.1369,1.1369,1.1199,1.1056,1.086,1.086,1.0853,1.0717,1.0717,1.0717,0.0,1.0717,1.0717,1.0717,1.0704,1.0711,1.0717,1.0704,1.0711,1.0717,1.0704,1.0697,1.0697,1.0683,1.0487,1.0283,1.0426,1.0473,1.05,1.0643,1.069,1.0697,1.0683,1.0677,1.0677,1.0677,1.0677,1.0643,1.05,1.0473,1.0432,1.0304,1.027,1.0256,1.0256,1.0134,0.9963,0.995,0.9829,0.9795,0.9781,0.9781,0.9727,0.9585,0.9456,0.9374,0.9361,0.9361,0.9361,0.9361,0.9361,0.9361,0.9361,0.9374,0.9449,0.9585,0.9605,0.9666,0.9781,0.9795,0.9795,0.9781,0.9795,0.9795,2.5611,2.6413,2.664,2.5879,2.4035,2.1819,1.9507,0.0,0.0,1.5319,1.5439,1.5784,1.5784,1.5784,1.5447,0.0,0.0,0.0,0.0,0.0,0.0,0.0,0.0,0.0,0.0,0.0,0.0,0.0,0.0,1.2372,1.2081,1.2135,1.1925,1.1626,1.1619,1.1619,1.1619,1.147,1.1389,1.1389,1.124,1.109,1.088,1.088,1.0799,1.0717,1.0717,1.0717,0.0,1.0717,1.0717,1.0717,1.0717,1.0717,1.0717,1.0717,1.0717,1.0717,1.0717,1.0717,1.0717,1.0717,1.0643,1.0555,1.0616,1.0568,1.0521,1.0677,1.0717,1.0717,1.0717,1.0717,1.0717,1.0717,1.0717,1.0704,1.0643,1.0629,1.0616,1.0555,1.0473,1.0405,1.0405,1.0283,1.0188,1.0188,1.0134,1.0066,0.9909,0.9896,0.9842,0.9754,0.968,0.9612,0.9523,0.9517,0.9517,0.9517,0.9517,0.9557,0.9639,0.9646,0.972,0.9808,0.9781,0.9768,0.9822,0.9822,0.9822,0.9822,0.9822,0.9822,2.4436,2.5571,2.6119,2.5317,2.3634,2.1697,0.0,0.0,1.6794,1.5992,1.5784,1.5784,1.5784,1.5784,1.5391,0.0,0.0,0.0,0.0,0.0,0.0,0.0,0.0,0.0,0.0,0.0,0.0,0.0,1.2501,1.2393,1.2142,1.2088,1.1925,1.1626,1.1619,1.1619,1.1619,1.1511,1.1457,1.1457,1.1348,1.1199,1.1009,1.1009,1.0907,1.0717,1.0717,1.0717,0.0,1.0717,1.0717,1.0717,1.0717,1.0717,1.0717,1.0717,1.0717,1.0717,1.0717,1.0717,1.0717,1.0717,1.0717,1.0717,1.0717,1.0643,1.0582,1.069,1.0717,1.0717,1.0717,1.0717,1.0717,1.0717,1.0717,1.0717,1.0717,1.0717,1.0717,1.0717,1.0629,1.0561,1.0561,1.0439,1.0344,1.0344,1.031,1.0243,1.0134,1.0114,1.0059,0.9903,0.989,0.9829,0.9686,0.9673,0.9673,0.9673,0.9713,0.9781,0.9883,0.989,0.9876,0.9984,0.9897,0.9822,0.9822,0.9822,0.9822,0.9822,0.9822,0.9822,2.3033,2.4209,2.4957,2.4369,2.2873,2.1096,0.0,0.0,1.654,1.5952,1.5784,1.5784,1.5784,1.5784,1.5391,1.4124,0.0,0.0,0.0,0.0,0.0,0.0,0.0,0.0,0.0,0.0,0.0,0.0,1.2501,0.0,1.2298,1.2142,1.1925,1.1626,1.1619,1.1619,1.1619,1.1619,1.1619,1.1619,1.1613,1.1457,1.1227,1.1227,1.1002,1.0717,1.0717,1.0717,0.0,1.0717,1.0717,1.0717,1.0717,1.0717,1.0717,1.0717,1.0717,1.0717,1.0717,1.0717,1.0717,1.0717,1.0717,1.0717,1.0717,1.0717,1.0717,1.0717,1.0717,1.0717,1.0717,1.0717,1.0717,1.0717,1.0717,1.0717,1.0717,1.0717,1.0717,1.0717,1.0717,1.0717,1.0717,1.0588,1.0487,1.0487,1.0371,1.0283,1.0276,1.0276,1.0215,1.0004,0.9984,0.9923,0.9829,0.9822,0.9822,0.9822,0.9903,0.9984,0.9984,0.9984,0.9984,0.9984,0.9897,0.9822,0.9822,0.9822,0.9822,0.9822,0.9822,0.9822,2.0895,2.1777,2.2218,2.163,2.0615,1.9452,1.8277,0.0,1.6299,1.5912,1.5784,1.5784,1.5784,1.5784,1.5187,1.3311,0.0,0.0,0.0,0.0,0.0,0.0,0.0,0.0,0.0,0.0,0.0,0.0,1.2501,1.2393,1.2149,1.2088,1.1972,1.1769,1.1674,1.1619,1.1619,1.1619,1.1619,1.1619,1.1511,1.1355,1.1227,1.1063,1.0907,1.0717,1.0717,1.0717,1.0717,1.0717,1.0717,1.0717,1.0717,1.0717,1.0717,1.0717,1.0717,1.0717,1.0717,1.0717,1.0717,1.0717,1.0717,1.0717,1.0717,1.0717,1.0717,1.0717,1.0717,1.0717,1.0717,1.0717,1.0717,1.0717,1.0717,1.0717,1.0717,1.0717,1.0717,1.0717,1.0717,1.0717,1.0717,1.0677,1.0649,1.0649,1.0609,1.0541,1.0439,1.0426,1.0371,1.0222,1.0209,1.01,0.9842,0.9822,0.9822,0.9822,0.9869,0.9992,1.0202,1.0005,0.9992,1.0202,0.9951,0.9822,0.9822,0.9822,0.9822,0.9822,0.9822,0.9822,0.0,1.9987,2.0508,2.0027,1.9332,0.0,0.0,0.0,1.6192,1.5885,1.5784,1.5784,1.5784,1.5391,1.4631,1.3308,0.0,0.0,0.0,0.0,0.0,0.0,0.0,0.0,0.0,0.0,0.0,1.2501,1.2501,1.24,1.2162,1.2094,1.1993,1.1837,1.1694,1.1619,1.1619,1.1619,1.1619,1.1619,1.1463,1.1307,1.1158,1.1016,1.0799,1.0717,1.0717,1.0717,0.0,1.0717,1.0717,1.0717,1.0717,1.0717,1.0717,1.0717,1.0717,1.0717,1.0717,1.0717,1.0717,1.0717,1.0717,1.0717,1.0717,1.0717,1.0717,1.0717,1.0717,1.0717,1.0717,1.0717,1.0717,1.0717,1.0717,1.0717,1.0717,1.0717,1.0717,1.0717,1.0717,1.0717,1.0717,1.0717,1.0717,1.0717,1.0717,1.0683,1.0588,1.0575,1.0521,1.0378,1.0358,1.0263,1.0012,0.9937,0.9849,0.9849,0.9964,1.0053,1.0188,1.0114,1.0114,1.0188,1.0005,0.9876,0.9822,0.9876,0.9849,0.9849,0.9849,0.9849,0.0,0.0,0.0,0.0,0.0,0.0,0.0,0.0,0.0,0.0,1.5784,1.5798,1.5838,1.4796,1.3931,1.4025,0.0,0.0,0.0,0.0,0.0,0.0,0.0,0.0,0.0,0.0,1.2501,1.2501,1.2494,1.2427,1.2284,1.2128,1.1972,1.1823,1.1687,1.1619,1.1619,1.1606,1.1606,1.1599,1.1436,1.1287,1.1145,1.0995,1.0786,0.0,1.0731,1.0731,1.0717,1.0731,1.0731,1.0717,1.0717,1.0717,1.0717,1.0717,1.0717,1.0717,1.0717,1.0717,1.0717,1.0717,1.0717,1.0717,1.0717,1.0717,1.0717,1.0717,1.0717,1.0717,1.0717,1.0717,1.0717,1.0717,1.0717,1.0717,1.0717,1.0717,1.0717,1.0717,1.0717,1.0717,1.0717,1.0717,1.0717,1.0717,1.0717,1.0717,1.0717,1.0717,1.0663,1.0521,1.0507,1.0453,1.0324,1.0148,0.9984,0.9984,1.0175,1.0188,0.999,1.031,1.0337,1.0011,0.999,0.9923,0.9856,0.9923,0.999,1.0004,0.999,0.9984,1.6197,0.0,1.669,1.6673,1.6553,0.0,0.0,0.0,0.0,0.0,0.0,0.0,0.0,0.0,0.0,0.0,0.0,0.0,0.0,0.0,0.0,0.0,0.0,0.0,0.0,0.0,1.2501,1.2501,1.24,1.2277,1.2121,1.1972,1.1816,1.1674,1.164,1.1619,1.1619,1.1504,1.1443,1.1443,1.1179,1.1036,1.0995,1.0846,1.0751,1.0724,1.0846,1.0759,1.0731,1.0779,1.0759,1.0717,1.0717,1.0717,1.0717,1.0717,1.0717,1.0717,1.0717,1.0717,1.0717,1.0717,1.0717,1.0717,1.0717,1.0717,1.0717,1.0717,1.0717,1.0717,1.0717,1.0717,1.0717,1.0717,1.0717,1.0717,1.0717,1.0717,1.0717,1.0717,1.0717,1.0717,1.0717,1.0717,1.0717,1.0717,1.0717,1.0717,1.0717,1.0717,1.0704,1.067,1.0663,1.0656,1.0622,1.0206,0.9984,0.9984,0.9971,0.9964,0.9984,1.0051,1.0175,1.0222,1.0107,1.0093,1.0175,1.0093,1.0107,1.0222,1.0044,0.9984,1.5824,1.5925,1.6032,1.6032,1.6032,1.6032,0.0,0.0,0.0,0.0,0.0,0.0,0.0,0.0,0.0,0.0,0.0,0.0,0.0,0.0,0.0,0.0,0.0,0.0,0.0,0.0,1.2474,1.2413,1.2332,1.2196,1.1965,1.1877,1.1769,1.1626,1.1619,1.1619,1.1619,1.147,1.1389,1.1389,1.109,1.088,1.0873,1.0792,1.0717,1.0724,1.0806,1.0799,1.0724,1.0812,1.0799,1.0717,1.0717,1.0717,1.0717,1.0717,1.0717,1.0717,1.0717,1.0717,1.0717,1.0717,1.0765,1.0759,1.0759,1.0873,1.0894,1.0758,1.0717,1.0717,1.0717,1.0717,1.0717,1.0717,1.0717,1.0717,1.0717,1.0717,1.0717,1.0717,1.0717,1.0717,1.0717,1.0717,1.0717,1.0717,1.0717,1.0717,1.0717,1.0717,1.0717,1.0717,1.0717,1.0717,1.0717,1.0432,1.0256,1.0256,1.0175,1.0134,1.0154,1.0283,1.0365,1.0378,1.0229,1.0195,1.0283,1.0263,1.0297,1.0378,1.029,1.0256,1.6019,1.6206,1.6433,1.6246,1.6246,1.6308,0.0,0.0,0.0,0.0,0.0,0.0,0.0,0.0,0.0,0.0,0.0,0.0,0.0,0.0,0.0,0.0,0.0,0.0,1.2811,1.2608,1.242,1.2298,1.2244,1.2108,1.1843,1.1809,1.1735,1.1592,1.1606,1.1599,1.1552,1.1423,1.1355,1.1355,1.1056,1.0847,1.084,1.0778,1.0717,1.0724,0.0,0.0,1.0724,1.0744,1.0744,1.0717,1.0717,1.0717,1.0717,1.0717,1.0731,1.0758,1.0758,1.0738,1.0717,1.0717,1.0759,1.088,1.0853,1.1029,1.1104,1.0833,1.0758,1.0758,1.0758,1.0738,1.0717,1.0717,1.0717,1.0717,1.0717,1.0717,1.0724,1.0751,1.0738,1.0724,1.0751,1.0738,1.0731,1.0751,1.0758,1.0758,1.0758,1.0758,1.0744,1.0724,1.0717,1.0717,1.0717,1.0602,1.0527,1.0527,1.0487,1.0419,1.0317,1.0555,1.0636,1.0527,1.0385,1.0324,1.0344,1.0446,1.0507,1.0527,1.05,1.0493,1.6513,1.6967,1.7141,1.6139,1.6086,1.6206,0.0,0.0,0.0,0.0,0.0,0.0,0.0,0.0,0.0,0.0,0.0,0.0,0.0,0.0,0.0,0.0,0.0,1.3056,1.4231,1.3144,1.2311,1.2291,1.2047,1.1877,1.183,1.1714,1.1586,1.143,1.1552,1.1497,1.1233,1.1212,1.1199,1.1261,1.0894,1.0758,1.0758,1.0731,1.0717,1.0724,0.0,1.0772,1.0731,1.0793,1.0772,1.0717,1.0717,1.0717,1.0717,1.0717,1.0806,1.0847,1.0847,1.0759,1.0717,1.0717,1.0759,1.0853,1.0792,1.0948,1.1124,1.0962,1.0847,1.0847,1.0847,1.0819,1.0717,1.0717,1.0717,1.0717,1.0717,1.0717,1.0758,1.082,1.0806,1.0758,1.0826,1.0806,1.0765,1.0826,1.0847,1.0847,1.0847,1.0847,1.0799,1.0731,1.0717,1.0717,1.0717,1.0697,1.0683,1.0683,1.0453,1.0358,1.0453,1.05,1.0575,1.0683,1.0534,1.0521,1.0649,1.0548,1.0561,1.0683,1.0555,1.0493,1.6473,1.6673,1.678,1.6393,1.6767,1.7114,0.0,0.0,0.0,0.0,0.0,0.0,0.0,0.0,0.0,0.0,0.0,0.0,0.0,0.0,0.0,0.0,0.0,1.2526,1.3304,1.2696,1.2135,1.2047,1.1837,1.1714,1.1714,1.1497,1.1416,1.1511,1.1423,1.1348,1.1287,1.1124,1.105,1.1043,1.0826,1.0717,1.0717,1.0717,1.0717,1.0724,0.0,1.0785,1.0724,1.0799,1.0785,1.0717,1.0717,1.0717,1.0717,1.0717,1.0765,1.0759,1.0759,1.0778,1.0731,1.0752,1.0826,1.088,1.0955,1.1111,1.1274,1.1206,1.1131,1.1063,1.1063,1.1009,1.0962,1.0962,1.0962,1.0962,1.0962,1.0962,1.0982,1.105,1.1009,1.0982,1.105,1.1009,1.0982,1.1056,1.1063,1.1063,1.1063,1.0995,1.0853,1.0786,1.0772,1.0717,1.0717,1.0717,1.0717,1.0717,1.0595,1.0548,1.0616,1.0616,1.0649,1.0717,1.0649,1.0649,1.0717,1.0649,1.0649,1.0717,1.0649,1.0616,1.642,1.642,1.6563,1.666,0.0,0.0,0.0,0.0,0.0,0.0,0.0,0.0,0.0,0.0,0.0,0.0,0.0,0.0,0.0,0.0,1.1907,1.2524,1.2178,1.1979,1.2216,1.2067,1.1911,1.1789,1.1613,1.1511,1.1511,1.1294,1.1253,1.1457,1.1267,1.1185,1.1233,1.1043,1.088,1.088,1.0725,1.0717,1.0717,1.0717,1.0717,1.0717,1.0717,1.0717,1.0717,1.0717,1.0717,1.0717,1.0717,1.0717,1.0724,1.0758,1.0751,1.0724,1.0758,1.0772,1.0792,1.084,1.0927,1.1063,1.1097,1.1267,1.143,1.1355,1.1307,1.126,1.1226,1.1192,1.1234,1.1234,1.1234,1.1234,1.1234,1.1234,1.1241,1.1206,1.1185,1.1241,1.1212,1.1185,1.1241,1.1212,1.1212,1.1212,1.1212,1.1118,1.0961,1.0887,1.0846,1.0758,1.0724,1.0717,1.0717,1.0717,1.0717,1.0717,1.0717,1.0717,1.0717,1.0717,1.0717,1.0717,1.0717,1.0717,1.0717,1.0717,1.0717,1.0717,1.6607,1.6874,1.7072,1.6767,1.6553,0.0,1.809,1.7956,0.0,1.9068,0.0,0.0,0.0,0.0,0.0,0.0,0.0,0.0,0.0,0.0,1.277,1.4605,1.3215,1.2054,1.2074,1.1816,1.1647,1.1633,1.1362,1.1199,1.1199,1.1241,1.1111,1.0934,1.1104,1.1036,1.0772,1.082,1.088,1.088,1.0725,1.0717,1.0717,1.0717,1.0717,1.0717,1.0717,1.0717,1.0717,1.0717,1.0717,1.0717,1.0717,1.0717,1.0738,1.0813,1.0839,1.0744,1.0813,1.0867,1.0867,1.088,1.1131,1.1307,1.1043,1.126,1.1545,1.126,1.1375,1.1552,1.1409,1.1267,1.1234,1.1234,1.1234,1.1234,1.1234,1.1234,1.1275,1.1348,1.126,1.1206,1.1348,1.126,1.1212,1.1355,1.1375,1.1375,1.1375,1.1369,1.1253,1.0907,1.0873,1.0806,1.0731,1.0717,1.0717,1.0717,1.0717,1.0717,1.0717,1.0717,1.0717,1.0717,1.0717,1.0717,1.0717,1.0717,1.0717,1.0717,1.0717,1.0717,1.6406,1.6831,1.7179,1.7058,1.7085,0.0,0.0,1.8731,1.9199,2.0013,1.9717,0.0,0.0,0.0,0.0,0.0,0.0,0.0,0.0,1.4652,1.3629,1.3088,1.2353,1.1884,1.1796,1.1599,1.1436,1.1341,1.1145,1.107,1.1158,1.0989,1.0948,1.1077,1.0955,1.088,1.0793,1.0759,1.0806,1.0806,1.0751,1.0717,1.0717,1.0717,1.0717,1.0717,1.0717,1.0717,1.0717,1.0717,1.0717,1.0717,1.0717,1.0717,1.0724,1.0785,1.0772,1.0731,1.0785,1.0799,1.0894,1.105,1.1158,1.1246,1.1226,1.1341,1.145,1.1335,1.1457,1.1606,1.1545,1.1491,1.145,1.145,1.145,1.145,1.145,1.145,1.1463,1.1518,1.1484,1.1463,1.1525,1.1484,1.1463,1.1525,1.1531,1.1531,1.1531,1.145,1.1348,1.1233,1.0988,1.086,1.0799,1.0772,1.0758,1.0786,1.0772,1.0717,1.0717,1.0717,1.0717,1.0717,1.0717,1.0717,1.0717,1.0717,1.0717,1.0717,1.0717,1.0717,1.6126,1.642,1.678,1.7018,0.0,0.0,1.8704,1.9372,2.0094,2.1149,2.0605,0.0,0.0,0.0,0.0,0.0,0.0,0.0,1.6768,1.6003,1.5168,1.3562,1.2899,1.2481,1.2328,1.1685,1.1206,1.1104,1.0962,1.0921,1.1016,1.0833,1.0812,1.1016,1.0826,1.0772,1.0806,1.0772,1.0717,1.0717,1.0717,1.0717,1.0717,1.0717,1.0717,1.0717,1.0717,1.0717,1.0717,1.0717,1.0717,1.0717,1.0717,1.0717,1.0724,1.0772,1.0765,1.0738,1.0826,1.0928,1.1036,1.1185,1.1267,1.1314,1.1375,1.1423,1.145,1.1402,1.1504,1.1619,1.1619,1.1619,1.1619,1.1619,1.1619,1.1619,1.1619,1.1619,1.1619,1.1619,1.1619,1.1619,1.1619,1.1619,1.1619,1.1619,1.1619,1.1619,1.1619,1.1531,1.1443,1.1396,1.1165,1.1016,1.1016,1.0921,1.0907,1.1009,1.0873,1.0772,1.0724,1.0717,1.0717,1.0717,1.0717,1.0717,1.0717,1.0717,1.0717,1.0717,1.0717,1.0717,1.5784,1.5784,1.5979,0.0,0.0,0.0,1.9466,1.9813,2.0388,2.2499,0.0,2.1534,2.1162,0.0,0.0,2.1521,2.057,1.9912,2.0051,1.8633,1.7329,1.6886,1.5247,1.4138,1.3823,1.2036,1.0948,1.088,1.0806,1.0717,1.0717,1.0717,1.0717,1.0717,1.0717,1.0717,1.0717,1.0717,1.0717,1.0717,1.0717,1.0717,1.0717,1.0717,1.0717,1.0717,1.0717,1.0717,1.0717,1.0717,1.0717,1.0717,1.0717,1.0717,1.0738,1.0826,1.0786,1.0765,1.1056,1.1227,1.1185,1.1341,1.1491,1.1592,1.1436,1.1497,1.1586,1.1436,1.1504,1.1619,1.1619,1.1619,1.1619,1.1619,1.1619,1.1619,1.1619,1.1619,1.1619,1.1619,1.1619,1.1619,1.1619,1.1619,1.1619,1.1619,1.1619,1.1619,1.1619,1.1619,1.1558,1.1409,1.1253,1.1234,1.1234,1.1234,1.1234,1.1234,1.1029,1.0813,1.0731,1.0724,1.0724,1.0724,1.0724,1.0724,1.0717,1.0717,1.0717,1.0717,1.0717,1.0717,1.5784,1.6286,0.0,0.0,0.0,0.0,0.0,2.0414,0.0,0.0,0.0,2.1764,2.147,0.0,0.0,2.1243,2.1163,2.0668,1.9622,1.9027,1.8132,1.6692,1.606,1.5168,1.3705,1.3041,1.2164,1.0859,1.0744,1.0717,1.0717,1.0717,1.0717,1.0717,1.0717,1.0717,1.0717,1.0717,1.0717,1.0717,1.0717,1.0717,1.0717,1.0717,1.0717,1.0717,1.0717,1.0717,1.0717,1.0717,1.0717,1.0717,1.0717,1.0717,1.0724,1.0772,1.0758,1.0731,1.0819,1.0921,1.1023,1.1063,1.1253,1.145,1.1402,1.1497,1.1613,1.1565,1.1586,1.1619,1.1619,1.1619,1.1619,1.1619,1.1619,1.1619,1.1619,1.1619,1.1619,1.1619,1.1619,1.1653,1.1748,1.1769,1.1769,1.1769,1.1769,1.1735,1.1633,1.1619,1.1558,1.1409,1.1348,1.1321,1.1321,1.1226,1.1206,1.1314,1.1185,1.1077,1.1036,1.0934,1.0813,1.0813,1.0813,1.0759,1.0717,1.0717,1.0717,1.0717,1.0717,1.0717,1.5744,0.0,0.0,0.0,0.0,0.0,0.0,0.0,0.0,0.0,0.0,2.1897,2.1668,2.1427,0.0,2.1269,2.1494,2.1319,2.046,2.0298,1.9851,1.8593,1.7851,1.6624,1.4629,1.3817,1.2656,1.0857,1.0717,1.0717,1.0717,1.0717,1.0717,1.0717,1.0663,1.0629,1.0629,1.0629,1.0629,1.0629,1.0629,1.0986,1.1696,1.1049,1.0717,1.0717,1.0717,1.0717,1.0717,1.0717,1.0717,1.0717,1.0717,1.0717,1.0724,1.0785,1.0772,1.0738,1.0853,1.0921,1.0887,1.1016,1.1192,1.1389,1.1389,1.1497,1.1619,1.1619,1.1619,1.1619,1.1619,1.1619,1.1619,1.1619,1.1619,1.1619,1.1619,1.1619,1.1619,1.1619,1.1619,1.1667,1.1809,1.183,1.183,1.183,1.1782,1.1714,1.1633,1.1619,1.1586,1.1491,1.1531,1.1545,1.1484,1.145,1.1443,1.1477,1.1341,1.128,1.1341,1.1145,1.1036,1.1036,1.1036,1.0962,1.0812,1.0812,1.0778,1.0717,1.0717,1.0717,1.5778,0.0,0.0,0.0,0.0,0.0,0.0,0.0,0.0,0.0,0.0,0.0,2.1668,2.1172,2.0922,2.1494,2.1574,2.1668,2.1871,2.1911,2.1804,2.1614,2.019,1.8369,1.6322,1.467,1.3046,1.1306,1.1035,1.0902,1.0916,1.0784,1.0711,1.0697,1.0561,1.0487,1.0473,1.0473,1.0473,1.0473,1.0473,1.138,1.2947,1.141,1.0704,1.0717,1.0717,1.0717,1.0717,1.0717,1.0717,1.0717,1.0717,1.0717,1.0738,1.0806,1.0772,1.0758,1.1029,1.1036,1.088,1.1077,1.1233,1.1369,1.1369,1.1491,1.1619,1.1619,1.1619,1.1619,1.1619,1.1619,1.1619,1.1619,1.1619,1.1619,1.1619,1.1619,1.1619,1.1619,1.1619,1.1667,1.1809,1.1843,1.1857,1.187,1.1748,1.166,1.166,1.166,1.166,1.166,1.1775,1.1796,1.1674,1.1775,1.1796,1.1667,1.1518,1.1491,1.1633,1.1348,1.1255,1.1255,1.1255,1.1111,1.09,1.0887,1.0887,1.0758,1.0744,1.0751,0.0,1.6268,0.0,0.0,0.0,0.0,0.0,0.0,0.0,0.0,0.0,0.0,0.0,2.1521,2.1323,2.1216,2.1203,2.1229,2.1283,2.1296,2.1269,2.1216,2.0884,1.994,1.8127,1.7423,1.6435,1.493,1.3319,1.2531,1.2734,1.1439,1.0663,1.0548,1.0507,1.0439,1.0324,1.0324,1.0324,1.0324,1.0324,1.0529,1.0948,1.0681,1.0609,1.0717,1.0717,1.0717,1.0717,1.0717,1.0717,1.0717,1.0717,1.0717,1.0724,1.0758,1.0751,1.0731,1.0792,1.0792,1.0772,1.0806,1.0995,1.1212,1.1212,1.1402,1.1619,1.1619,1.1619,1.1619,1.1619,1.1619,1.1619,1.1619,1.1619,1.1619,1.1619,1.1619,1.1619,1.1619,1.1619,1.1667,1.1809,1.1932,1.2054,1.2176,1.206,1.1965,1.1965,1.1965,1.1965,1.1965,1.1993,1.1999,1.1972,1.1993,1.1999,1.1965,1.1823,1.1748,1.1782,1.1497,1.1341,1.1341,1.1341,1.1267,1.1118,1.1002,1.0989,1.1063,1.0948,1.0962,0.0,0.0,0.0,0.0,0.0,0.0,0.0,0.0,0.0,0.0,0.0,0.0,0.0,0.0,2.1296,2.1136,2.1109,2.1109,2.1109,2.1109,2.1109,2.1109,2.0989,2.0192,1.8451,1.8027,1.7173,1.559,1.4487,1.3653,1.3054,1.2169,1.13,1.0456,1.0317,1.0243,1.0168,1.0168,1.0168,1.0168,1.0915,1.1283,1.1298,1.0777,1.0575,1.0717,1.0717,1.0717,1.0717,1.0717,1.0717,1.0717,1.0717,1.0717,1.0717,1.0717,1.0717,1.0717,1.0717,1.0717,1.0717,1.0717,1.0921,1.1234,1.1234,1.1375,1.1619,1.1619,1.1619,1.1619,1.1619,1.1619,1.1619,1.1619,1.1619,1.1619,1.1619,1.1674,1.1721,1.1721,1.1721,1.1769,1.1918,1.2006,1.2115,1.2271,1.2162,1.2135,1.2135,1.2135,1.2135,1.2135,1.2128,1.2142,1.2142,1.2128,1.2142,1.2067,1.1986,1.1938,1.1938,1.1796,1.1647,1.1504,1.1497,1.1423,1.1274,1.1199,1.1158,1.1227,1.1084,1.109,0.0,0.0,0.0,0.0,0.0,0.0,0.0,0.0,0.0,0.0,0.0,0.0,0.0,0.0,2.1029,2.1029,2.1029,2.1015,2.0962,2.0962,2.0962,2.0962,2.0748,2.0032,1.8627,1.8201,1.7384,1.6,1.5587,1.4844,1.3635,1.3018,1.2067,1.0742,1.0239,0.9977,0.995,0.995,1.0067,1.0376,1.2024,1.2646,1.239,1.1307,1.0753,1.0643,1.0643,1.0656,1.0683,1.0683,1.0697,1.0717,1.0717,1.0717,1.0717,1.0717,1.0717,1.0717,1.0717,1.0717,1.0717,1.0717,1.0907,1.1131,1.1158,1.1355,1.1586,1.1613,1.1619,1.1619,1.1619,1.1619,1.1619,1.1619,1.164,1.1653,1.1653,1.1748,1.1837,1.1864,1.187,1.1918,1.2074,1.2101,1.2155,1.2305,1.2216,1.2135,1.2135,1.2135,1.2135,1.2135,1.225,1.2277,1.2149,1.225,1.2271,1.2149,1.2115,1.2088,1.206,1.2135,1.1932,1.166,1.1653,1.1579,1.143,1.1402,1.1341,1.124,1.124,1.124,0.0,0.0,0.0,0.0,0.0,0.0,0.0,0.0,0.0,0.0,0.0,0.0,0.0,0.0,0.0,0.0,0.0,0.0,0.0,0.0,0.0,0.0,0.0,0.0,1.9916,1.9653,1.9528,1.9533,1.7901,1.6895,1.6915,1.426,1.2511,1.2114,1.0736,0.9923,0.9849,0.9849,1.0511,1.1949,1.3513,1.3667,1.2381,1.2246,1.1501,1.0337,1.0337,1.0412,1.0521,1.0521,1.0602,1.0717,1.0717,1.0717,1.0717,1.0717,1.0717,1.0717,1.0717,1.0717,1.0717,1.0717,1.0839,1.1002,1.1124,1.1287,1.145,1.1586,1.1619,1.1619,1.1619,1.1619,1.1619,1.1619,1.1714,1.1803,1.1803,1.1816,1.187,1.2006,1.2033,1.2081,1.2237,1.2257,1.2311,1.2454,1.2454,1.244,1.244,1.244,1.244,1.244,1.2461,1.2467,1.2447,1.2461,1.2467,1.244,1.2325,1.2203,1.2067,1.2135,1.1979,1.1809,1.1803,1.1735,1.1586,1.1457,1.145,1.1558,1.1558,1.1558,0.0,0.0,0.0,0.0,0.0,0.0,0.0,0.0,0.0,0.0,0.0,0.0,0.0,0.0,0.0,0.0,0.0,0.0,0.0,0.0,0.0,0.0,0.0,0.0,0.0,0.0,0.0,1.9733,1.8906,1.8099,1.7302,1.5909,1.466,1.3667,1.1993,1.1117,1.114,1.0155,1.0988,1.3586,1.5192,1.5126,1.3607,1.3607,1.2381,1.0283,1.0283,1.0365,1.0493,1.0493,1.0582,1.0717,1.0717,1.0717,1.0717,1.0717,1.0717,1.0717,1.0717,1.0717,1.0717,1.0717,1.0759,1.0894,1.1023,1.1206,1.1402,1.147,1.1552,1.1619,1.1619,1.1619,1.1619,1.1619,1.1667,1.1735,1.1816,1.1965,1.2108,1.2176,1.2189,1.221,1.2277,1.2291,1.2338,1.2481,1.2501,1.2501,1.2501,1.2501,1.2535,1.2623,1.263,1.263,1.263,1.263,1.2589,1.2508,1.244,1.2379,1.2311,1.2311,1.2237,1.2088,1.1918,1.1843,1.187,1.1714,1.1714,1.187,1.187,1.187,0.0,0.0,0.0,0.0,0.0,0.0,0.0,0.0,0.0,0.0,0.0,0.0,0.0,0.0,0.0,0.0,0.0,0.0,0.0,0.0,0.0,0.0,0.0,0.0,0.0,0.0,0.0,0.0,1.9292,1.8777,1.7521,1.7101,1.6308,1.5024,1.3334,1.2273,1.2014,1.1122,1.2199,1.5108,1.6693,1.6669,1.5192,1.4777,1.322,1.0782,1.035,1.027,1.0504,1.0948,1.1192,1.1372,1.1372,1.1372,1.1306,1.085,1.0717,1.0717,1.0717,1.0717,1.0717,1.0717,1.0799,1.084,1.0982,1.1158,1.1348,1.143,1.1531,1.1619,1.1619,1.1619,1.1626,1.1667,1.1701,1.1762,1.1864,1.2101,1.2298,1.2338,1.2345,1.2345,1.2345,1.2345,1.2393,1.2535,1.2562,1.2576,1.261,1.2617,1.2664,1.2779,1.2786,1.2786,1.2786,1.2786,1.2739,1.2623,1.2583,1.2542,1.2501,1.2501,1.2433,1.2291,1.2067,1.1986,1.2135,1.1945,1.1945,1.206,1.2101,1.2101,0.0,0.0,0.0,0.0,0.0,0.0,0.0,0.0,0.0,0.0,0.0,0.0,0.0,0.0,0.0,0.0,0.0,0.0,0.0,0.0,0.0,0.0,0.0,0.0,0.0,0.0,0.0,0.0,1.9105,1.8888,1.8831,1.7367,1.6366,1.602,1.4452,1.2918,1.1569,1.2984,1.4567,1.6425,1.8008,1.8148,1.6844,1.5311,1.3715,1.2001,1.0504,1.0012,1.0417,1.2107,1.2939,1.3128,1.3128,1.3128,1.2931,1.1306,1.0717,1.0717,1.0717,1.0717,1.0717,1.0717,1.0724,1.0785,1.107,1.1234,1.1233,1.1525,1.1613,1.1619,1.1619,1.1619,1.1653,1.1789,1.1932,1.2115,1.2047,1.2176,1.2332,1.2467,1.2488,1.2488,1.2488,1.2488,1.2542,1.2698,1.2718,1.2773,1.2922,1.2935,1.2942,1.2949,1.2949,1.2949,1.2949,1.2949,1.2942,1.2935,1.28,1.2651,1.2508,1.2501,1.2433,1.2291,1.2277,1.2196,1.2135,1.2054,1.2054,1.2067,1.221,1.2203,0.0,0.0,0.0,0.0,0.0,0.0,0.0,0.0,0.0,0.0,0.0,0.0,0.0,0.0,0.0,0.0,0.0,0.0,0.0,0.0,0.0,0.0,0.0,0.0,0.0,0.0,0.0,0.0,0.0,1.8651,1.8651,1.8121,1.7733,1.7631,1.5978,1.4378,1.2824,1.4629,1.5852,1.6517,1.8346,1.8429,1.6973,1.5311,1.3706,1.2157,1.1615,1.1579,1.2091,1.377,1.4633,1.4939,1.4939,1.4297,1.3193,1.261,1.163,1.0717,1.0717,1.0717,1.0717,1.0717,1.0717,1.0758,1.0962,1.109,1.1206,1.1416,1.1545,1.164,1.1735,1.1755,1.1789,1.1945,1.202,1.2088,1.2189,1.2325,1.244,1.2488,1.2583,1.2651,1.2651,1.2732,1.2813,1.2868,1.2874,1.2901,1.2956,1.2963,1.2996,1.3085,1.3098,1.3098,1.3098,1.3098,1.3057,1.305,1.2908,1.2807,1.2657,1.2745,1.2678,1.2433,1.2522,1.2494,1.2345,1.225,1.2257,1.2345,1.24,1.2393,0.0,0.0,0.0,0.0,0.0,0.0,0.0,0.0,0.0,0.0,0.0,0.0,0.0,0.0,0.0,0.0,0.0,0.0,0.0,0.0,0.0,0.0,0.0,0.0,0.0,0.0,0.0,0.0,0.0,0.0,1.8343,1.8343,1.825,1.805,1.6555,1.5418,1.4743,1.5779,1.6589,1.7207,1.855,1.8732,1.7747,1.5607,1.4004,1.2988,1.2988,1.2873,1.2931,1.5226,1.6348,1.6647,1.6722,1.6043,1.4874,1.3709,1.2545,1.1505,1.0916,1.0717,1.0717,1.0717,1.0717,1.0758,1.0962,1.109,1.1275,1.1409,1.1572,1.1714,1.1809,1.1904,1.2013,1.2115,1.2176,1.2237,1.2338,1.24,1.2461,1.2562,1.2657,1.2745,1.28,1.2895,1.3056,1.3024,1.303,1.3051,1.3105,1.3112,1.3146,1.3241,1.3247,1.3247,1.3247,1.3247,1.3207,1.3112,1.3057,1.2983,1.2881,1.2935,1.2868,1.2657,1.2752,1.2759,1.2657,1.2461,1.2413,1.2501,1.2556,1.2576,0.0,0.0,0.0,0.0,0.0,0.0,0.0,0.0,0.0,0.0,0.0,0.0,0.0,0.0,0.0,0.0,0.0,0.0,0.0,0.0,0.0,0.0,0.0,0.0,0.0,0.0,0.0,0.0,1.8183,1.7969,1.7969,1.7955,1.7742,1.7219,1.6085,1.6033,1.7206,1.6369,1.6844,1.849,1.8798,1.9092,1.9301,1.609,1.4599,1.4658,1.4599,1.3819,1.2803,1.6447,1.8063,1.8211,1.8458,1.8564,1.8116,1.4679,1.339,1.3062,1.1372,1.0717,1.0717,1.0717,1.0724,1.0785,1.1077,1.1165,1.1233,1.1538,1.1721,1.183,1.1843,1.2067,1.2298,1.2298,1.24,1.2501,1.2508,1.24,1.2386,1.2671,1.2739,1.2793,1.2942,1.2969,1.3024,1.3159,1.318,1.3234,1.3383,1.3403,1.3403,1.3403,1.3403,1.3403,1.3403,1.3403,1.3403,1.3403,1.3261,1.318,1.3173,1.3044,1.2969,1.2963,1.2963,1.2963,1.2963,1.2657,1.2508,1.2522,1.2664,1.2732,1.646,0.0,0.0,0.0,0.0,0.0,0.0,0.0,0.0,0.0,0.0,0.0,0.0,0.0,0.0,0.0,0.0,0.0,0.0,0.0,0.0,0.0,0.0,0.0,0.0,0.0,0.0,0.0,1.7448,1.7395,1.7395,1.7194,1.7101,1.7206,1.6911,1.6859,1.7206,1.7566,1.801,1.8504,1.9011,1.9292,1.9301,1.609,1.5252,1.6256,1.5133,1.5056,1.5893,1.8272,1.9533,1.9985,2.0063,1.9436,1.8372,1.7409,1.5459,1.3259,1.2742,1.1762,1.0717,1.0717,1.0799,1.0921,1.1104,1.124,1.1369,1.1565,1.1721,1.1884,1.2108,1.2305,1.244,1.244,1.2474,1.2528,1.2644,1.2637,1.263,1.2712,1.2901,1.3064,1.3105,1.3207,1.3295,1.3336,1.3336,1.3356,1.3397,1.3403,1.3403,1.3403,1.3403,1.3403,1.3403,1.3403,1.3403,1.3403,1.3363,1.3288,1.318,1.3241,1.318,1.2963,1.3064,1.3064,1.2963,1.2766,1.2725,1.2834,1.2759,1.2732,0.0,0.0,0.0,0.0,0.0,0.0,1.6086,1.6019,1.5979,0.0,0.0,0.0,0.0,0.0,0.0,0.0,0.0,0.0,0.0,0.0,0.0,0.0,0.0,0.0,0.0,1.67,1.678,1.7005,1.7018,1.7072,1.7192,1.6874,1.678,1.7005,1.7139,1.7139,1.7018,1.7983,1.849,1.8504,1.9092,1.943,1.9301,1.6738,1.6138,1.6973,1.602,1.6138,1.7161,1.8887,1.996,2.0508,2.0628,2.0216,1.9483,1.8768,1.6754,1.4297,1.3578,1.2157,1.0717,1.0717,1.0759,1.0907,1.1118,1.1267,1.1436,1.1647,1.1857,1.2081,1.2318,1.244,1.2501,1.2501,1.2549,1.2623,1.2712,1.2827,1.2915,1.2915,1.3051,1.3193,1.3254,1.3342,1.3403,1.3403,1.3403,1.3403,1.3403,1.3403,1.3403,1.3403,1.3403,1.3403,1.3403,1.3403,1.3403,1.3403,1.3403,1.3363,1.3268,1.3356,1.3322,1.3146,1.3227,1.3193,1.3051,1.2901,1.2901,1.3044,1.2827,1.2766,0.0,0.0,0.0,0.0,0.0,0.0,1.6339,1.6321,1.6192,1.5885,0.0,0.0,0.0,0.0,0.0,0.0,0.0,0.0,0.0,0.0,0.0,0.0,0.0,0.0,1.6607,1.6607,1.662,1.666,1.666,1.6794,1.7139,1.6794,1.662,1.666,1.6941,1.7018,1.6714,1.7889,1.849,1.8504,1.9092,1.943,1.9359,1.7747,1.7091,1.7267,1.7091,1.7079,1.7384,1.8823,1.9706,2.0254,2.0521,2.0828,2.0919,1.9355,1.7538,1.5654,1.4101,1.2347,1.0724,1.0738,1.098,1.1267,1.1214,1.1434,1.1754,1.1848,1.2067,1.2325,1.2467,1.2501,1.2508,1.2522,1.263,1.2739,1.2773,1.299,1.318,1.3193,1.32,1.3241,1.3376,1.3403,1.3403,1.3403,1.3403,1.3403,1.3403,1.3403,1.3403,1.3403,1.3403,1.3403,1.3403,1.3403,1.3403,1.3403,1.3403,1.3403,1.3403,1.3403,1.3403,1.3403,1.3403,1.3336,1.32,1.3057,1.3051,1.3166,1.2888,1.2827,0.0,0.0,0.0,0.0,0.0,0.0,1.6442,1.6321,1.6192,0.0,0.0,0.0,0.0,0.0,0.0,0.0,0.0,0.0,0.0,0.0,0.0,0.0,0.0,0.0,1.6005,1.6005,1.6099,1.6339,1.6353,1.6486,1.678,1.6286,1.6112,1.6353,1.6633,1.6767,1.67,1.7889,1.849,1.8504,1.9092,1.943,1.9359,1.7747,1.7689,1.8881,1.756,1.7747,1.8939,1.9243,1.9706,2.0241,2.0294,2.0641,2.1046,2.0716,1.8576,1.5848,1.5524,1.3325,1.0744,1.0799,1.2007,1.3122,1.1783,1.2496,1.3539,1.2367,1.2149,1.2325,1.2467,1.2501,1.2535,1.2657,1.2712,1.2793,1.3037,1.3132,1.3207,1.3336,1.3356,1.3363,1.3397,1.3403,1.3403,1.3403,1.3403,1.3403,1.3403,1.3403,1.3403,1.3403,1.3403,1.3403,1.3403,1.3403,1.3403,1.3403,1.3403,1.3403,1.3403,1.3403,1.3403,1.3403,1.3403,1.339,1.3356,1.3207,1.3146,1.3166,1.2996,1.2935,0.0,0.0,0.0,1.7447,0.0,0.0,0.0,1.6593,1.6406,1.6112,0.0,0.0,0.0,0.0,0.0,0.0,0.0,0.0,0.0,0.0,0.0,0.0,0.0,0.0,1.5784,1.5784,1.5885,1.6046,1.6046,1.6179,1.6473,1.6072,1.5965,1.6308,1.6553,1.67,1.67,1.7742,1.8343,1.849,1.8931,1.9225,1.9372,1.8577,1.8648,1.9372,1.8519,1.8648,1.943,1.9519,1.984,2.0167,2.0167,2.0588,2.1109,2.1109,1.9419,1.7076,1.6172,1.4166,1.2048,1.2291,1.2459,1.2628,1.2789,1.3009,1.3094,1.231,1.2223,1.2427,1.2576,1.2617,1.2657,1.2807,1.2901,1.299,1.3139,1.3234,1.3308,1.339,1.3403,1.3403,1.3403,1.3403,1.3403,1.3403,1.3403,1.3403,1.3403,1.3403,1.3403,1.3403,1.3471,1.3512,1.3512,1.3512,1.3512,1.3512,1.3444,1.3403,1.3403,1.3403,1.3403,1.3403,1.3403,1.3403,1.3403,1.3247,1.3214,1.3281,1.3132,1.3064,0.0,0.0,0.0,0.0,0.0,1.7502,0.0,0.0,0.0,0.0,0.0,0.0,0.0,0.0,0.0,0.0,0.0,0.0,0.0,0.0,0.0,0.0,0.0,0.0,1.5784,1.5784,1.5784,1.5784,1.5784,1.5939,1.6179,1.5965,1.5965,1.6308,1.6553,1.6727,1.6794,1.7569,1.8196,1.849,1.8784,1.9078,1.943,1.943,1.943,1.943,1.943,1.943,1.9444,1.9626,1.992,2.0241,2.0294,2.0641,2.1109,2.1109,2.0005,1.8308,1.6883,1.5294,1.3862,1.3796,1.2657,1.1622,1.3644,1.3248,1.2142,1.2094,1.2318,1.2576,1.2698,1.2752,1.2813,1.2969,1.3091,1.318,1.3207,1.3315,1.3403,1.3403,1.3403,1.3403,1.3403,1.3403,1.3403,1.3403,1.3403,1.3403,1.3403,1.3403,1.3403,1.3403,1.3512,1.36,1.3627,1.36,1.36,1.3627,1.3485,1.3403,1.3403,1.3403,1.3403,1.3403,1.3403,1.3403,1.3403,1.3275,1.3281,1.3397,1.3247,1.3173,0.0,0.0,0.0,0.0,1.7582,0.0,0.0,0.0,1.7072,1.6714,0.0,0.0,0.0,0.0,0.0,0.0,0.0,0.0,0.0,0.0,0.0,0.0,0.0,0.0,0.0,1.5784,1.5784,1.5784,1.5784,1.5798,1.5824,1.5798,1.5965,1.6308,1.6553,1.6834,1.7152,1.7729,1.8196,1.849,1.8784,1.9078,1.943,1.943,1.943,1.943,1.943,1.943,1.943,1.9399,1.9733,2.0254,2.0521,2.0828,2.1109,2.1109,2.0005,1.8448,1.8244,1.7282,1.5783,1.4323,1.2781,1.1951,1.4026,1.344,1.2088,1.2223,1.2474,1.2712,1.2725,1.2834,1.2969,1.3112,1.3159,1.3207,1.3349,1.339,1.3403,1.3403,1.3403,1.3403,1.3403,1.3403,1.3403,1.3403,1.3403,1.3403,1.3403,1.3403,1.3403,1.3403,1.3417,1.3485,1.3614,1.3505,1.3485,1.362,1.3485,1.3403,1.3403,1.3403,1.3403,1.3403,1.3403,1.3403,1.3403,1.3383,1.3383,1.3397,1.3247,1.3173,0.0,0.0,0.0,0.0,0.0,0.0,1.7474,0.0,1.7166,0.0,0.0,0.0,0.0,0.0,0.0,0.0,1.5784,0.0,0.0,0.0,0.0,0.0,0.0,0.0,0.0,0.0,0.0,0.0,1.5784,1.5784,1.5784,1.5784,1.5965,1.6308,1.6553,1.6847,1.7192,1.7742,1.8196,1.849,1.8784,1.9078,1.943,1.943,1.943,1.943,1.943,1.943,1.9399,1.9733,2.0013,2.0281,2.0748,2.1002,2.1109,2.1109,2.0652,1.989,1.9076,1.8404,1.7499,1.4891,1.4422,1.483,1.4805,1.4335,1.3854,1.4026,1.4245,1.4226,1.3151,1.2976,1.3119,1.3268,1.3302,1.3322,1.339,1.3403,1.3403,1.3403,1.3403,1.3403,1.3403,1.3403,1.3431,1.3519,1.3532,1.3532,1.3532,1.3532,1.3498,1.341,1.3553,1.3682,1.3749,1.3695,1.3682,1.3749,1.3532,1.3403,1.3403,1.3403,1.3403,1.3403,1.3403,1.3403,1.3403,1.3403,1.3403,1.3397,1.3336,1.3302,1.7487,0.0,0.0,0.0,0.0,0.0,0.0,0.0,0.0,0.0,0.0,0.0,0.0,0.0,0.0,0.0,0.0,0.0,0.0,0.0,0.0,0.0,0.0,0.0,0.0,0.0,0.0,1.5784,1.5784,1.5784,1.5784,1.5784,1.6005,1.638,1.6593,1.6887,1.7313,1.7782,1.8196,1.849,1.8784,1.9078,1.943,1.943,1.943,1.943,1.943,1.943,1.947,1.9907,2.016,2.022,2.0788,2.1042,2.1109,2.1109,2.1162,2.1065,2.0088,1.9453,1.8772,1.653,1.6527,1.7167,1.602,1.5857,1.5981,1.6178,1.6442,1.6242,1.4343,1.3974,1.3984,1.3535,1.3403,1.3403,1.3403,1.3403,1.3403,1.3403,1.3403,1.3403,1.3403,1.3437,1.3485,1.3553,1.3634,1.3654,1.3573,1.36,1.3573,1.3417,1.3627,1.3783,1.3783,1.3783,1.3763,1.3722,1.3519,1.3403,1.3403,1.3403,1.3403,1.3403,1.3403,1.3403,1.3403,1.3403,1.3403,1.3403,1.3403,1.3403,0.0,0.0,0.0,1.7515,0.0,0.0,0.0,0.0,1.7569,0.0,0.0,0.0,0.0,0.0,0.0,0.0,0.0,0.0,0.0,0.0,0.0,0.0,0.0,0.0,0.0,0.0,1.5784,1.5784,1.5784,1.5784,1.5784,1.5784,1.6051,1.6673,1.67,1.6981,1.7569,1.7889,1.8196,1.849,1.8784,1.9078,1.943,1.943,1.943,1.943,1.943,1.943,1.9444,1.9693,1.9987,2.0207,2.0575,2.0855,2.1109,2.1109,2.1296,2.1601,2.155,2.0646,1.9619,1.9819,1.8871,1.7683,1.7752,1.7973,1.8269,1.8416,1.8799,1.8602,1.6485,1.6207,1.5991,1.3887,1.3403,1.3403,1.3403,1.3403,1.3403,1.3403,1.3403,1.3403,1.3403,1.3526,1.3573,1.3431,1.3648,1.3729,1.3444,1.3539,1.3573,1.3417,1.3539,1.3634,1.3634,1.3634,1.3573,1.3424,1.3403,1.3403,1.3403,1.3403,1.3403,1.3403,1.3403,1.3403,1.3403,1.3403,1.3403,1.3403,1.3403,1.3403,0.0,0.0,1.7273,1.7515,0.0,0.0,0.0,0.0,0.0,0.0,0.0,0.0,0.0,0.0,0.0,0.0,0.0,0.0,0.0,0.0,0.0,0.0,0.0,0.0,0.0,0.0,0.0,1.5784,1.5784,1.5784,1.5784,1.5784,1.6099,1.6687,1.67,1.7088,1.7876,1.8183,1.849,1.8784,1.9078,1.9265,1.943,1.943,1.943,1.943,1.943,1.9479,1.9679,1.996,2.0267,2.0548,2.0842,2.1029,2.1109,2.1109,2.1296,2.1668,2.1991,2.1975,2.1607,2.0455,1.9877,1.9551,1.9798,2.0117,2.0365,2.0538,2.0776,2.0527,1.8651,1.7235,1.6179,1.5647,1.4458,1.3403,1.3403,1.3403,1.3403,1.3403,1.3403,1.3403,1.3403,1.3607,1.3722,1.3573,1.3804,1.3885,1.3593,1.3682,1.3715,1.3566,1.3682,1.381,1.3912,1.3831,1.3661,1.3417,1.3403,1.3403,1.3403,1.3403,1.3403,1.3403,1.3403,1.3403,1.3403,1.3403,1.3403,1.3403,1.3403,1.3403,1.6804,1.6884,0.0,1.738,1.7474,0.0,1.7555,0.0,0.0,0.0,0.0,0.0,0.0,0.0,0.0,0.0,0.0,0.0,0.0,0.0,0.0,0.0,0.0,0.0,0.0,0.0,1.5784,1.5784,1.5784,1.5784,0.0,0.0,1.6206,1.6687,1.6914,1.7355,1.7982,1.845,1.8744,1.8931,1.9225,1.943,1.943,1.943,1.943,1.943,1.9479,1.9626,1.9826,2.0227,2.0508,2.0708,2.1002,2.1109,2.1109,2.1109,2.1363,2.179,2.2378,2.2699,2.2735,2.1584,2.1447,2.1719,2.1978,2.225,2.2583,2.2608,2.2779,2.2593,2.0747,1.8848,1.7217,1.6687,1.4946,1.3403,1.3403,1.3403,1.3403,1.3403,1.3403,1.3403,1.3403,1.3648,1.3705,1.3648,1.3926,1.4027,1.3675,1.3749,1.3763,1.3566,1.3682,1.3824,1.398,1.3851,1.3682,1.3492,1.3431,1.3403,1.3403,1.3403,1.3424,1.3485,1.3431,1.3424,1.3485,1.3424,1.3403,1.3403,1.3403,1.3403]}]]